Date StartTime U_cm/s V_cm/s W_cm/s Ustd_cm/s Vstd_cm/s Wstd_cm/s Uvar_(cm/s)^2 Vvar_(cm/s)^2 Wvar_(cm/s)^2 KE_(m/s)^2 TurbulentKE_(m/s)^2 HorizWindSpeed_cm/s FrictionSpeec_cm/s DragCoef SpeedOfSound_m/s SonicTemperature_C Pressure_mb 
04/15/2014  00:00:00     -191.850      -68.370        5.677      111.572       87.701       49.261    12448.341     7691.408     2426.637        3.204        1.128      203.669       49.149        0.058      341.316       15.942      862.933
04/15/2014  00:01:00     -220.140     -139.614       -8.868      112.651      102.625       56.901    12690.264    10531.853     3237.772        4.724        1.323      260.679       54.293        0.043      341.360       16.015      862.931
04/15/2014  00:02:00     -131.647      -90.291        2.770      102.618       62.646       44.770    10530.505     3924.545     2004.332        2.097        0.823      159.636       42.561        0.071      341.314       15.939      862.931
04/15/2014  00:03:00     -143.217      -73.301       -9.754       98.399       79.453       42.000     9682.355     6312.733     1763.988        2.187        0.888      160.886       40.841        0.064      341.316       15.942      862.930
04/15/2014  00:04:00     -160.374      -22.192        3.654       97.937       60.590       41.696     9591.605     3671.120     1738.529        2.061        0.750      161.902       47.743        0.087      341.281       15.884      862.927
04/15/2014  00:05:00     -170.316      -87.516       -6.102       74.210       70.511       40.375     5507.143     4971.764     1630.129        2.440        0.605      191.486       36.873        0.037      341.283       15.888      862.929
04/15/2014  00:06:00     -195.367      -85.854      -12.435       90.095       48.790       41.070     8117.197     2380.460     1686.717        2.894        0.609      213.399       34.917        0.027      341.306       15.925      862.935
04/15/2014  00:07:00     -130.724      -68.223        0.398       86.444       61.091       43.244     7472.517     3732.167     1870.075        1.741        0.654      147.455       45.120        0.094      341.267       15.860      862.938
04/15/2014  00:08:00     -110.224      -56.649        0.807       56.762       50.072       29.040     3221.877     2507.238      843.327        1.096        0.329      123.930       27.338        0.049      341.260       15.850      862.929
04/15/2014  00:09:00      -49.577      -19.858       10.858       53.466       42.327       27.002     2858.575     1791.579      729.127        0.417        0.269       53.406       23.497        0.194      341.202       15.751      862.921
04/15/2014  00:10:00      -78.952      -21.091        5.896       54.736       42.856       24.098     2996.013     1836.635      580.694        0.606        0.271       81.721       29.699        0.132      341.125       15.622      862.915
04/15/2014  00:11:00     -139.737      -53.232      -11.746       63.748       59.609       34.202     4063.804     3553.281     1169.755        1.564        0.439      149.533       38.426        0.066      341.252       15.834      862.914
04/15/2014  00:12:00     -217.128      -58.330       -5.057      104.088       83.812       43.693    10834.307     7024.392     1909.116        3.517        0.988      224.826       44.278        0.039      341.223       15.785      862.905
04/15/2014  00:13:00     -210.130       -4.927      -14.901       69.230       68.132       37.677     4792.779     4641.977     1419.546        2.763        0.543      210.188       34.981        0.028      341.261       15.848      862.904
04/15/2014  00:14:00     -146.900      -25.887       -2.065       61.259       56.812       37.903     3752.604     3227.573     1436.605        1.533        0.421      149.164       38.712        0.067      341.108       15.591      862.901
04/15/2014  00:15:00     -191.165      -60.712       -3.311       81.636       61.961       36.868     6664.468     3839.216     1359.261        2.605        0.593      200.574       41.278        0.042      341.085       15.549      862.909
04/15/2014  00:16:00     -172.728      -58.567       -1.457       62.519       48.466       35.198     3908.582     2348.988     1238.900        2.038        0.375      182.387       32.514        0.032      341.092       15.563      862.903
04/15/2014  00:17:00     -184.101      -59.784        0.183       73.063       62.336       38.415     5338.247     3885.734     1475.710        2.408        0.535      193.565       34.297        0.031      341.078       15.538      862.903
04/15/2014  00:18:00     -176.616      -38.011       -2.501       61.210       56.778       36.125     3746.701     3223.794     1305.009        2.046        0.414      180.660       37.516        0.043      341.063       15.513      862.904
04/15/2014  00:19:00     -152.868      -31.603        1.611       51.886       41.944       30.059     2692.112     1759.291      903.524        1.486        0.268      156.101       28.645        0.034      341.040       15.477      862.909
04/15/2014  00:20:00     -188.707      -74.368      -21.522       43.398       39.389       28.709     1883.366     1551.465      824.189        2.293        0.213      202.832       19.393        0.009      341.075       15.532      862.905
04/15/2014  00:21:00     -143.429      -53.622       -7.405       42.916       34.771       23.904     1841.767     1209.051      571.388        1.356        0.181      153.125       18.473        0.015      341.030       15.460      862.899
04/15/2014  00:22:00     -127.878      -59.808       -7.982       58.391       51.758       30.304     3409.487     2678.925      918.350        1.350        0.350      141.173       28.663        0.041      341.057       15.504      862.896
04/15/2014  00:23:00     -151.002      -38.008       -4.821       48.733       30.696       22.529     2374.870      942.257      507.571        1.405        0.191      155.712       21.454        0.019      341.012       15.428      862.902
04/15/2014  00:24:00      -99.470       -1.373       -1.226       49.798       52.773       24.482     2479.828     2785.016      599.390        0.788        0.293       99.480       20.729        0.043      341.091       15.563      862.890
04/15/2014  00:25:00     -177.719      -57.403       -5.429       68.408       60.422       39.402     4679.642     3650.840     1552.549        2.239        0.494      186.760       41.280        0.049      341.112       15.596      862.891
04/15/2014  00:26:00     -176.585      -50.402       -6.978       66.753       57.602       31.944     4455.939     3317.995     1020.425        2.128        0.440      183.637       28.565        0.024      341.080       15.542      862.893
04/15/2014  00:27:00     -158.171      -41.724        3.053       85.194       66.545       40.205     7257.988     4428.249     1616.424        2.003        0.665      163.581       48.453        0.088      341.062       15.512      862.892
04/15/2014  00:28:00     -181.844      -70.733       -1.191       72.966       70.739       34.438     5324.048     5004.054     1185.956        2.479        0.576      195.116       35.238        0.033      341.067       15.520      862.894
04/15/2014  00:29:00     -164.468      -52.826        1.000       68.168       65.012       37.287     4646.864     4226.543     1390.295        2.005        0.513      172.744       37.137        0.046      341.044       15.482      862.888
04/15/2014  00:30:00     -230.154      -35.559       -2.159       82.061       67.298       38.885     6733.976     4529.068     1512.028        3.350        0.639      232.884       38.690        0.028      341.137       15.638      862.877
04/15/2014  00:31:00     -215.734      -46.634       -0.781       59.316       48.338       32.600     3518.445     2336.584     1062.784        2.782        0.346      220.716       31.190        0.020      341.115       15.601      862.857
04/15/2014  00:32:00     -171.015      -53.602       -5.635       92.536       52.262       34.772     8562.903     2731.279     1209.082        2.232        0.625      179.219       43.001        0.058      341.033       15.462      862.829
04/15/2014  00:33:00     -126.076      -45.140        4.158       66.821       59.130       31.189     4465.035     3496.342      972.770        1.344        0.447      133.914       31.928        0.057      341.085       15.552      862.802
04/15/2014  00:34:00     -159.484      -33.292        1.898       73.616       51.871       29.324     5419.298     2690.550      859.882        1.776        0.448      162.922       27.607        0.029      341.149       15.660      862.772
04/15/2014  00:35:00     -179.477      -46.126       -6.754       58.567       47.887       28.654     3430.044     2293.150      821.075        2.046        0.327      185.309       26.749        0.021      341.109       15.593      862.755
04/15/2014  00:36:00     -147.839      -18.010       -7.665       62.781       27.883       25.378     3941.445      777.485      644.067        1.380        0.268      148.931       27.573        0.034      341.043       15.482      862.744
04/15/2014  00:37:00     -163.310      -28.858      -13.348       49.240       40.153       28.046     2424.558     1612.269      786.567        1.625        0.241      165.840       29.437        0.032      341.012       15.428      862.744
04/15/2014  00:38:00     -171.043      -30.939      -18.413       27.304       34.973       23.350      745.523     1223.084      545.221        1.653        0.126      173.818        8.976        0.003      341.051       15.495      862.752
04/15/2014  00:39:00     -116.343      -42.769       -3.159       65.452       41.470       27.991     4284.025     1719.741      783.482        1.108        0.339      123.955       24.766        0.040      340.903       15.244      862.770
04/15/2014  00:40:00     -136.940      -64.044       -6.782       35.361       30.772       27.432     1250.425      946.912      752.527        1.292        0.147      151.176       18.761        0.015      340.918       15.270      862.795
04/15/2014  00:41:00     -153.836      -46.969      -17.111       36.507       28.626       23.313     1332.781      819.431      543.486        1.443        0.135      160.847       19.699        0.015      340.906       15.250      862.818
04/15/2014  00:42:00     -103.863      -33.138       -3.425       56.130       48.301       22.150     3150.522     2333.007      490.603        0.893        0.299      109.022       25.158        0.053      340.816       15.099      862.833
04/15/2014  00:43:00     -126.520      -35.057       -4.717       47.191       28.116       21.164     2226.981      790.491      447.894        1.036        0.173      131.287       23.027        0.031      340.865       15.180      862.852
04/15/2014  00:44:00      -72.626      -39.736        4.994       55.780       46.353       23.523     3111.450     2148.628      553.329        0.634        0.291       82.785       29.261        0.125      340.856       15.165      862.858
04/15/2014  00:45:00      -45.756      -31.618        8.081       37.291       32.289       20.370     1390.594     1042.610      414.922        0.300        0.142       55.617       19.653        0.125      340.779       15.035      862.865
04/15/2014  00:46:00      -65.429     -106.137       -4.153       45.959       35.459       22.444     2112.220     1257.315      503.738        0.972        0.194      124.684       22.527        0.033      340.958       15.336      862.871
04/15/2014  00:47:00      -86.854      -48.061       -2.092       36.986       35.720       21.200     1367.963     1275.923      449.442        0.647        0.155       99.265       14.823        0.022      340.851       15.156      862.863
04/15/2014  00:48:00      -88.095      -36.748        0.308       58.049       31.221       23.552     3369.681      974.766      554.714        0.700        0.245       95.453       25.134        0.069      340.772       15.023      862.845
04/15/2014  00:49:00      -89.530      -81.035       -9.516       35.978       41.736       26.797     1294.394     1741.880      718.062        0.921        0.188      120.758       25.197        0.044      340.709       14.916      862.819
04/15/2014  00:50:00      -86.742       -9.834       -4.463       25.316       29.073       19.162      640.892      845.246      367.163        0.475        0.093       87.298       14.936        0.029      340.770       15.022      862.802
04/15/2014  00:51:00      -67.104        8.376      -10.000       24.849       25.348       20.163      617.456      642.531      406.562        0.317        0.083       67.625       13.162        0.038      340.734       14.959      862.793
04/15/2014  00:52:00      -67.696        2.666      -14.024       34.623       23.583       19.123     1198.757      556.152      365.703        0.345        0.106       67.748       19.720        0.085      340.777       15.031      862.795
04/15/2014  00:53:00      -92.864       -0.027      -11.504       28.961       19.396       18.405      838.741      376.187      338.756        0.515        0.078       92.864       19.110        0.042      340.601       14.733      862.792
04/15/2014  00:54:00      -68.136      -25.988       -4.882       23.699       34.564       15.895      561.629     1194.675      252.666        0.367        0.100       72.923        9.803        0.018      340.735       14.961      862.797
04/15/2014  00:55:00     -110.412      -43.091       -0.840       38.212       26.780       17.793     1460.186      717.172      316.599        0.827        0.125      118.522       13.718        0.013      340.585       14.708      862.813
04/15/2014  00:56:00     -117.518      -51.272        0.731       35.042       35.560       19.727     1227.937     1264.534      389.168        0.966        0.144      128.216       16.778        0.017      340.501       14.566      862.826
04/15/2014  00:57:00      -87.960      -52.125        3.744       53.105       39.304       25.036     2820.167     1544.836      626.788        0.773        0.250      102.245       21.382        0.044      340.526       14.607      862.832
04/15/2014  00:58:00     -110.261      -69.506       -0.359       41.537       26.014       22.795     1725.298      676.728      519.602        0.995        0.146      130.340       14.545        0.012      340.579       14.697      862.839
04/15/2014  00:59:00     -105.462      -63.847        2.763       61.880       43.287       25.885     3829.083     1873.761      670.016        1.079        0.319      123.283       26.270        0.045      340.476       14.522      862.849
04/15/2014  01:00:00     -159.492      -39.356       -2.689       50.623       44.406       26.830     2562.718     1971.929      719.870        1.612        0.263      164.276       22.849        0.019      340.443       14.467      862.859
04/15/2014  01:01:00      -68.795      -30.142        1.176       57.965       43.474       28.229     3359.957     1889.971      796.852        0.584        0.302       75.109       29.016        0.149      340.397       14.390      862.867
04/15/2014  01:02:00      -86.450       48.322       -2.652       57.451       45.316       30.425     3300.653     2053.582      925.672        0.805        0.314       99.038       28.143        0.081      340.351       14.312      862.892
04/15/2014  01:03:00      -74.526       70.440      -13.461       35.746       23.219       19.834     1277.775      539.103      393.383        0.645        0.111      102.547       21.390        0.044      340.283       14.195      862.884
04/15/2014  01:04:00      -86.942       16.362       -9.203       28.591       36.078       18.975      817.472     1301.625      360.057        0.519        0.124       88.469       15.962        0.033      340.570       14.682      862.874
04/15/2014  01:05:00      -71.269       -2.854       -2.391       30.439       25.709       17.010      926.556      660.953      289.349        0.348        0.094       71.326       15.510        0.047      340.502       14.567      862.877
04/15/2014  01:06:00      -28.721      -35.102        5.194       30.978       16.596       15.543      959.659      275.432      241.590        0.178        0.074       45.355       17.292        0.145      340.392       14.382      862.882
04/15/2014  01:07:00      -75.602      -34.612        0.409       24.529       13.316       10.808      601.675      177.319      116.805        0.390        0.045       83.148       10.419        0.016      340.361       14.330      862.905
04/15/2014  01:08:00      -78.040        3.973       -5.568       18.282       14.267       14.550      334.231      203.539      211.703        0.344        0.037       78.141        5.951        0.006      340.297       14.220      862.926
04/15/2014  01:09:00      -49.834      -13.457       -5.227        9.343       13.811       10.621       87.292      190.735      112.807        0.154        0.020       51.619        5.001        0.009      340.368       14.340      862.919
04/15/2014  01:10:00      -47.034      -37.878       -2.830       29.880       21.971       13.809      892.826      482.739      190.688        0.261        0.078       60.390        7.950        0.017      340.423       14.434      862.906
04/15/2014  01:11:00      -61.195      -49.374       -0.085       39.255       28.744       18.427     1540.974      826.225      339.571        0.444        0.135       78.630       16.231        0.043      340.363       14.333      862.893
04/15/2014  01:12:00      -61.516      -55.321       -2.405       60.383       27.043       21.426     3646.115      731.336      459.065        0.584        0.242       82.732       21.224        0.066      340.522       14.601      862.889
04/15/2014  01:13:00      -58.263      -35.971       -1.071       63.784       34.524       19.964     4068.360     1191.881      398.560        0.517        0.283       68.473       29.298        0.183      340.136       13.948      862.886
04/15/2014  01:14:00      -33.800      -18.433        2.730       36.734       31.688       15.346     1349.401     1004.158      235.500        0.204        0.129       38.500       18.312        0.226      340.196       14.049      862.895
04/15/2014  01:15:00      -94.077       18.692       -6.793       31.219       34.431       18.398      974.628     1185.477      338.502        0.587        0.125       95.916       12.764        0.018      340.240       14.123      862.912
04/15/2014  01:16:00     -128.114       29.052      -18.891       30.374       28.792       13.435      922.560      828.974      180.499        0.977        0.097      131.366        9.598        0.005      340.254       14.149      862.903
04/15/2014  01:17:00      -73.980       -5.158       -6.992       26.997       27.521       15.617      728.858      757.381      243.893        0.364        0.087       74.160        8.977        0.015      340.297       14.221      862.891
04/15/2014  01:18:00      -56.738       -1.376       -5.683       43.309       29.457       16.971     1875.634      867.702      288.013        0.314        0.152       56.754       21.521        0.144      340.316       14.252      862.876
04/15/2014  01:19:00      -60.619       64.611       -1.984       30.492       38.314       19.446      929.784     1467.996      378.134        0.531        0.139       88.596       21.504        0.059      340.734       14.959      862.834
04/15/2014  01:20:00      -10.704       81.698      -13.073       17.053       17.264        9.896      290.806      298.029       97.924        0.382        0.034       82.396       10.047        0.015      340.677       14.861      862.818
04/15/2014  01:21:00      -70.044       -6.154      -13.448       22.421       25.533        8.786      502.686      651.927       77.201        0.318        0.062       70.314        6.208        0.008      340.597       14.728      862.803
04/15/2014  01:22:00      -56.845      -11.108       -1.791       36.593       16.046       14.905     1339.034      257.473      222.173        0.259        0.091       57.920       17.186        0.088      340.153       13.976      862.799
04/15/2014  01:23:00       21.180        7.805       24.843       22.302       20.362       16.860      497.366      414.624      284.247        0.116        0.060       22.573       15.963        0.500      339.704       13.221      862.795
04/15/2014  01:24:00       -4.033      -22.316        9.845       18.246       38.709       23.221      332.906     1498.372      539.199        0.149        0.119       22.678       20.857        0.846      339.445       12.783      862.793
04/15/2014  01:25:00       -9.884       -9.289       -5.110       26.723       16.286       14.579      714.126      265.225      212.547        0.070        0.060       13.564       10.953        0.652      339.519       12.909      862.807
04/15/2014  01:26:00        3.763        6.587       11.498       26.424       17.155       13.816      698.249      294.305      190.878        0.069        0.059        7.586        8.966        1.397      339.539       12.941      862.809
04/15/2014  01:27:00       -3.341        6.528        5.124        5.026        9.412        8.351       25.257       88.593       69.739        0.013        0.009        7.333        6.728        0.842      339.331       12.590      862.805
04/15/2014  01:28:00        1.892      -15.553        2.263       17.006        9.445        7.629      289.214       89.207       58.202        0.034        0.022       15.667        9.018        0.331      339.895       13.543      862.816
04/15/2014  01:29:00       22.251       -6.746        4.764       27.720       27.206       19.044      768.381      740.145      362.682        0.122        0.094       23.251       12.526        0.290      339.777       13.342      862.818
04/15/2014  01:30:00       18.090       16.850       16.771       15.733       10.971       17.858      247.541      120.357      318.908        0.079        0.034       24.722       10.822        0.192      339.426       12.752      862.825
04/15/2014  01:31:00       45.155       -2.612       10.596       18.515       15.696       12.888      342.796      246.361      166.098        0.146        0.038       45.230       10.361        0.052      339.521       12.911      862.847
04/15/2014  01:32:00       40.406      -18.032       13.238       23.643       15.750       11.946      558.969      248.062      142.695        0.154        0.047       44.247        7.179        0.026      339.744       13.287      862.836
04/15/2014  01:33:00        6.865       -4.134       11.720       12.073       11.187        7.323      145.760      125.157       53.633        0.026        0.016        8.013        2.316        0.084      339.379       12.672      862.820
04/15/2014  01:34:00       25.204      -15.493       10.743       16.068       13.378       12.845      258.167      178.968      165.000        0.080        0.030       29.585        7.624        0.066      339.839       13.448      862.804
04/15/2014  01:35:00       -6.097       -2.270        7.299       18.290       11.638       12.443      334.531      135.451      154.837        0.036        0.031        6.506        9.656        2.203      339.786       13.357      862.781
04/15/2014  01:36:00        0.517      -20.959        5.442       20.286       20.047       12.486      411.525      401.893      155.902        0.072        0.048       20.966       13.755        0.430      339.920       13.585      862.749
04/15/2014  01:37:00       32.368      -19.139       13.204       23.296       21.769       17.167      542.711      473.908      294.721        0.145        0.066       37.603       15.068        0.161      339.622       13.083      862.717
04/15/2014  01:38:00       28.603       -7.520        3.194       29.544       22.231       16.586      872.862      494.212      275.096        0.126        0.082       29.575       18.030        0.372      339.284       12.513      862.682
04/15/2014  01:39:00       30.404      -20.547       -2.551       21.433       15.412       15.552      459.373      237.529      241.875        0.115        0.047       36.696       12.633        0.119      339.251       12.457      862.658
04/15/2014  01:40:00       21.571      -45.866       -0.028       13.996       18.334       10.585      195.875      336.126      112.045        0.161        0.032       50.685        8.441        0.028      339.829       13.430      862.641
04/15/2014  01:41:00        5.535       18.544       29.383       20.126       18.292       14.999      405.057      334.593      224.956        0.110        0.048       19.353       12.891        0.444      339.482       12.846      862.637
04/15/2014  01:42:00       -0.645       11.901       17.186       12.772       10.615       14.521      163.119      112.680      210.847        0.046        0.024       11.918        6.683        0.314      339.395       12.701      862.645
04/15/2014  01:43:00       -3.542        5.388       10.248        7.458        8.355        6.669       55.622       69.803       44.474        0.016        0.008        6.448        4.921        0.583      339.449       12.790      862.661
04/15/2014  01:44:00      -21.902       -8.127       -0.690        9.031        5.765        4.448       81.557       33.232       19.789        0.034        0.007       23.361        4.189        0.032      339.771       13.334      862.669
04/15/2014  01:45:00      -44.273      -25.980       -5.119        7.812        6.942        7.612       61.030       48.196       57.945        0.141        0.008       51.333        4.707        0.008      339.649       13.128      862.665
04/15/2014  01:46:00      -48.690      -12.824       -4.170       11.213       11.036        7.533      125.731      121.784       56.741        0.143        0.015       50.350        4.681        0.009      339.697       13.208      862.646
04/15/2014  01:47:00       -2.942        5.063        2.193       20.946        8.375        5.792      438.756       70.139       33.549        0.029        0.027        5.856        6.111        1.089      339.619       13.076      862.606
04/15/2014  01:48:00       39.290       -8.859        3.420       11.571       11.133       13.768      133.883      123.935      189.546        0.104        0.022       40.276        5.755        0.020      339.609       13.061      862.576
04/15/2014  01:49:00       17.378      -26.307        1.963       17.783       13.012        8.421      316.218      169.320       70.911        0.078        0.028       31.528        8.735        0.077      340.074       13.844      862.566
04/15/2014  01:50:00      -15.500      -22.788       -0.648       21.729       18.056       19.293      472.140      326.001      372.208        0.096        0.059       27.560       10.846        0.155      339.700       13.214      862.571
04/15/2014  01:51:00       -8.056      -18.408        5.341       25.274       17.769       15.766      638.763      315.726      248.567        0.082        0.060       20.093       15.655        0.607      339.518       12.904      862.575
04/15/2014  01:52:00       16.802       -4.847       -0.083       18.028       12.306       13.588      325.006      151.434      184.629        0.048        0.033       17.487        6.016        0.118      339.646       13.123      862.570
04/15/2014  01:53:00       24.675       38.300       29.127       29.329       23.950       27.346      860.200      573.606      747.830        0.255        0.109       45.561       13.666        0.090      339.568       12.991      862.562
04/15/2014  01:54:00        9.828       81.650       88.236       31.616       31.731       23.848      999.572     1006.854      568.704        0.856        0.129       82.240       23.279        0.080      339.442       12.778      862.544
04/15/2014  01:55:00       27.047       34.402       50.359       37.597       26.887       21.563     1413.509      722.899      464.983        0.353        0.130       43.761       18.991        0.188      339.498       12.871      862.536
04/15/2014  01:56:00       25.667       24.255        1.244       35.369       18.697       17.695     1250.952      349.578      313.101        0.158        0.096       35.314       12.342        0.122      339.487       12.854      862.560
04/15/2014  01:57:00      -19.424       30.495       -2.371       20.514       14.619       11.328      420.831      213.708      128.324        0.104        0.038       36.156        5.870        0.026      339.664       13.153      862.578
04/15/2014  01:58:00      -16.618        1.972        4.770       16.988       24.928       18.853      288.598      621.381      355.427        0.078        0.063       16.735        9.799        0.343      339.628       13.092      862.583
04/15/2014  01:59:00      -61.527       -0.204       -1.335       22.850       26.316       14.872      522.125      692.522      221.190        0.261        0.072       61.527       13.463        0.048      339.679       13.178      862.597
04/15/2014  02:00:00      -67.015      -28.514       -7.629       16.179       19.314        9.793      261.749      373.018       95.903        0.305        0.037       72.829        7.498        0.011      339.314       12.564      862.616
04/15/2014  02:01:00     -111.902       -4.515       -9.152       36.318       18.698       13.931     1318.982      349.597      194.059        0.724        0.093      111.993       12.531        0.013      339.147       12.280      862.616
04/15/2014  02:02:00     -138.375       12.403      -11.710       69.833       40.356       31.846     4876.688     1628.576     1014.161        1.348        0.376      138.929       28.111        0.041      339.043       12.106      862.610
04/15/2014  02:03:00     -104.278       73.179      -11.975       57.079       41.974       29.809     3258.026     1761.803      888.562        1.114        0.295      127.393       22.117        0.030      339.200       12.370      862.585
04/15/2014  02:04:00       -8.740       81.150       -4.959       37.415       27.830       16.588     1399.868      774.529      275.146        0.457        0.122       81.619       14.235        0.030      339.605       13.053      862.546
04/15/2014  02:05:00       30.432       47.739       -7.602       19.980       24.724       15.461      399.197      611.259      239.055        0.226        0.062       56.614       13.212        0.054      339.553       12.965      862.504
04/15/2014  02:06:00       36.542       39.902       -8.346       23.793       22.552       14.198      566.130      508.600      201.594        0.214        0.064       54.106       11.876        0.048      339.752       13.301      862.474
04/15/2014  02:07:00      -11.140       15.255       -4.176       18.574       28.761        8.930      344.980      827.174       79.754        0.081        0.063       18.889       10.028        0.282      339.823       13.422      862.467
04/15/2014  02:08:00        5.428      -21.572        3.416       13.248       14.582       11.171      175.506      212.636      124.802        0.051        0.026       22.245        9.915        0.199      339.418       12.739      862.443
04/15/2014  02:09:00       27.956       26.704       24.726       22.923       17.239       19.735      525.482      297.184      389.482        0.166        0.061       38.660       18.652        0.233      339.371       12.658      862.401
04/15/2014  02:10:00      -22.338        6.597       16.047       13.457       14.905       17.365      181.100      222.152      301.544        0.075        0.035       23.291        8.327        0.128      339.262       12.475      862.369
04/15/2014  02:11:00      -83.522       19.638      -12.096       44.098       47.301       19.124     1944.672     2237.424      365.723        0.603        0.227       85.800       21.914        0.065      339.272       12.491      862.363
04/15/2014  02:12:00     -163.907      -87.673       -5.711       29.673       33.968       17.010      880.474     1153.847      289.341        1.845        0.116      185.882       10.987        0.003      339.085       12.177      862.371
04/15/2014  02:13:00        1.767      -12.030        9.062       75.762       53.808       22.440     5739.854     2895.249      503.535        0.468        0.457       12.159       30.541        6.309      339.049       12.117      862.358
04/15/2014  02:14:00      124.550       85.412       34.249       79.356       40.558       49.066     6297.402     1644.951     2407.447        1.716        0.517      151.023       49.552        0.108      339.152       12.288      862.283
04/15/2014  02:15:00       92.673       59.844       39.276       73.558       44.796       32.363     5410.848     2006.677     1047.358        1.109        0.423      110.316       16.327        0.022      339.433       12.762      862.269
04/15/2014  02:16:00      -61.001      -52.666        1.900       55.756       40.009       25.954     3108.682     1600.753      673.631        0.594        0.269       80.590       18.419        0.052      339.360       12.640      862.330
04/15/2014  02:17:00     -146.127      -22.750      -14.703       50.660       38.581       26.856     2566.439     1488.457      721.261        1.343        0.239      147.887       21.818        0.022      339.252       12.458      862.346
04/15/2014  02:18:00     -134.996        6.474      -12.727       42.904       42.370       27.649     1840.720     1795.231      764.473        1.141        0.220      135.151       25.019        0.034      339.260       12.470      862.365
04/15/2014  02:19:00     -105.874       20.531      -11.394       45.107       39.068       24.117     2034.626     1526.279      581.639        0.795        0.207      107.846       23.209        0.046      339.376       12.667      862.363
04/15/2014  02:20:00      -77.245       46.348      -12.604       17.755       23.917       15.628      315.230      572.045      244.243        0.470        0.057       90.083       11.534        0.016      339.536       12.934      862.349
04/15/2014  02:21:00       47.886       55.109       21.389       28.254       20.507       22.498      798.260      420.526      506.147        0.376        0.086       73.007       11.004        0.023      339.526       12.920      862.323
04/15/2014  02:22:00       72.797       43.374       34.722       34.786       20.785       27.410     1210.092      432.022      751.311        0.539        0.120       84.739       19.825        0.055      339.440       12.775      862.303
04/15/2014  02:23:00       16.498       37.174       55.431       30.548       23.597       19.510      933.203      556.818      380.641        0.330        0.094       40.671       17.652        0.188      339.360       12.639      862.292
04/15/2014  02:24:00      -12.081       11.715       30.624       12.215       23.797       21.009      149.198      566.301      441.371        0.119        0.058       16.829       18.994        1.274      339.406       12.717      862.301
04/15/2014  02:25:00      -40.795      -11.457       -2.325       18.384       29.145       13.663      337.955      849.444      186.678        0.159        0.069       42.373        8.945        0.045      339.388       12.686      862.298
04/15/2014  02:26:00      -12.522       24.922      -12.952       32.604       32.078       20.041     1063.007     1028.973      401.634        0.172        0.125       27.891       16.439        0.347      339.313       12.560      862.288
04/15/2014  02:27:00       -9.353        5.121       12.811       14.459       18.513       14.177      209.066      342.736      200.991        0.052        0.038       10.663        9.254        0.753      339.116       12.228      862.276
04/15/2014  02:28:00      -27.232       11.076       -6.517       18.703       21.919       13.326      349.794      480.448      177.588        0.096        0.050       29.399        5.359        0.033      339.083       12.173      862.259
04/15/2014  02:29:00       -0.669       -8.240        4.056       11.979       11.008        8.579      143.494      121.185       73.604        0.021        0.017        8.267        6.847        0.686      339.159       12.302      862.248
04/15/2014  02:30:00       -7.676      -20.978       -0.354       13.579       12.718       10.893      184.387      161.738      118.654        0.048        0.023       22.338        8.294        0.138      339.283       12.511      862.243
04/15/2014  02:31:00      -44.273       -5.723      -11.312       12.251       13.846        6.500      150.096      191.708       42.248        0.125        0.019       44.642        3.116        0.005      339.299       12.537      862.225
04/15/2014  02:32:00      -32.794       -7.356       -3.871       17.105       26.801       10.555      292.590      718.298      111.413        0.113        0.056       33.609        7.087        0.044      339.370       12.657      862.199
04/15/2014  02:33:00      -41.887      -26.395       -6.330       17.047       11.965        7.972      290.592      143.172       63.551        0.149        0.025       49.510        6.723        0.018      339.357       12.633      862.171
04/15/2014  02:34:00      -31.654      -22.157       -4.264       13.223        9.403        4.192      174.848       88.414       17.576        0.090        0.014       38.638        2.937        0.006      339.414       12.733      862.144
04/15/2014  02:35:00      -16.309      -18.006       -1.042       12.794        7.877        6.560      163.687       62.051       43.027        0.043        0.013       24.294        5.263        0.047      339.435       12.764      862.118
04/15/2014  02:36:00      -27.103      -23.905        1.202       16.202        8.020        8.987      262.494       64.324       80.758        0.086        0.020       36.139        9.822        0.074      339.466       12.819      862.113
04/15/2014  02:37:00      -57.062       -5.317       -8.219       22.497       15.921       12.702      506.121      253.491      161.336        0.214        0.046       57.310       13.047        0.052      339.213       12.392      862.101
04/15/2014  02:38:00      -29.862      -11.191        2.396       21.783       19.989       16.046      474.514      399.579      257.480        0.108        0.057       31.891       13.272        0.173      338.970       11.984      862.098
04/15/2014  02:39:00      -62.812      -19.258       -3.086       23.019       27.962       13.916      529.895      781.892      193.647        0.292        0.075       65.698       14.238        0.047      338.932       11.919      862.091
04/15/2014  02:40:00      -82.025       -5.581       -3.078       26.183       17.969       17.372      685.542      322.877      301.792        0.404        0.066       82.215       17.196        0.044      338.848       11.778      862.072
04/15/2014  02:41:00      -42.458       -2.054       -1.977       34.822       17.894       12.036     1212.551      320.204      144.863        0.174        0.084       42.508        9.950        0.055      338.860       11.799      862.060
04/15/2014  02:42:00      -20.081       -1.573       -4.950       34.271       17.300       12.590     1174.533      299.303      158.510        0.103        0.082       20.143       11.633        0.334      339.089       12.184      862.047
04/15/2014  02:43:00      -10.296       -0.800        9.619       24.077       12.942       13.030      579.693      167.499      169.789        0.056        0.046       10.328       14.006        1.839      339.190       12.354      862.040
04/15/2014  02:44:00      -28.597       29.100        1.000       19.322       16.880       16.168      373.342      284.927      261.406        0.129        0.046       40.799       10.770        0.070      339.415       12.732      862.029
04/15/2014  02:45:00      -23.921       24.756       -0.299       18.395       29.919       13.243      338.393      895.139      175.388        0.130        0.070       34.425        9.171        0.071      339.365       12.647      862.016
04/15/2014  02:46:00      -18.271      -29.387        1.232       25.899       26.596       13.662      670.755      707.339      186.661        0.138        0.078       34.604       10.834        0.098      339.082       12.172      862.024
04/15/2014  02:47:00      -66.685      -56.769       -2.401       32.513       17.404       15.199     1057.097      302.882      231.001        0.463        0.080       87.576       17.192        0.039      338.875       11.824      862.037
04/15/2014  02:48:00      -68.421      -33.396      -10.116       19.358       22.296       16.459      374.744      497.096      270.900        0.352        0.057       76.137        9.858        0.017      338.801       11.700      862.035
04/15/2014  02:49:00      -69.741      -27.727       -7.503       17.086       15.296       10.389      291.936      233.962      107.922        0.316        0.032       75.050        5.436        0.005      338.896       11.859      862.017
04/15/2014  02:50:00      -78.546      -23.261      -17.539       14.880       11.362       10.738      221.406      129.104      115.314        0.374        0.023       81.918        7.826        0.009      339.016       12.061      862.005
04/15/2014  02:51:00      -45.838      -41.266        2.496       34.552       17.598       16.292     1193.865      309.692      265.445        0.279        0.088       61.676       20.619        0.112      338.946       11.942      862.007
04/15/2014  02:52:00      -91.227      -46.148       -8.672       17.668       14.858        9.501      312.162      220.770       90.274        0.558        0.031      102.235        4.814        0.002      339.109       12.218      862.004
04/15/2014  02:53:00      -64.175      -31.983       -0.417       26.941       21.764       17.131      725.833      473.685      293.479        0.332        0.075       71.703       12.749        0.032      339.218       12.399      861.990
04/15/2014  02:54:00      -71.638      -41.736        6.226       27.634       18.174       17.681      763.637      330.306      312.620        0.416        0.070       82.909       17.634        0.045      339.111       12.220      861.977
04/15/2014  02:55:00      -38.657      -35.949        7.182       31.238       13.586       14.245      975.828      184.583      202.934        0.210        0.068       52.789       14.605        0.077      339.024       12.073      861.955
04/15/2014  02:56:00      -78.465      -27.745       -2.192       33.220       16.275       11.807     1103.583      264.885      139.404        0.422        0.075       83.226       12.297        0.022      339.055       12.127      861.941
04/15/2014  02:57:00     -145.471      -54.464       -3.076       35.992       41.475       18.909     1295.459     1720.144      357.551        1.375        0.169      155.332       11.804        0.006      339.057       12.129      861.931
04/15/2014  02:58:00     -109.327      -70.661       -3.032       49.938       35.097       18.831     2493.801     1231.820      354.598        1.052        0.204      130.174       17.400        0.018      339.266       12.481      861.914
04/15/2014  02:59:00      -32.525      -59.578       -4.291       38.164       32.421       16.196     1456.504     1051.153      262.325        0.370        0.138       67.878        7.877        0.013      339.340       12.607      861.883
04/15/2014  03:00:00      -74.830      -65.680       -5.319       36.943       22.406       14.944     1364.815      502.006      223.315        0.602        0.105       99.566       12.202        0.015      339.337       12.601      861.867
04/15/2014  03:01:00      -56.247      -38.507       10.654       48.197       25.682       20.853     2322.959      659.547      434.835        0.409        0.171       68.165       22.317        0.107      339.281       12.507      861.867
04/15/2014  03:02:00      -61.508      -21.080        7.884       35.515       21.100       12.975     1261.335      445.201      168.359        0.308        0.094       65.020       11.237        0.030      339.198       12.369      861.861
04/15/2014  03:03:00      -59.347      -24.432        2.892       35.651       14.663       15.552     1270.982      215.008      241.859        0.293        0.086       64.179       17.267        0.072      339.123       12.241      861.857
04/15/2014  03:04:00      -88.334      -25.098       -3.740       25.624       24.563       17.323      656.589      603.352      300.101        0.500        0.078       91.830       16.684        0.033      339.119       12.233      861.860
04/15/2014  03:05:00      -34.072      -37.168        6.957       28.876       25.835       18.160      833.829      667.422      329.791        0.221        0.092       50.422       18.263        0.131      339.051       12.120      861.864
04/15/2014  03:06:00      -33.358      -22.453       -1.340       29.403       22.119       14.419      864.524      489.263      207.911        0.159        0.078       40.211       11.055        0.076      338.936       11.927      861.859
04/15/2014  03:07:00      -39.856      -52.719       -1.361       29.664       38.067       12.185      879.934     1449.120      148.470        0.342        0.124       66.089       12.224        0.034      339.149       12.283      861.847
04/15/2014  03:08:00       -5.197     -110.276        5.339       30.078       31.277       28.984      904.714      978.268      840.098        0.747        0.136      110.398       19.185        0.030      339.626       13.088      861.829
04/15/2014  03:09:00      -16.038      -55.872        1.456       31.489       35.702       16.489      991.582     1274.600      271.876        0.296        0.127       58.129        8.622        0.022      339.436       12.769      861.825
04/15/2014  03:10:00      -73.759       -9.492       -4.696       28.188       27.660       12.779      794.576      765.055      163.294        0.364        0.086       74.367        7.903        0.011      339.374       12.663      861.824
04/15/2014  03:11:00      -11.269        7.187        7.973       30.685       20.338       14.485      941.597      413.638      209.824        0.090        0.078       13.366       17.930        1.800      339.163       12.309      861.844
04/15/2014  03:12:00      -24.977       21.081        2.350       22.272       21.126       10.333      496.028      446.295      106.772        0.106        0.052       32.684        4.373        0.018      338.985       12.008      861.847
04/15/2014  03:13:00      -13.310      -19.709        6.651       18.143       25.649       13.518      329.174      657.871      182.735        0.089        0.058       23.782       10.752        0.204      339.007       12.046      861.845
04/15/2014  03:14:00      -35.776     -117.648       -6.116       34.905       26.062       21.299     1218.380      679.230      453.627        0.875        0.118      122.968       15.071        0.015      339.417       12.736      861.835
04/15/2014  03:15:00        0.127      -18.396       11.508       27.542       39.458       19.167      758.556     1556.901      367.364        0.158        0.134       18.397       19.748        1.152      339.124       12.243      861.831
04/15/2014  03:16:00       29.218       16.516       24.890       16.499       12.552       16.170      272.205      157.554      261.483        0.122        0.035       33.563       10.824        0.104      338.946       11.943      861.842
04/15/2014  03:17:00       30.650       13.220        8.264       19.140       22.015       13.936      366.330      484.666      194.202        0.111        0.052       33.379        8.308        0.062      338.808       11.710      861.858
04/15/2014  03:18:00       25.120       25.259       -5.715       11.438       10.450       11.119      130.839      109.213      123.630        0.083        0.018       35.623       10.000        0.079      338.820       11.730      861.872
04/15/2014  03:19:00       30.382       29.826        1.816       14.983       10.908        7.446      224.487      118.980       55.441        0.111        0.020       42.575        3.997        0.009      338.650       11.445      861.887
04/15/2014  03:20:00       23.835       32.073       -1.021       20.405       17.355       16.502      416.349      301.209      272.318        0.129        0.049       39.960       11.787        0.087      338.510       11.211      861.890
04/15/2014  03:21:00       12.475       71.171      -16.736       10.595       11.461        5.967      112.256      131.344       35.601        0.289        0.014       72.256        4.619        0.004      338.542       11.265      861.897
04/15/2014  03:22:00       11.787       76.831      -16.082       22.018       25.357       11.502      484.781      643.003      132.307        0.378        0.063       77.730        9.787        0.016      338.652       11.449      861.892
04/15/2014  03:23:00        6.228      115.674      -20.979       16.452       15.704        7.250      270.668      246.603       52.564        0.721        0.028      115.841        7.416        0.004      338.904       11.873      861.899
04/15/2014  03:24:00       13.222      101.046      -17.205       12.827       21.138       10.930      164.521      446.815      119.475        0.571        0.037      101.908       12.493        0.015      338.931       11.919      861.902
04/15/2014  03:25:00       36.654       30.594       -7.574       21.436       25.027       17.199      459.508      626.370      295.822        0.186        0.069       47.744       10.442        0.048      338.939       11.931      861.898
04/15/2014  03:26:00       60.067       33.182       13.122       41.687       38.336       21.069     1737.803     1469.663      443.911        0.427        0.183       68.623       13.205        0.037      339.057       12.130      861.881
04/15/2014  03:27:00        6.923       17.436       -7.389       12.023       24.784        9.963      144.551      614.233       99.260        0.063        0.043       18.760       14.194        0.572      338.978       11.996      861.886
04/15/2014  03:28:00       -5.909       12.267       -1.514        9.187        9.621        6.395       84.394       92.560       40.897        0.020        0.011       13.616        7.104        0.272      339.046       12.113      861.878
04/15/2014  03:29:00      -25.529        3.035        2.626       14.643        6.629        9.455      214.432       43.944       89.391        0.051        0.017       25.709        6.901        0.072      338.863       11.804      861.852
04/15/2014  03:30:00      -84.969      -12.594      -14.435       16.916       11.790        6.264      286.140      139.009       39.240        0.403        0.023       85.897        4.592        0.003      338.686       11.507      861.844
04/15/2014  03:31:00      -56.143      -20.300       -9.415       13.348        7.724        5.682      178.174       59.666       32.282        0.196        0.014       59.701        2.382        0.002      338.701       11.530      861.824
04/15/2014  03:32:00      -32.173      -28.400       -8.197       10.942        6.182        4.693      119.735       38.218       22.021        0.104        0.009       42.915        3.880        0.008      338.870       11.815      861.807
04/15/2014  03:33:00      -76.171       -6.601      -11.755       21.428       15.104        8.656      459.147      228.133       74.919        0.337        0.038       76.456        6.457        0.007      338.636       11.422      861.787
04/15/2014  03:34:00      -39.990      -36.093       -5.274       20.605       15.984       10.179      424.570      255.478      103.615        0.186        0.039       53.869        8.689        0.026      338.667       11.474      861.783
04/15/2014  03:35:00      -45.742      -50.758        0.265       27.893       27.547       15.149      777.996      758.840      229.504        0.322        0.088       68.328       14.378        0.044      339.001       12.037      861.783
04/15/2014  03:36:00      -28.802      -54.173       11.482       35.449       28.733       20.546     1256.659      825.568      422.120        0.320        0.125       61.353       20.198        0.108      338.811       11.716      861.788
04/15/2014  03:37:00      -55.916      -61.849        3.340       42.403       37.568       24.600     1797.987     1411.339      605.141        0.539        0.191       83.378       27.030        0.105      339.163       12.308      861.797
04/15/2014  03:38:00      -56.640      -69.122        5.219       39.303       28.342       18.021     1544.741      803.259      324.741        0.534        0.134       89.364       13.805        0.024      339.176       12.330      861.800
04/15/2014  03:39:00      -35.226      -55.256        4.774       37.842       38.356       21.927     1432.037     1471.204      480.798        0.385        0.169       65.529       22.454        0.117      339.213       12.392      861.800
04/15/2014  03:40:00      -44.148      -33.901       13.506       35.813       18.158       15.117     1282.592      329.711      228.538        0.256        0.092       55.662        3.453        0.004      338.998       12.031      861.800
04/15/2014  03:41:00      -40.321      -49.433        9.165       39.181       44.563       18.310     1535.120     1985.873      335.246        0.400        0.193       63.792       18.551        0.085      339.023       12.074      861.798
04/15/2014  03:42:00      -87.314      -81.967       -8.225       29.273       37.722       21.924      856.915     1422.958      480.681        0.858        0.138      119.759       14.244        0.014      339.044       12.109      861.810
04/15/2014  03:43:00      -55.325      -67.232        5.077       55.769       25.780       24.494     3110.140      664.589      599.958        0.599        0.219       87.069       29.660        0.116      339.028       12.081      861.809
04/15/2014  03:44:00      -62.664      -65.954       -5.501       40.630       30.083       14.909     1650.825      905.009      222.292        0.554        0.139       90.977       11.453        0.016      339.101       12.202      861.812
04/15/2014  03:45:00      -40.643      -44.978        6.115       29.811       21.135       17.553      888.720      446.709      308.125        0.268        0.082       60.621       11.946        0.039      339.143       12.273      861.808
04/15/2014  03:46:00      -46.710      -50.190        4.985       30.896       30.612       20.636      954.532      937.104      425.836        0.352        0.116       68.563       19.009        0.077      339.325       12.581      861.807
04/15/2014  03:47:00       -8.911      -27.704        8.451       15.466       24.037       13.445      239.200      577.791      180.781        0.096        0.050       29.102        7.894        0.074      339.229       12.419      861.820
04/15/2014  03:48:00       16.725       17.154       26.272       34.296       25.804       15.960     1176.223      665.850      254.734        0.168        0.105       23.958       20.065        0.701      339.013       12.056      861.828
04/15/2014  03:49:00       82.379       54.224        0.653       29.356       24.943       20.320      861.770      622.164      412.894        0.581        0.095       98.623       15.331        0.024      338.434       11.084      861.838
04/15/2014  03:50:00       73.426       63.787        0.508       36.795       31.963       23.449     1353.835     1021.656      549.835        0.619        0.146       97.263       20.229        0.043      338.040       10.422      861.837
04/15/2014  03:51:00       37.576       57.593        0.284       37.018       33.680       25.004     1370.359     1134.325      625.178        0.393        0.156       68.767       18.632        0.073      338.067       10.467      861.858
04/15/2014  03:52:00       79.635       46.131        8.828       29.939       31.090       30.633      896.346      966.596      938.364        0.567        0.140       92.031       21.738        0.056      338.215       10.717      861.861
04/15/2014  03:53:00       81.418       37.533       15.337       32.903       24.260       16.490     1082.636      588.548      271.905        0.511        0.097       89.652        3.407        0.001      338.283       10.828      861.872
04/15/2014  03:54:00       59.635       14.040        6.443       21.000       15.501       13.890      441.009      240.276      192.919        0.233        0.044       61.265       12.267        0.040      338.342       10.929      861.876
04/15/2014  03:55:00       47.774       12.544       22.344       32.307       30.179       26.125     1043.762      910.790      682.541        0.279        0.132       49.394       21.476        0.189      338.373       10.979      861.874
04/15/2014  03:56:00       51.492       12.623       23.334       25.234       22.019       19.324      636.753      484.820      373.430        0.242        0.075       53.017       13.665        0.066      338.539       11.259      861.861
04/15/2014  03:57:00      126.713       63.494       21.595       42.334       20.555       19.209     1792.181      422.502      368.996        1.157        0.129      141.731       11.071        0.006      338.774       11.654      861.842
04/15/2014  03:58:00      108.388       47.854       30.988       61.160       35.434       25.994     3740.489     1255.537      675.687        1.033        0.284      118.482       31.511        0.071      338.888       11.845      861.814
04/15/2014  03:59:00       36.504       41.573       47.140       24.056       19.919       13.825      578.679      396.748      191.132        0.322        0.058       55.325        9.764        0.031      338.765       11.639      861.817
04/15/2014  04:00:00       30.242       39.138       43.645       37.925       25.821       13.275     1438.277      666.736      176.223        0.332        0.114       49.461       11.801        0.057      338.911       11.885      861.815
04/15/2014  04:01:00        2.392       56.227        2.517       18.129       36.784       23.797      328.649     1353.048      566.285        0.271        0.112       56.278       26.782        0.226      338.685       11.505      861.830
04/15/2014  04:02:00       71.217      102.620      -11.226       53.667       28.365       22.730     2880.185      804.596      516.675        0.996        0.210      124.910       29.792        0.057      338.665       11.473      861.855
04/15/2014  04:03:00      220.140      109.474       41.461       47.545       29.483       36.884     2260.571      869.240     1360.420        3.333        0.225      245.858       30.671        0.016      338.851       11.779      861.792
04/15/2014  04:04:00      132.630       37.532       15.654       77.849       51.625       46.416     6060.438     2665.192     2154.447        1.506        0.544      137.838       37.493        0.074      338.760       11.628      861.793
04/15/2014  04:05:00       13.850      -34.257       -8.839       32.374       38.650       25.159     1048.106     1493.786      632.954        0.231        0.159       36.950       22.860        0.383      338.876       11.824      861.829
04/15/2014  04:06:00       -7.289      -12.021        4.652       29.001       20.965       17.492      841.054      439.552      305.963        0.090        0.079       14.058       18.431        1.719      338.853       11.786      861.808
04/15/2014  04:07:00       -5.675      -39.920        3.015       28.571       34.823       20.284      816.328     1212.651      411.459        0.204        0.122       40.321        9.914        0.060      338.963       11.970      861.807
04/15/2014  04:08:00       45.233      -23.949       12.116       39.758       33.681       35.916     1580.694     1134.416     1289.994        0.338        0.200       51.182       26.712        0.272      338.905       11.874      861.789
04/15/2014  04:09:00       29.513      -21.774       41.871       45.385       67.944       50.193     2059.807     4616.408     2519.360        0.615        0.460       36.676       45.572        1.544      338.877       11.827      861.729
04/15/2014  04:10:00       23.072      -72.229       -9.709       46.631       55.800       29.161     2174.405     3113.653      850.368        0.599        0.307       75.825       30.513        0.162      339.043       12.107      861.719
04/15/2014  04:11:00      -12.987      -16.961        6.950       33.830       31.092       21.663     1144.489      966.695      469.273        0.154        0.129       21.362       15.094        0.499      338.968       11.979      861.708
04/15/2014  04:12:00      -11.447        6.319       22.231       16.985       19.380       13.745      288.488      375.571      188.933        0.076        0.043       13.075        6.925        0.280      338.945       11.940      861.681
04/15/2014  04:13:00       11.294      -35.201       13.671       32.943       41.576       30.448     1085.212     1728.546      927.101        0.265        0.187       36.968       17.550        0.225      338.887       11.844      861.674
04/15/2014  04:14:00       11.538        5.438       60.918       28.118       40.649       23.988      790.611     1652.360      575.423        0.345        0.151       12.755       18.306        2.060      338.694       11.520      861.630
04/15/2014  04:15:00       10.265      -19.882       47.127       29.602       60.915       27.317      876.252     3710.698      746.214        0.403        0.267       22.375       22.709        1.030      338.730       11.581      861.628
04/15/2014  04:16:00       10.864       24.481       64.912       37.517       58.439       39.106     1407.519     3415.068     1529.245        0.564        0.318       26.784       30.659        1.310      338.662       11.465      861.617
04/15/2014  04:17:00       44.586       51.739       49.331       32.555       27.699       28.580     1059.820      767.250      816.810        0.487        0.132       68.300       22.343        0.107      338.576       11.319      861.600
04/15/2014  04:18:00       42.340       15.250       15.673       26.650       27.442       27.539      710.223      753.049      758.400        0.225        0.111       45.003       15.874        0.124      338.538       11.257      861.593
04/15/2014  04:19:00       40.583       41.750       56.838       32.330       38.560       29.566     1045.199     1486.868      874.133        0.501        0.170       58.224       28.697        0.243      338.519       11.226      861.598
04/15/2014  04:20:00       58.120       23.543       50.079       36.422       31.259       27.277     1326.530      977.103      744.060        0.474        0.152       62.707       23.175        0.137      338.544       11.268      861.587
04/15/2014  04:21:00       53.638       66.800       65.554       37.645       33.739       22.787     1417.169     1138.353      519.269        0.736        0.154       85.670       20.706        0.058      338.540       11.261      861.563
04/15/2014  04:22:00        4.441       53.062       70.560       21.117       29.461       24.031      445.942      867.951      577.504        0.485        0.095       53.248       20.663        0.151      338.581       11.329      861.557
04/15/2014  04:23:00       50.809       15.264       41.674       43.502       26.345       19.756     1892.466      694.047      390.288        0.376        0.149       53.052       14.210        0.072      338.551       11.280      861.569
04/15/2014  04:24:00       90.554       65.710       69.638       72.012       59.979       62.607     5185.745     3597.489     3919.668        1.503        0.635      111.884       63.478        0.322      338.531       11.247      861.539
04/15/2014  04:25:00       23.221       25.809       83.388       45.960       79.191       50.250     2112.354     6271.253     2525.065        0.953        0.545       34.718       57.903        2.782      338.520       11.227      861.541
04/15/2014  04:26:00      -44.435      -17.177       10.280       87.166       54.582       23.996     7597.919     2979.230      575.788        0.676        0.558       47.640       29.654        0.387      338.520       11.227      861.620
04/15/2014  04:27:00       66.339       79.808       34.578       97.827       33.123       39.132     9570.043     1097.149     1531.324        1.208        0.610      103.779       54.865        0.279      338.457       11.120      861.630
04/15/2014  04:28:00      178.025      119.323       66.258       73.171       55.219       64.498     5354.036     3049.141     4159.954        3.144        0.628      214.315       53.088        0.061      338.410       11.038      861.546
04/15/2014  04:29:00       23.901       -5.070       36.039       46.899       50.610       32.274     2199.523     2561.359     1041.629        0.385        0.290       24.433       29.169        1.425      338.421       11.060      861.556
04/15/2014  04:30:00       15.097       12.017       28.107       27.452       25.007       18.477      753.632      625.366      341.400        0.144        0.086       19.296        9.519        0.243      338.296       10.851      861.569
04/15/2014  04:31:00       12.989       37.889       35.062       18.750       15.850       17.462      351.574      251.212      304.907        0.187        0.045       40.054       13.711        0.117      338.241       10.760      861.541
04/15/2014  04:32:00       35.885        4.351       27.746       26.843       41.647       16.251      720.557     1734.458      264.091        0.240        0.136       36.148        9.904        0.075      338.307       10.869      861.545
04/15/2014  04:33:00       67.657       37.821       68.951       44.988       53.138       35.718     2023.931     2823.630     1275.752        0.844        0.306       77.510       28.404        0.134      338.439       11.093      861.550
04/15/2014  04:34:00       88.824       83.055       97.235       67.360       47.471       44.175     4537.303     2253.462     1951.398        1.649        0.437      121.605       38.382        0.100      338.404       11.032      861.506
04/15/2014  04:35:00       11.410       14.312       62.794       34.391       73.336       34.690     1182.740     5378.128     1203.365        0.602        0.388       18.304       40.120        4.805      338.408       11.039      861.537
04/15/2014  04:36:00       24.693        9.195       30.867       37.840       25.124       21.519     1431.876      631.229      463.078        0.209        0.126       26.349       16.434        0.389      338.338       10.921      861.557
04/15/2014  04:37:00       50.935      101.314       -9.826       42.573       45.697       31.126     1812.501     2088.185      968.841        0.891        0.243      113.397       33.682        0.088      338.153       10.611      861.577
04/15/2014  04:38:00       25.425       87.617      -17.366       38.055       51.887       26.210     1448.166     2692.307      686.942        0.673        0.241       91.232       26.840        0.087      338.103       10.528      861.595
04/15/2014  04:39:00       11.386       67.619      -15.570       17.727       30.668       15.061      314.242      940.500      226.837        0.321        0.074       68.571       17.739        0.067      338.280       10.826      861.647
04/15/2014  04:40:00      102.011       77.582        7.952       55.256       25.889       25.178     3053.279      670.218      633.926        1.042        0.218      128.161       24.605        0.037      338.382       10.996      861.670
04/15/2014  04:41:00       54.502       73.673       50.159       55.048       47.128       28.897     3030.285     2221.089      835.022        0.850        0.304       91.642       17.548        0.037      338.291       10.842      861.632
04/15/2014  04:42:00       27.088       15.669        3.564       36.893       26.261       17.516     1361.092      689.661      306.804        0.167        0.118       31.294       13.656        0.190      338.267       10.803      861.685
04/15/2014  04:43:00       32.911       28.661        4.943       34.922       26.399       10.762     1219.519      696.930      115.811        0.198        0.102       43.642       10.944        0.063      338.440       11.095      861.670
04/15/2014  04:44:00       27.084        7.483       25.614       26.188       49.332       42.291      685.802     2433.665     1788.536        0.318        0.245       28.099       42.618        2.300      338.384       10.999      861.656
04/15/2014  04:45:00       -1.551       54.918       77.036       18.222       50.282       25.606      332.051     2528.234      655.680        0.623        0.176       54.940       31.229        0.323      338.243       10.762      861.636
04/15/2014  04:46:00       32.623       30.358       41.620       32.376       33.097       12.501     1048.199     1095.401      156.281        0.301        0.115       44.563        7.172        0.026      338.177       10.651      861.650
04/15/2014  04:47:00       22.566       24.160       72.145       36.327       42.489       27.118     1319.660     1805.348      735.401        0.508        0.193       33.059       27.870        0.711      338.331       10.909      861.611
04/15/2014  04:48:00      101.854       78.106       59.700       64.431       46.376       44.149     4151.395     2150.701     1949.111        1.414        0.413      128.354       41.641        0.105      338.446       11.104      861.582
04/15/2014  04:49:00       64.193       32.595       47.081       50.552       36.277       36.544     2555.481     1316.009     1335.500        0.630        0.260       71.994       29.653        0.170      338.313       10.879      861.576
04/15/2014  04:50:00       79.659       32.933       54.810       49.750       51.379       35.158     2475.043     2639.793     1236.120        0.839        0.318       86.198       34.435        0.160      338.259       10.789      861.584
04/15/2014  04:51:00      103.749       50.796       50.950       57.669       36.133       42.052     3325.682     1305.598     1768.408        1.117        0.320      115.517       29.175        0.064      338.297       10.851      861.563
04/15/2014  04:52:00       44.142       16.795       46.818       58.394       42.099       32.847     3409.912     1772.306     1078.908        0.534        0.313       47.229       29.079        0.379      338.283       10.829      861.588
04/15/2014  04:53:00       15.758       20.129       33.240       29.343       22.253       19.979      861.031      495.216      399.150        0.176        0.088       25.564       19.479        0.581      338.197       10.684      861.637
04/15/2014  04:54:00       65.796      -11.096       11.172       28.128       41.854       19.600      791.187     1751.732      384.160        0.375        0.146       66.725       14.822        0.049      338.213       10.712      861.664
04/15/2014  04:55:00       12.306      -28.041       -5.600       20.638       22.204       17.147      425.933      493.024      294.031        0.109        0.061       30.622       13.271        0.188      338.211       10.707      861.709
04/15/2014  04:56:00        5.290       12.574       28.815       19.064       18.966       11.126      363.437      359.701      123.794        0.093        0.042       13.642        5.304        0.151      338.128       10.570      861.738
04/15/2014  04:57:00       36.137      -78.839      -13.145       32.492       46.554       19.579     1055.712     2167.310      383.343        0.565        0.180       86.726       26.928        0.096      338.154       10.614      861.743
04/15/2014  04:58:00       12.763      -70.142      -10.125       28.652       26.047       21.099      820.936      678.446      445.161        0.356        0.097       71.294       17.184        0.058      338.303       10.862      861.751
04/15/2014  04:59:00       -3.423       22.447       38.284       14.372       21.423       20.742      206.562      458.963      430.212        0.154        0.055       22.707        8.773        0.149      338.024       10.396      861.754
04/15/2014  05:00:00       27.352       11.907       44.897       33.189       35.562       22.588     1101.513     1264.691      510.196        0.289        0.144       29.831       25.284        0.718      337.902       10.189      861.740
04/15/2014  05:01:00       40.075       50.324       56.147       32.458       54.626       41.919     1053.502     2983.989     1757.191        0.654        0.290       64.331       40.851        0.403      337.976       10.315      861.716
04/15/2014  05:02:00       68.079      109.316       89.317       34.431       39.455       28.258     1185.469     1556.678      798.518        1.405        0.177      128.782       15.547        0.015      337.923       10.224      861.681
04/15/2014  05:03:00       89.095      102.275       82.563       71.152       44.900       46.675     5062.672     2016.006     2178.533        1.723        0.463      135.640       45.978        0.115      338.104       10.528      861.650
04/15/2014  05:04:00       15.601       73.838       84.793       31.676       32.920       18.528     1003.386     1083.705      343.298        0.766        0.122       75.469       14.380        0.036      338.012       10.374      861.653
04/15/2014  05:05:00       24.800       14.724       19.788       36.982       35.734       27.350     1367.655     1276.940      748.049        0.231        0.170       28.842       19.086        0.438      337.933       10.242      861.663
04/15/2014  05:06:00      -50.645       24.944      -13.801       31.683       15.267       12.412     1003.811      233.078      154.047        0.238        0.070       56.455        6.456        0.013      337.830       10.070      861.678
04/15/2014  05:07:00      -69.913      -17.587      -13.601       13.019       27.726        9.602      169.490      768.725       92.201        0.321        0.052       72.091        9.793        0.018      337.850       10.103      861.682
04/15/2014  05:08:00      -88.757      -22.675      -14.473       23.197       17.473       12.590      538.110      305.297      158.519        0.480        0.050       91.607       11.561        0.016      337.939       10.251      861.699
04/15/2014  05:09:00     -108.793      -39.450       -5.695       21.081       22.850       12.679      444.411      522.119      160.766        0.728        0.056      115.725       10.627        0.008      338.101       10.523      861.694
04/15/2014  05:10:00      -39.522      -36.151        3.713       46.632       20.521       15.272     2174.532      421.115      233.245        0.286        0.141       53.562       20.801        0.151      338.229       10.738      861.686
04/15/2014  05:11:00        9.682      -18.341       11.139       26.706       21.402       24.353      713.231      458.025      593.049        0.116        0.088       20.740        4.653        0.050      338.288       10.838      861.667
04/15/2014  05:12:00       37.819       10.687       34.012       33.585       31.115       30.481     1127.966      968.164      929.085        0.286        0.151       39.300       21.848        0.309      338.028       10.402      861.621
04/15/2014  05:13:00       64.505       62.772       45.384       55.445       46.057       38.443     3074.153     2121.262     1477.832        0.842        0.334       90.007       23.400        0.068      338.296       10.850      861.562
04/15/2014  05:14:00      113.964       59.684       35.013       51.626       40.774       30.455     2665.242     1662.559      927.506        1.151        0.263      128.647       21.432        0.028      338.351       10.944      861.524
04/15/2014  05:15:00       95.060       47.748        5.227       40.961       27.893       24.840     1677.841      777.997      617.044        0.721        0.154      106.378       19.988        0.035      338.153       10.610      861.544
04/15/2014  05:16:00       25.324       15.064       13.058       55.140       32.681       29.596     3040.405     1068.025      875.951        0.301        0.249       29.466       24.645        0.700      338.286       10.835      861.549
04/15/2014  05:17:00      -32.962       80.213       -7.017       40.815       39.050       23.487     1665.903     1524.869      551.646        0.566        0.187       86.721       24.172        0.078      338.545       11.270      861.564
04/15/2014  05:18:00     -170.917        1.737       -6.834       72.883       57.799       33.968     5311.956     3340.713     1153.818        1.953        0.490      170.926       30.850        0.033      338.509       11.209      861.623
04/15/2014  05:19:00     -237.723      -59.190      -24.034       81.902       73.080       30.314     6708.011     5340.711      918.937        3.678        0.648      244.981       25.216        0.011      338.860       11.795      861.647
04/15/2014  05:20:00     -153.029       64.173      -18.729       38.651       51.482       23.277     1493.871     2650.441      541.813        1.629        0.234      165.940       22.954        0.019      338.929       11.913      861.653
04/15/2014  05:21:00      -98.277      131.074      -23.564       55.824       46.132       31.456     3116.303     2128.177      989.486        1.681        0.312      163.826       34.821        0.045      338.900       11.864      861.651
04/15/2014  05:22:00       54.651       63.033        7.669       50.969       58.736       35.791     2597.856     3449.963     1280.975        0.717        0.366       83.426       25.408        0.093      338.870       11.816      861.617
04/15/2014  05:23:00       14.243      -11.585      -14.955       36.920       60.194       20.710     1363.076     3623.277      428.921        0.299        0.271       18.360       19.266        1.101      338.904       11.874      861.630
04/15/2014  05:24:00      -82.005      -53.563       -4.963       51.484       34.209       23.405     2650.637     1170.289      547.781        0.699        0.218       97.948       24.087        0.060      338.890       11.849      861.663
04/15/2014  05:25:00     -129.491      -47.191      -11.665       39.629       37.887       25.737     1570.480     1435.393      662.374        1.140        0.183      137.822       14.188        0.011      338.830       11.749      861.651
04/15/2014  05:26:00      -28.250      -10.317       17.287       48.366       59.846       22.509     2339.246     3581.567      506.659        0.381        0.321       30.075       25.156        0.700      338.775       11.656      861.616
04/15/2014  05:27:00      -28.273       65.752       -4.687       28.181       51.369       21.399      794.175     2638.779      457.908        0.452        0.195       71.573       26.452        0.137      338.881       11.833      861.587
04/15/2014  05:28:00       17.398       63.964       -5.057       35.900       56.651       21.598     1288.837     3209.337      466.474        0.469        0.248       66.288       24.849        0.141      338.728       11.575      861.557
04/15/2014  05:29:00       18.610      -50.230       -9.103       22.301       16.548       16.475      497.353      273.821      271.417        0.200        0.052       53.567       12.425        0.054      338.707       11.542      861.541
04/15/2014  05:30:00       64.369     -113.510       -4.355       73.237       82.008       56.469     5363.662     6725.271     3188.725        1.616        0.764      130.491       56.545        0.188      338.766       11.639      861.521
04/15/2014  05:31:00       11.034       -7.665        9.971       93.486      113.731       51.633     8739.595    12934.675     2665.932        1.231        1.217       13.435       31.266        5.416      338.586       11.338      861.520
04/15/2014  05:32:00        9.058      105.590        3.724       64.580       49.721       35.987     4170.561     2472.129     1295.086        0.959        0.397      105.978       42.110        0.158      338.725       11.572      861.571
04/15/2014  05:33:00       17.156        0.042       18.962       34.904       33.781       20.536     1218.277     1141.145      421.745        0.172        0.139       17.156       21.719        1.603      338.477       11.154      861.544
04/15/2014  05:34:00      -32.150      -50.901        9.372       68.414       37.884       29.109     4680.414     1435.215      847.350        0.534        0.348       60.204       10.413        0.030      338.665       11.469      861.586
04/15/2014  05:35:00     -149.468     -104.936        0.079       77.199       56.032       46.841     5959.750     3139.576     2194.070        2.232        0.565      182.626       41.130        0.051      338.561       11.293      861.623
04/15/2014  05:36:00     -150.718     -134.154       -3.628       46.652       58.107       37.279     2176.382     3376.390     1389.758        2.383        0.347      201.775       26.120        0.017      338.556       11.286      861.619
04/15/2014  05:37:00      -36.757      -71.128       -3.132       81.837       42.611       31.159     6697.232     1815.665      970.896        0.795        0.474       80.064       20.240        0.064      338.710       11.547      861.581
04/15/2014  05:38:00       36.168        1.394       32.755       32.483       52.569       33.302     1055.137     2763.515     1109.011        0.365        0.246       36.195       34.058        0.885      338.580       11.327      861.537
04/15/2014  05:39:00        2.588       10.577       51.324       22.107       55.671       44.841      488.741     3099.313     2010.709        0.417        0.280       10.889       45.052       17.117      338.758       11.627      861.536
04/15/2014  05:40:00        4.439      -29.573      -10.210       42.145       56.156       33.511     1776.219     3153.537     1122.982        0.352        0.303       29.904       38.235        1.635      338.565       11.301      861.552
04/15/2014  05:41:00      -21.321       26.008       40.617       23.247       30.375       31.216      540.432      922.652      974.425        0.261        0.122       33.630       20.593        0.375      338.267       10.802      861.575
04/15/2014  05:42:00       47.980      -38.867        8.857       38.974       47.933       40.671     1519.006     2297.588     1654.131        0.468        0.274       61.747       25.332        0.168      338.284       10.831      861.603
04/15/2014  05:43:00       -0.292       66.762       97.523       40.521       75.587       67.173     1641.947     5713.323     4512.178        1.292        0.593       66.763       68.084        1.040      338.158       10.618      861.581
04/15/2014  05:44:00       41.395      133.239      127.720       53.316       55.452       38.029     2842.582     3074.885     1446.213        2.157        0.368      139.521       34.710        0.062      338.235       10.747      861.529
04/15/2014  05:45:00       -1.445       32.806       57.961       56.615       69.690       41.262     3205.213     4856.701     1702.593        0.710        0.488       32.838       50.088        2.327      338.246       10.767      861.562
04/15/2014  05:46:00     -117.587      -58.925        0.077       64.132       51.043       30.064     4112.864     2605.400      903.871        1.246        0.381      131.525       14.615        0.012      338.294       10.846      861.624
04/15/2014  05:47:00     -153.707      -92.998        2.481       87.680       51.601       33.964     7687.820     2662.663     1153.548        2.189        0.575      179.651       33.183        0.034      338.219       10.719      861.659
04/15/2014  05:48:00     -133.544       15.029       -7.308       40.433       66.264       22.133     1634.845     4390.935      489.892        1.231        0.326      134.387       16.176        0.014      338.225       10.732      861.666
04/15/2014  05:49:00      -31.661       24.941        0.665       27.091       20.633       17.795      733.941      425.729      316.651        0.155        0.074       40.305       17.692        0.193      338.020       10.388      861.664
04/15/2014  05:50:00      -42.896        3.670       -2.480       40.253       24.974       15.142     1620.327      623.713      229.279        0.217        0.124       43.053       19.609        0.207      338.130       10.572      861.676
04/15/2014  05:51:00      -80.484      -28.640       -7.536       22.368       17.896       13.955      500.319      320.282      194.736        0.418        0.051       85.428        3.541        0.002      338.193       10.678      861.699
04/15/2014  05:52:00      -94.450      -39.469       -3.963       16.529       18.727       13.154      273.205      350.701      173.039        0.565        0.040      102.366        4.899        0.002      338.135       10.580      861.709
04/15/2014  05:53:00      -64.593      -15.679       -5.860       27.927       15.154       11.064      779.902      229.657      122.404        0.279        0.057       66.469        5.060        0.006      338.171       10.642      861.725
04/15/2014  05:54:00       -3.669      -12.285       -1.567       11.248       13.051        9.464      126.510      170.342       89.569        0.028        0.019       12.821        7.658        0.357      338.163       10.628      861.729
04/15/2014  05:55:00      -16.616      -11.609       -2.324        7.562        5.947        8.241       57.182       35.372       67.915        0.029        0.008       20.269        6.321        0.097      338.350       10.943      861.725
04/15/2014  05:56:00      -19.225      -10.922       -0.945       10.494        9.394       11.716      110.130       88.246      137.264        0.041        0.017       22.111        4.347        0.039      338.389       11.006      861.728
04/15/2014  05:57:00      -64.167      -21.905       -4.774       16.850       16.881       10.749      283.939      284.978      115.534        0.265        0.034       67.803        7.353        0.012      338.277       10.819      861.737
04/15/2014  05:58:00      -19.181      -21.170        3.809       26.616       23.893       18.063      708.386      570.873      326.258        0.122        0.080       28.567       17.794        0.388      338.149       10.604      861.747
04/15/2014  05:59:00      -33.196      -33.119        6.371       48.354       30.219       17.849     2338.112      913.206      318.601        0.290        0.178       46.892       18.692        0.159      338.111       10.541      861.759
04/15/2014  06:00:00      -62.623      -60.513        6.164       43.484       36.363       24.536     1890.840     1322.232      602.039        0.572        0.191       87.083       25.022        0.083      338.203       10.694      861.767
04/15/2014  06:01:00      -56.792      -95.626        2.243       44.260       41.189       22.944     1958.971     1696.562      526.429        0.828        0.209      111.219       22.319        0.040      338.222       10.727      861.754
04/15/2014  06:02:00       -9.629        7.156       35.687       17.737       47.668       32.552      314.618     2272.222     1059.628        0.253        0.182       11.997       34.341        8.194      338.149       10.604      861.713
04/15/2014  06:03:00        1.656       58.332       95.526       30.244       45.484       22.478      914.722     2068.820      505.241        0.801        0.174       58.355       25.302        0.188      337.986       10.332      861.661
04/15/2014  06:04:00       -3.836       77.043      107.810       32.715       53.559       26.948     1070.282     2868.612      726.217        1.112        0.233       77.138       31.598        0.168      338.118       10.552      861.636
04/15/2014  06:05:00       -8.560      -32.138       38.673       39.608       56.767       42.332     1568.831     3222.530     1791.988        0.459        0.329       33.258       41.161        1.532      338.269       10.805      861.645
04/15/2014  06:06:00      -55.108      -20.798       10.725       62.070       38.580       25.684     3852.716     1488.432      659.647        0.479        0.300       58.902       24.491        0.173      338.253       10.779      861.674
04/15/2014  06:07:00     -128.096      -33.053        0.192       89.789       57.137       39.701     8062.009     3264.637     1576.153        1.520        0.645      132.292       43.680        0.109      338.096       10.513      861.692
04/15/2014  06:08:00     -181.025       25.419      -12.708       60.710       63.286       28.179     3685.670     4005.147      794.054        2.103        0.424      182.801       26.545        0.021      337.746        9.927      861.676
04/15/2014  06:09:00     -111.773       39.767       -8.802       55.764       26.566       21.006     3109.569      705.758      441.256        0.920        0.213      118.636       16.282        0.019      337.703        9.856      861.659
04/15/2014  06:10:00      -16.161      -16.669       -1.996       26.151       13.368       12.651      683.881      178.703      160.053        0.078        0.051       23.217        8.682        0.140      337.777        9.982      861.637
04/15/2014  06:11:00      -13.341       -2.167        9.760       14.968       25.871       16.776      224.052      669.296      281.427        0.073        0.059       13.516       16.959        1.574      337.934       10.244      861.614
04/15/2014  06:12:00       37.434       46.905       43.743       35.894       28.073       27.992     1288.386      788.070      783.525        0.419        0.143       60.012       24.732        0.170      337.885       10.161      861.591
04/15/2014  06:13:00       82.887       67.684       62.235       78.258       65.255       66.772     6124.370     4258.171     4458.521        1.508        0.742      107.011       64.953        0.368      337.940       10.253      861.563
04/15/2014  06:14:00       46.282      156.202      135.549       55.299       49.580       32.556     3058.002     2458.148     1059.886        2.574        0.329      162.915       25.332        0.024      338.031       10.405      861.548
04/15/2014  06:15:00       41.855       89.864      104.641       38.379       46.280       28.459     1472.937     2141.835      809.921        1.260        0.221       99.133       33.545        0.115      337.977       10.316      861.555
04/15/2014  06:16:00       61.144      -95.016        6.796       40.181       52.553       27.171     1614.530     2761.803      738.245        0.896        0.256      112.990       27.521        0.059      338.004       10.362      861.574
04/15/2014  06:17:00      -36.966      -46.523        1.954       61.394       31.830       18.802     3769.195     1013.149      353.528        0.433        0.257       59.422       12.280        0.043      338.080       10.488      861.602
04/15/2014  06:18:00      -58.112       23.626       -0.741       42.973       36.219       18.429     1846.668     1311.840      339.628        0.372        0.175       62.731       19.213        0.094      337.933       10.240      861.635
04/15/2014  06:19:00     -110.180       21.216       -8.187       43.899       33.869       22.283     1927.085     1147.087      496.512        0.811        0.179      112.204       17.696        0.025      337.852       10.105      861.656
04/15/2014  06:20:00      -41.397       11.415        0.752       32.575       28.244       16.236     1061.130      797.732      263.592        0.198        0.106       42.942       10.722        0.062      337.764        9.959      861.656
04/15/2014  06:21:00       27.874       43.433        3.844       46.904       22.952       14.607     2199.993      526.789      213.356        0.281        0.147       51.608        8.738        0.029      337.841       10.087      861.630
04/15/2014  06:22:00       22.501       31.051       -5.223       24.527       21.890       16.080      601.580      479.179      258.570        0.142        0.067       38.346       10.454        0.074      337.809       10.033      861.629
04/15/2014  06:23:00        6.005       48.152      -11.420       13.419       12.750        6.556      180.074      162.573       42.979        0.144        0.019       48.525        4.081        0.007      337.897       10.184      861.640
04/15/2014  06:24:00       -2.950       74.760      -13.328        7.690       15.290        5.143       59.136      233.780       26.452        0.305        0.016       74.818        3.851        0.003      337.990       10.340      861.657
04/15/2014  06:25:00       11.902      103.679      -12.797       16.779       17.609       12.172      281.538      310.094      148.165        0.590        0.037      104.360        6.693        0.004      337.956       10.281      861.656
04/15/2014  06:26:00        0.518       42.436        1.969       19.723       25.233       14.471      388.996      636.701      209.397        0.152        0.062       42.439       13.265        0.098      337.933       10.243      861.682
04/15/2014  06:27:00        0.455       29.162       -4.608        7.331       10.021        7.677       53.742      100.427       58.942        0.054        0.011       29.165        4.292        0.022      338.053       10.444      861.735
04/15/2014  06:28:00        4.697       18.241        9.130       12.170       13.682        8.334      148.110      187.183       69.455        0.042        0.020       18.836        8.032        0.182      337.948       10.268      861.765
04/15/2014  06:29:00       -0.969        8.712        6.245        6.885        6.340        7.763       47.398       40.196       60.267        0.013        0.007        8.766        3.485        0.158      337.850       10.102      861.774
04/15/2014  06:30:00       -1.446       34.022       -4.990       14.692       17.069        7.966      215.843      291.348       63.457        0.088        0.029       34.053        8.833        0.067      337.872       10.138      861.783
04/15/2014  06:31:00       18.408       92.576      -13.391        7.712        9.185        6.517       59.472       84.356       42.466        0.464        0.009       94.388        3.529        0.001      337.841       10.089      861.806
04/15/2014  06:32:00       20.342       95.648      -12.162       10.903       11.046        6.797      118.876      122.025       46.204        0.500        0.014       97.788        4.605        0.002      337.833       10.075      861.825
04/15/2014  06:33:00       18.376       66.647       -9.188       10.888       16.360        8.168      118.559      267.650       66.716        0.266        0.023       69.134        8.104        0.014      337.703        9.857      861.847
04/15/2014  06:34:00       20.480       46.462       -6.065       13.825       28.292       14.269      191.131      800.456      203.594        0.190        0.060       50.776       16.746        0.109      337.656        9.776      861.846
04/15/2014  06:35:00       26.349       57.956       -6.847       17.898       28.127       16.899      320.348      791.134      285.576        0.275        0.070       63.664       18.643        0.086      337.615        9.708      861.853
04/15/2014  06:36:00       20.331      107.419      -16.632       18.264       27.809       12.046      333.572      773.324      145.105        0.674        0.063      109.326       13.834        0.016      337.694        9.839      861.856
04/15/2014  06:37:00      -24.575      131.423      -19.550       22.281       17.739       10.201      496.421      314.667      104.062        0.959        0.046      133.701        5.227        0.002      337.736        9.911      861.844
04/15/2014  06:38:00      -86.169       80.237      -22.648       27.600       26.060       18.499      761.775      679.134      342.209        0.808        0.089      117.741       17.791        0.023      337.705        9.858      861.835
04/15/2014  06:39:00      -87.623       87.116      -19.202       26.730       32.825       21.172      714.471     1077.507      448.248        0.894        0.112      123.559       18.380        0.022      337.718        9.882      861.831
04/15/2014  06:40:00      -75.152       30.844      -14.470       20.111       31.460       14.041      404.454      989.757      197.151        0.420        0.080       81.235       14.759        0.033      337.736        9.912      861.836
04/15/2014  06:41:00      -67.298      -13.722      -15.987       15.402       13.946        9.726      237.229      194.477       94.592        0.275        0.026       68.683        7.286        0.011      337.487        9.493      861.844
04/15/2014  06:42:00      -38.284      -13.567       -2.621       30.938       16.254       12.196      957.179      264.183      148.735        0.151        0.069       40.617        6.766        0.028      337.558        9.613      861.848
04/15/2014  06:43:00      -39.666      -28.387      -15.733       24.872       13.154       10.903      618.614      173.029      118.881        0.177        0.046       48.777        7.279        0.022      337.520        9.550      861.849
04/15/2014  06:44:00      -74.111      -24.183      -11.318       25.504       19.345       12.252      650.451      374.243      150.103        0.369        0.059       77.957        6.996        0.008      337.481        9.483      861.859
04/15/2014  06:45:00      -68.728       -3.674      -12.407       17.379       16.216        9.700      302.030      262.943       94.081        0.277        0.033       68.826        7.846        0.013      337.429        9.396      861.860
04/15/2014  06:46:00      -45.918      -17.293       -8.873        9.706       13.635        6.497       94.205      185.918       42.209        0.140        0.016       49.066        2.832        0.003      337.507        9.529      861.868
04/15/2014  06:47:00      -53.810      -20.062       -9.245       20.370       12.533        8.392      414.934      157.075       70.418        0.201        0.032       57.428        5.356        0.009      337.519        9.547      861.898
04/15/2014  06:48:00      -84.582      -26.699       -6.206       25.257       23.544       11.912      637.925      554.331      141.895        0.462        0.067       88.696        9.509        0.011      337.523        9.554      861.929
04/15/2014  06:49:00      -94.780       14.085       -5.370       57.958       33.053       18.258     3359.185     1092.473      333.367        0.700        0.239       95.821       19.279        0.040      337.543        9.588      861.951
04/15/2014  06:50:00     -106.924      -21.712       -9.565       31.680       25.018       19.334     1003.649      625.916      373.815        0.700        0.100      109.106       19.665        0.032      337.607        9.695      861.954
04/15/2014  06:51:00      -63.021       -9.935        0.638       24.897       20.078       15.956      619.856      403.109      254.592        0.267        0.064       63.799       12.605        0.039      337.461        9.451      861.936
04/15/2014  06:52:00      -54.482       -7.768        0.258       20.073       18.067       11.879      402.906      326.426      141.101        0.195        0.044       55.033       10.209        0.034      337.558        9.613      861.916
04/15/2014  06:53:00      -40.972       10.456        2.120       17.248       11.422       10.273      297.506      130.466      105.544        0.116        0.027       42.285        9.164        0.047      337.657        9.780      861.906
04/15/2014  06:54:00       -6.226       -4.699        9.839        9.903        9.481        8.669       98.066       89.885       75.157        0.021        0.013        7.800        7.514        0.928      337.877       10.148      861.919
04/15/2014  06:55:00      -14.597       -3.546        3.482       12.916        6.868        8.178      166.834       47.175       66.880        0.026        0.014       15.022        7.038        0.219      337.974       10.312      861.948
04/15/2014  06:56:00      -46.671       -7.526       -1.970        9.289        9.871        6.856       86.287       97.442       47.002        0.123        0.012       47.274        5.648        0.014      337.892       10.174      861.973
04/15/2014  06:57:00      -62.681       -3.457       -7.530       23.150       13.723       13.081      535.924      188.325      171.125        0.245        0.045       62.776       14.037        0.050      337.721        9.886      861.991
04/15/2014  06:58:00      -87.791      -32.857       -2.111       18.760       21.155       11.608      351.953      447.553      134.750        0.486        0.047       93.738        9.445        0.010      337.612        9.705      862.005
04/15/2014  06:59:00      -58.035      -10.007       -3.968       44.145       26.396       16.835     1948.799      696.756      283.420        0.321        0.146       58.891       17.719        0.091      337.437        9.410      862.022
04/15/2014  07:00:00     -110.350        2.271       -9.897       30.580       22.615       14.332      935.157      511.458      205.402        0.697        0.083      110.374       12.778        0.013      337.640        9.750      862.022
04/15/2014  07:01:00      -93.806      -14.723      -12.266       16.107       21.545       10.991      259.431      464.207      120.804        0.501        0.042       94.954        9.380        0.010      337.622        9.722      862.005
04/15/2014  07:02:00      -86.359       -6.414      -12.043       15.931       14.475       14.359      253.812      209.528      206.174        0.416        0.033       86.597       10.239        0.014      337.620        9.717      862.010
04/15/2014  07:03:00      -73.313       -1.980      -12.601       19.179       13.046       11.558      367.850      170.208      133.589        0.310        0.034       73.340       11.959        0.027      337.677        9.814      862.016
04/15/2014  07:04:00      -84.465      -10.709      -11.754       18.885       17.454       11.962      356.650      304.631      143.086        0.410        0.040       85.141        6.462        0.006      337.519        9.549      862.042
04/15/2014  07:05:00     -114.273       -1.783       -3.343       66.140       26.875       24.774     4374.519      722.252      613.728        0.939        0.286      114.287       26.435        0.054      337.531        9.568      862.071
04/15/2014  07:06:00     -129.746      -21.352       -9.492       40.061       31.384       20.308     1604.878      984.977      412.420        1.019        0.150      131.491       21.134        0.026      337.515        9.540      862.084
04/15/2014  07:07:00     -121.020        2.807      -10.232       35.342       26.612       20.802     1249.053      708.194      432.704        0.857        0.119      121.052       21.030        0.030      337.460        9.449      862.080
04/15/2014  07:08:00     -111.376      -18.965       -6.214       42.103       31.757       23.395     1772.635     1008.495      547.310        0.807        0.166      112.980       21.318        0.036      337.570        9.633      862.050
04/15/2014  07:09:00     -116.140        8.453       -2.689       56.158       36.653       25.504     3153.726     1343.434      650.440        0.936        0.257      116.447       26.080        0.050      337.615        9.708      862.040
04/15/2014  07:10:00     -151.218        9.298      -11.824       26.922       23.769       16.264      724.801      564.986      264.515        1.232        0.078      151.503        6.449        0.002      337.694        9.840      862.042
04/15/2014  07:11:00      -89.583       -3.217       -4.994       32.069       20.211       22.133     1028.414      408.471      489.864        0.499        0.096       89.640       21.012        0.055      337.634        9.740      862.039
04/15/2014  07:12:00      -85.490       -4.772       -2.556       22.837       19.797       16.105      521.550      391.908      259.359        0.426        0.059       85.623       13.301        0.024      337.724        9.891      862.057
04/15/2014  07:13:00      -68.487      -35.044       -2.739       26.211       29.164       15.760      687.028      850.524      248.382        0.386        0.089       76.932       14.440        0.035      337.844       10.093      862.063
04/15/2014  07:14:00      -66.728      -37.723       -1.112       25.156       23.920       12.497      632.816      572.171      156.187        0.362        0.068       76.653       12.025        0.025      337.938       10.250      862.076
04/15/2014  07:15:00      -64.530      -42.890        3.988       41.224       22.132       14.939     1699.425      489.836      223.189        0.422        0.121       77.483       14.817        0.037      338.056       10.449      862.090
04/15/2014  07:16:00      -59.384      -50.057        1.227       42.612       25.096       18.704     1815.802      629.803      349.829        0.441        0.140       77.667       17.953        0.053      338.100       10.523      862.091
04/15/2014  07:17:00      -75.425      -63.847       -7.325       20.454       26.408       14.042      418.368      697.357      197.184        0.557        0.066       98.820        6.970        0.005      338.135       10.582      862.096
04/15/2014  07:18:00      -42.469      -38.839        5.682       36.416       21.708       22.235     1326.103      471.228      494.383        0.282        0.115       57.551       21.756        0.143      338.288       10.836      862.085
04/15/2014  07:19:00     -105.000      -51.208       -7.980       35.350       25.323       14.288     1249.592      641.266      204.155        0.790        0.105      116.822        9.629        0.007      338.295       10.850      862.088
04/15/2014  07:20:00      -83.848      -35.416       -6.788       35.191       32.004       21.293     1238.391     1024.281      453.406        0.552        0.136       91.021       20.487        0.051      338.237       10.753      862.082
04/15/2014  07:21:00     -131.661      -27.370       -8.830       31.018       26.192       20.638      962.121      685.997      425.911        1.012        0.104      134.475       14.280        0.011      338.266       10.802      862.093
04/15/2014  07:22:00      -97.569      -11.162       -6.536       42.995       25.041       23.630     1848.537      627.069      558.373        0.636        0.152       98.205       21.606        0.048      338.297       10.853      862.083
04/15/2014  07:23:00      -96.421       -3.237       -6.400       45.116       29.654       22.186     2035.452      879.374      492.222        0.638        0.170       96.475       21.611        0.050      338.203       10.696      862.078
04/15/2014  07:24:00      -99.583      -24.774       -1.110       30.426       34.342       17.452      925.763     1179.382      304.589        0.647        0.120      102.618       15.242        0.022      338.170       10.639      862.052
04/15/2014  07:25:00      -95.328      -37.250       -4.925       27.628       18.833       14.332      763.303      354.676      205.410        0.591        0.066      102.347       12.748        0.016      338.210       10.707      862.037
04/15/2014  07:26:00      -73.787      -41.163       -0.080       30.330       22.596       14.930      919.915      510.596      222.891        0.440        0.083       84.492       10.688        0.016      338.375       10.983      862.017
04/15/2014  07:27:00     -104.198      -15.496        2.274       31.418       26.067       18.815      987.093      679.492      353.997        0.656        0.101      105.344       17.617        0.028      338.419       11.058      862.014
04/15/2014  07:28:00     -101.322      -41.960       -3.171       26.976       23.018       16.124      727.725      529.805      259.988        0.678        0.076      109.666       13.844        0.016      338.462       11.129      862.017
04/15/2014  07:29:00      -46.886      -37.797        9.962       42.487       34.284       22.818     1805.164     1175.405      520.675        0.361        0.175       60.224       27.355        0.206      338.834       11.756      862.015
04/15/2014  07:30:00      -90.692     -107.881       -2.001       47.284       37.539       29.800     2235.745     1409.187      888.043        1.220        0.227      140.938       28.898        0.042      338.725       11.572      862.013
04/15/2014  07:31:00      -93.371     -108.959       -5.602       47.833       46.078       19.891     2288.014     2123.169      395.658        1.271        0.240      143.493       21.992        0.023      338.763       11.637      862.009
04/15/2014  07:32:00      -71.934      -81.491        0.908       37.968       50.959       23.843     1441.533     2596.796      568.484        0.821        0.230      108.698       25.555        0.055      338.772       11.652      862.018
04/15/2014  07:33:00      -87.427     -105.641       -6.777       54.378       60.207       26.603     2957.010     3624.927      707.713        1.307        0.364      137.126       33.166        0.059      338.746       11.606      862.020
04/15/2014  07:34:00      -81.616      -70.457       -7.052       43.558       27.154       22.127     1897.304      737.331      489.619        0.740        0.156      107.821       16.710        0.024      338.739       11.593      862.007
04/15/2014  07:35:00      -32.392      -94.403       -0.650       39.225       31.947       28.233     1538.564     1020.583      797.111        0.666        0.168       99.805       24.838        0.062      338.815       11.724      861.997
04/15/2014  07:36:00      -64.427      -89.210        7.966       58.340       34.462       27.556     3403.585     1187.636      759.323        0.876        0.268      110.042       14.247        0.017      338.831       11.750      861.996
04/15/2014  07:37:00      -84.029     -130.132       -2.046       65.713       50.318       31.565     4318.144     2531.908      996.372        1.592        0.392      154.904       22.170        0.020      338.792       11.685      862.010
04/15/2014  07:38:00      -89.463     -164.389       -6.128       62.672       68.963       41.823     3927.802     4755.888     1749.155        2.275        0.522      187.156       31.603        0.029      338.769       11.643      862.021
04/15/2014  07:39:00      -88.241      -84.188        2.662       55.721       55.906       27.725     3104.846     3125.525      768.655        1.094        0.350      121.960       24.677        0.041      338.801       11.699      862.011
04/15/2014  07:40:00      -55.328     -101.790       -6.373       29.520       53.567       18.114      871.433     2869.419      328.121        0.877        0.203      115.855        8.220        0.005      338.807       11.709      862.001
04/15/2014  07:41:00      -63.870     -187.270        1.102       30.985       41.465       18.770      960.068     1719.326      352.304        2.109        0.152      197.862       12.286        0.004      338.778       11.658      862.003
04/15/2014  07:42:00      -66.862     -127.549        4.548       35.170       75.033       24.638     1236.913     5629.878      607.051        1.412        0.374      144.011       28.916        0.040      338.827       11.742      861.982
04/15/2014  07:43:00      -27.900      -12.174        8.330       27.306       27.605       24.473      745.629      762.053      598.921        0.155        0.105       30.440       22.020        0.523      339.131       12.255      861.970
04/15/2014  07:44:00      -34.037       10.643        2.596       28.603       30.613       21.277      818.119      937.146      452.708        0.174        0.110       35.662       18.223        0.261      339.083       12.173      861.971
04/15/2014  07:45:00      -41.664       29.753       17.953       30.572       19.297       29.100      934.660      372.377      846.816        0.255        0.108       51.197       22.994        0.202      339.070       12.152      861.994
04/15/2014  07:46:00      -20.164        6.192       -3.525       30.623       13.892       12.011      937.794      192.990      144.262        0.087        0.064       21.093       12.491        0.351      339.210       12.386      862.009
04/15/2014  07:47:00       -9.804       17.110       25.811       25.026       18.379       17.555      626.309      337.803      308.171        0.116        0.064       19.719       12.876        0.426      339.627       13.090      862.010
04/15/2014  07:48:00       37.335       48.450        9.544       21.931       27.132       17.980      480.974      736.149      323.264        0.269        0.077       61.166       14.619        0.057      339.399       12.707      862.012
04/15/2014  07:49:00       31.756        0.973       12.446       27.654       48.897       19.640      764.742     2390.883      385.718        0.235        0.177       31.771       10.687        0.113      339.139       12.267      862.013
04/15/2014  07:50:00       16.371       -6.511       15.916       24.004       16.215       20.779      576.186      262.930      431.782        0.092        0.064       17.618       15.786        0.803      339.405       12.715      862.009
04/15/2014  07:51:00        8.339      -11.293       33.460       21.476       28.486       21.794      461.197      811.452      474.969        0.153        0.087       14.038       10.832        0.595      339.598       13.042      862.009
04/15/2014  07:52:00       37.151       22.497       32.235       44.887       35.802       31.535     2014.807     1281.790      994.428        0.361        0.215       43.432       36.681        0.713      339.248       12.454      862.000
04/15/2014  07:53:00       15.080       23.245       39.706       32.589       28.020       28.280     1062.038      785.098      799.759        0.250        0.132       27.708       25.588        0.853      339.410       12.725      861.990
04/15/2014  07:54:00        9.021       35.706       44.858       24.170       20.621       13.171      584.198      425.233      173.470        0.228        0.059       36.828       11.093        0.091      339.367       12.652      861.971
04/15/2014  07:55:00       69.332       36.952       21.257       40.311       30.431       29.756     1624.954      926.022      885.397        0.503        0.172       78.564       22.152        0.080      339.184       12.344      861.948
04/15/2014  07:56:00      167.634       94.614       20.382       74.522       49.081       45.296     5553.519     2408.984     2051.698        2.374        0.501      192.492        7.685        0.002      338.876       11.823      861.944
04/15/2014  07:57:00      149.502       82.807       32.616       61.112       50.474       41.011     3734.732     2547.610     1681.887        1.912        0.398      170.903       33.548        0.039      338.833       11.751      861.937
04/15/2014  07:58:00      143.169       76.804       19.635       51.527       39.494       38.013     2655.003     1559.764     1444.971        1.622        0.283      162.469       24.231        0.022      338.871       11.816      861.928
04/15/2014  07:59:00       40.518       46.630       37.579       46.650       33.852       41.697     2176.229     1145.958     1738.655        0.514        0.253       61.774       23.986        0.151      339.177       12.331      861.931
04/15/2014  08:00:00       34.036       23.303        9.693       24.621       22.636       21.880      606.188      512.383      478.736        0.170        0.080       41.249       12.746        0.095      339.191       12.356      861.935
04/15/2014  08:01:00       38.205      -11.416       19.874       31.691       42.847       34.925     1004.293     1835.824     1219.772        0.302        0.203       39.874       24.565        0.380      339.147       12.282      861.921
04/15/2014  08:02:00       42.099       47.293       43.878       41.321       34.130       33.594     1707.446     1164.867     1128.589        0.497        0.200       63.317       24.527        0.150      338.954       11.957      861.904
04/15/2014  08:03:00       91.248       39.285       29.039       31.342       37.791       26.042      982.308     1428.188      678.181        0.690        0.154       99.345       17.492        0.031      338.785       11.673      861.901
04/15/2014  08:04:00      103.366       52.996       22.942       34.624       25.956       29.857     1198.803      673.699      891.459        0.839        0.138      116.160       10.743        0.009      338.949       11.947      861.900
04/15/2014  08:05:00       95.352       58.443       23.662       40.292       35.434       36.244     1623.419     1255.580     1313.620        0.863        0.210      111.837       24.435        0.048      339.027       12.079      861.888
04/15/2014  08:06:00       56.987       44.532       45.675       61.002       58.097       37.271     3721.261     3375.315     1389.147        0.790        0.424       72.323       29.664        0.168      339.302       12.542      861.882
04/15/2014  08:07:00      113.871       75.097       42.423       52.098       41.264       41.240     2714.252     1702.746     1700.762        1.326        0.306      136.405       29.219        0.046      339.068       12.149      861.891
04/15/2014  08:08:00      117.423       24.637        3.909       51.330       40.634       37.782     2634.738     1651.130     1427.446        1.006        0.286      119.980       25.515        0.045      338.976       11.994      861.885
04/15/2014  08:09:00      119.803       63.082       28.965       47.886       44.157       30.057     2293.072     1949.824      903.405        1.216        0.257      135.396       19.867        0.022      339.116       12.228      861.860
04/15/2014  08:10:00       49.632       46.399       55.668       60.079       46.333       32.123     3609.489     2146.725     1031.890        0.725        0.339       67.942       23.193        0.117      339.268       12.484      861.838
04/15/2014  08:11:00       90.827       98.901       56.744       59.328       36.676       42.007     3519.779     1345.137     1764.571        1.394        0.331      134.280       38.077        0.080      339.085       12.178      861.819
04/15/2014  08:12:00      119.082       91.176       28.145       39.514       31.353       27.319     1561.386      983.000      746.326        1.329        0.165      149.979       13.976        0.009      338.967       11.978      861.807
04/15/2014  08:13:00      100.251       58.402        6.929       33.090       37.893       32.729     1094.981     1435.866     1071.208        0.855        0.180      116.022       15.551        0.018      339.020       12.068      861.808
04/15/2014  08:14:00       95.585       28.532        6.668       56.480       34.170       30.897     3190.024     1167.616      954.598        0.765        0.266       99.753       16.374        0.027      339.339       12.604      861.805
04/15/2014  08:15:00       45.490       24.644       26.482       67.879       33.433       29.404     4607.605     1117.773      864.604        0.498        0.329       51.736       28.801        0.310      339.728       13.260      861.786
04/15/2014  08:16:00      112.123       62.668       12.359       49.024       43.144       37.166     2403.380     1861.444     1381.331        1.115        0.282      128.447       29.584        0.053      339.150       12.286      861.783
04/15/2014  08:17:00       78.933       31.587        8.190       30.028       23.438       25.348      901.694      549.325      642.529        0.469        0.105       85.018       15.870        0.035      339.155       12.294      861.778
04/15/2014  08:18:00        4.029       21.138       17.757       33.516       31.333       23.013     1123.333      981.728      529.612        0.171        0.132       21.518        9.422        0.192      339.550       12.961      861.756
04/15/2014  08:19:00       29.892       41.302       74.618       38.505       48.508       34.417     1482.671     2353.059     1184.497        0.659        0.251       50.984       28.098        0.304      339.645       13.121      861.717
04/15/2014  08:20:00       18.857        7.673       50.219       33.811       40.851       46.190     1143.151     1668.835     2133.556        0.394        0.247       20.359       31.012        2.320      339.675       13.170      861.651
04/15/2014  08:21:00       34.951     -119.098       10.027       52.969       53.117       42.130     2805.717     2821.374     1774.977        1.145        0.370      124.121       35.079        0.080      339.657       13.139      861.611
04/15/2014  08:22:00       54.419      -57.941        0.342       39.574       64.422       39.366     1566.101     4150.204     1549.704        0.679        0.363       79.490       34.056        0.184      339.637       13.107      861.624
04/15/2014  08:23:00        6.499      -19.954       15.954       27.104       35.455       33.163      734.642     1257.092     1099.803        0.189        0.155       20.986       30.976        2.179      339.654       13.136      861.635
04/15/2014  08:24:00       14.411       21.861       24.847       20.062       26.596       27.598      402.496      707.353      761.635        0.159        0.094       26.183       20.045        0.586      339.959       13.650      861.628
04/15/2014  08:25:00      108.705       63.244       18.361       47.756       32.032       30.317     2280.626     1026.058      919.132        1.019        0.211      125.764       23.652        0.035      339.424       12.747      861.574
04/15/2014  08:26:00       73.735      121.128      102.723       89.419       67.493       65.763     7995.753     4555.317     4324.804        2.377        0.844      141.806       50.961        0.129      339.525       12.916      861.489
04/15/2014  08:27:00       88.247      103.079       96.769       72.306       56.473       40.435     5228.101     3189.159     1635.028        1.891        0.503      135.694       23.928        0.031      339.452       12.794      861.442
04/15/2014  08:28:00       -5.306       22.292       68.830       28.174       61.048       49.224      793.793     3726.831     2422.970        0.610        0.347       22.915       48.230        4.430      339.813       13.404      861.501
04/15/2014  08:29:00       57.275       -9.553       27.572       67.035       51.737       47.891     4493.753     2676.696     2293.518        0.680        0.473       58.066       50.053        0.743      339.592       13.031      861.519
04/15/2014  08:30:00      117.822       62.910       53.074       47.465       67.282       43.629     2252.971     4526.836     1903.526        1.467        0.434      133.565       36.785        0.076      339.283       12.511      861.508
04/15/2014  08:31:00       85.391       71.515       42.540       55.831       45.619       53.404     3117.133     2081.099     2851.943        1.113        0.403      111.383       42.971        0.149      339.429       12.756      861.494
04/15/2014  08:32:00       65.108       33.419       31.449       59.555       39.037       34.367     3546.839     1523.857     1181.100        0.630        0.313       73.184       30.071        0.169      339.692       13.200      861.469
04/15/2014  08:33:00       68.026       54.829       63.577       69.870       56.565       46.656     4881.852     3199.546     2176.822        1.096        0.513       87.372       41.680        0.228      339.858       13.479      861.425
04/15/2014  08:34:00       14.428      124.510      132.749       41.022       58.706       40.253     1682.789     3446.389     1620.296        2.004        0.337      125.344       37.450        0.089      339.625       13.085      861.420
04/15/2014  08:35:00       69.924       78.078      101.586       59.058       51.224       43.961     3487.839     2623.939     1932.563        1.467        0.402      104.812       37.803        0.130      339.513       12.898      861.437
04/15/2014  08:36:00       94.402      102.532      101.428       74.869       71.153       56.792     5605.331     5062.794     3225.384        2.180        0.695      139.372       52.677        0.143      339.612       13.063      861.440
04/15/2014  08:37:00      109.470       75.245       43.260       84.710       50.530       49.471     7175.713     2553.251     2447.425        1.584        0.609      132.836       37.482        0.080      339.825       13.422      861.444
04/15/2014  08:38:00      152.479      102.646       49.431       56.017       63.838       59.149     3137.909     4075.246     3498.561        2.347        0.536      183.810       26.918        0.021      339.851       13.465      861.453
04/15/2014  08:39:00      153.100      151.851       97.856       67.011       51.185       48.123     4490.417     2619.913     2315.848        3.275        0.471      215.635       29.796        0.019      339.613       13.062      861.462
04/15/2014  08:40:00      203.434      110.502       65.245       70.870       63.494       58.988     5022.590     4031.434     3479.534        3.519        0.627      231.508       43.138        0.035      339.520       12.905      861.464
04/15/2014  08:41:00      150.155       91.840       53.227      129.048       71.731       59.344    16653.488     5145.395     3521.704        2.956        1.266      176.014       64.046        0.132      339.834       13.435      861.456
04/15/2014  08:42:00       42.471       31.312       46.415       40.088       53.323       38.727     1607.058     2843.386     1499.807        0.544        0.298       52.766       21.141        0.161      340.083       13.858      861.439
04/15/2014  08:43:00       44.525       56.302       58.695       65.375       67.060       41.333     4273.914     4496.986     1708.395        0.954        0.524       71.780       40.400        0.317      339.918       13.581      861.435
04/15/2014  08:44:00       37.795       34.827       32.632       51.984       35.587       41.004     2702.303     1266.421     1681.320        0.468        0.283       51.394       33.958        0.437      340.071       13.841      861.434
04/15/2014  08:45:00       17.086       -0.731       26.166       28.266       39.434       31.044      798.957     1555.025      963.732        0.215        0.166       17.102       20.238        1.400      340.242       14.128      861.459
04/15/2014  08:46:00       15.943       45.994       14.630       41.027       32.714       31.495     1683.207     1070.221      991.938        0.316        0.187       48.679       23.867        0.240      340.098       13.884      861.451
04/15/2014  08:47:00       88.925       44.641       11.913       61.470       41.585       44.359     3778.503     1729.274     1967.746        0.876        0.374       99.501       17.674        0.032      340.087       13.865      861.446
04/15/2014  08:48:00      123.984       84.345       18.633       91.140       67.725       45.509     8306.502     4586.671     2071.097        1.890        0.748      149.954       20.996        0.020      340.107       13.898      861.416
04/15/2014  08:49:00      166.709      100.312       32.199       72.373       50.972       52.385     5237.812     2598.106     2744.188        2.473        0.529      194.562       36.155        0.035      340.040       13.783      861.409
04/15/2014  08:50:00       97.719       77.085        5.870       65.409       51.077       45.354     4278.305     2608.883     2057.027        1.223        0.447      124.463       27.167        0.048      340.146       13.965      861.423
04/15/2014  08:51:00      116.324      140.549       -1.529       79.863       46.312       46.045     6378.077     2144.818     2120.097        2.196        0.532      182.443       36.401        0.040      339.935       13.608      861.424
04/15/2014  08:52:00      111.888       74.403       10.036       35.382       33.761       29.654     1251.855     1139.834      879.379        1.071        0.164      134.369       16.645        0.015      339.948       13.631      861.399
04/15/2014  08:53:00      114.295       65.398       26.117       35.615       23.978       26.866     1268.443      574.959      721.808        1.029        0.128      131.683       12.927        0.010      340.000       13.719      861.382
04/15/2014  08:54:00       54.729       41.460       15.187       53.220       38.260       26.486     2832.386     1463.809      701.511        0.497        0.250       68.660       22.004        0.103      340.256       14.152      861.366
04/15/2014  08:55:00       35.500       36.913       47.374       35.427       41.585       36.594     1255.051     1729.323     1339.157        0.459        0.216       51.214       20.233        0.156      340.505       14.572      861.348
04/15/2014  08:56:00       -2.724      -11.058       37.905       25.140       49.272       30.561      632.037     2427.776      933.987        0.278        0.200       11.389       33.953        8.888      340.627       14.780      861.337
04/15/2014  08:57:00      102.939       70.737       42.113       75.881       39.173       43.062     5757.917     1534.548     1854.344        1.326        0.457      124.900       36.397        0.085      340.237       14.119      861.323
04/15/2014  08:58:00       39.834       53.561       64.154       65.590       51.158       43.054     4302.110     2617.160     1853.690        0.867        0.439       66.750       34.827        0.272      340.374       14.351      861.296
04/15/2014  08:59:00       57.566       60.379       85.191       65.582       89.053       61.262     4301.007     7930.361     3753.066        1.510        0.799       83.424       63.664        0.582      340.451       14.480      861.283
04/15/2014  09:00:00      105.284      -56.361       44.090      122.702      149.148       84.445    15055.660    22245.088     7131.015        3.031        2.222      119.421      115.070        0.928      340.423       14.432      861.257
04/15/2014  09:01:00      128.066      -81.724       54.592       85.857      174.389       80.319     7371.472    30411.367     6451.064        3.514        2.212      151.920      104.809        0.476      340.495       14.553      861.220
04/15/2014  09:02:00      105.568      -36.998       59.063       95.328      149.242       93.465     9087.457    22273.241     8735.618        2.804        2.005      111.863      107.953        0.931      340.609       14.746      861.206
04/15/2014  09:03:00       56.190       28.306       53.108       81.814       63.618       56.723     6693.461     4047.213     3217.534        1.037        0.698       62.917       41.354        0.432      340.241       14.127      861.209
04/15/2014  09:04:00       38.941      -44.013       39.512       63.607      109.244       51.103     4045.818    11934.215     2611.549        1.180        0.930       58.767       61.251        1.086      340.560       14.665      861.189
04/15/2014  09:05:00       59.614      -54.494       16.096       69.265       72.302       44.768     4797.660     5227.508     2004.150        0.940        0.601       80.768       41.620        0.266      340.688       14.881      861.179
04/15/2014  09:06:00       80.039       28.171       35.839       78.289       70.600       41.888     6129.127     4984.369     1754.611        1.067        0.643       84.852       39.987        0.222      340.388       14.375      861.162
04/15/2014  09:07:00      156.231     -228.190      -36.898       84.220       85.427       54.493     7092.991     7297.832     2969.439        4.760        0.868      276.548       38.186        0.019      340.293       14.211      861.133
04/15/2014  09:08:00      131.645     -154.471      -25.482      112.319       93.523       58.584    12615.644     8746.486     3432.073        3.331        1.240      202.958       61.753        0.093      340.379       14.355      861.124
04/15/2014  09:09:00      102.070     -190.086      -23.912       77.587       77.350       46.520     6019.742     5983.055     2164.118        3.064        0.708      215.757       45.453        0.044      340.270       14.172      861.100
04/15/2014  09:10:00      111.195     -191.814      -47.343       81.505      113.557       59.415     6643.009    12895.241     3530.171        3.723        1.153      221.714       68.528        0.096      340.445       14.468      861.054
04/15/2014  09:11:00       81.042     -184.904      -21.876       76.056       73.924       44.510     5784.509     5464.745     1981.099        2.723        0.662      201.884       37.162        0.034      340.434       14.447      861.051
04/15/2014  09:12:00       83.548     -124.661        8.091       72.141       95.645       56.835     5204.325     9147.968     3230.171        2.008        0.879      150.069       55.977        0.139      340.822       15.103      861.038
04/15/2014  09:13:00       75.962       -4.717       73.488       91.826      130.286       98.827     8432.030    16974.456     9766.754        2.318        1.759       76.108      114.934        2.280      340.744       14.973      861.014
04/15/2014  09:14:00       53.363      -46.086       33.100       52.198      100.666       64.694     2724.582    10133.698     4185.367        1.155        0.852       70.509       69.223        0.964      340.778       15.033      860.981
04/15/2014  09:15:00       64.631      -25.100       49.281       85.781       94.095       56.185     7358.460     8853.939     3156.805        1.330        0.968       69.334       56.484        0.664      340.922       15.276      860.962
04/15/2014  09:16:00       52.657      -60.475       15.236       67.383       94.555       65.302     4540.426     8940.700     4264.397        1.220        0.887       80.187       59.932        0.559      340.948       15.319      860.936
04/15/2014  09:17:00       53.430      -23.601       61.306       64.871      115.741       76.935     4208.289    13395.971     5918.948        1.534        1.176       58.410       77.640        1.767      341.054       15.501      860.934
04/15/2014  09:18:00      139.814     -150.485       10.024       92.306      150.210       86.939     8520.480    22563.089     7558.343        4.046        1.932      205.411      104.583        0.259      340.720       14.933      860.937
04/15/2014  09:19:00      131.150      -89.116       -7.899       76.012      111.366       40.634     5777.826    12402.445     1651.143        2.251        0.992      158.562       51.238        0.104      340.591       14.716      860.938
04/15/2014  09:20:00       60.874      -52.069       26.231       59.187      100.445       44.032     3503.091    10089.293     1938.852        1.131        0.777       80.105       58.955        0.542      341.000       15.407      860.949
04/15/2014  09:21:00       98.691      -28.023       56.285       88.039       87.733       59.662     7750.792     7697.105     3559.515        1.635        0.950      102.593       61.592        0.360      341.163       15.684      860.918
04/15/2014  09:22:00       88.457       25.881       73.374       90.889       91.705       68.806     8260.814     8409.826     4734.331        1.764        1.070       92.165       72.405        0.617      341.073       15.531      860.889
04/15/2014  09:23:00       22.229       81.036      138.894       52.193       91.704       58.780     2724.137     8409.535     3455.065        2.047        0.729       84.029       62.145        0.547      341.140       15.644      860.858
04/15/2014  09:24:00       51.203      -81.023       29.686       53.525      104.534       59.285     2864.897    10927.407     3514.677        1.368        0.865       95.846       59.331        0.383      341.297       15.912      860.845
04/15/2014  09:25:00       62.348      -21.265       55.580       72.778      107.987       60.085     5296.574    11661.145     3610.186        1.399        1.028       65.875       67.385        1.046      341.279       15.881      860.844
04/15/2014  09:26:00       -6.132      -88.158      -13.743       46.879       65.164       35.528     2197.645     4246.365     1262.240        0.785        0.385       88.371       28.249        0.102      341.305       15.926      860.845
04/15/2014  09:27:00        5.253      -24.201       38.205       35.554       74.494       53.359     1264.075     5549.383     2847.185        0.586        0.483       24.765       56.992        5.296      341.619       16.457      860.844
04/15/2014  09:28:00        9.201      -54.404        8.445       47.252       57.712       34.996     2232.782     3330.694     1224.690        0.495        0.339       55.176       27.349        0.246      341.119       15.610      860.842
04/15/2014  09:29:00       55.611      -13.543       53.905       67.294       97.115       54.897     4528.543     9431.245     3013.657        1.157        0.849       57.236       65.397        1.305      341.242       15.819      860.816
04/15/2014  09:30:00      160.627     -198.585      -38.109       91.950      110.266       58.781     8454.839    12158.528     3455.154        4.537        1.203      255.416       56.436        0.049      341.021       15.441      860.774
04/15/2014  09:31:00       74.854        9.203       78.446       96.471      130.204       77.601     9306.664    16953.101     6021.977        2.206        1.614       75.418       86.183        1.306      341.334       15.974      860.758
04/15/2014  09:32:00      124.436      -83.328       13.838       86.650      121.416       70.327     7508.250    14741.837     4945.939        2.490        1.360      149.760       62.457        0.174      341.085       15.550      860.777
04/15/2014  09:33:00      114.239     -146.231      -22.019       70.927      100.280       51.756     5030.650    10056.064     2678.692        2.634        0.888      185.564       51.006        0.076      341.237       15.806      860.788
04/15/2014  09:34:00       48.757      -78.871       36.800       64.508      108.692       63.206     4161.332    11814.019     3995.049        1.496        0.999       92.725       64.242        0.480      341.238       15.812      860.776
04/15/2014  09:35:00       42.146      -60.690       29.218       65.243       84.010       69.116     4256.709     7057.667     4776.982        1.120        0.805       73.889       58.214        0.621      341.290       15.898      860.759
04/15/2014  09:36:00       65.912       -5.224       58.709       72.114      123.133       50.721     5200.486    15161.618     2572.590        1.537        1.147       66.119       62.877        0.904      341.127       15.623      860.770
04/15/2014  09:37:00       75.774      -84.449       24.495       70.319       90.993       58.851     4944.702     8279.749     3463.492        1.508        0.834      113.461       50.806        0.201      341.416       16.111      860.747
04/15/2014  09:38:00       56.657       24.265       77.600       56.421       62.422       47.702     3183.306     3896.469     2275.493        0.959        0.468       61.634       47.326        0.590      341.344       15.992      860.750
04/15/2014  09:39:00       48.507       40.139       55.450       45.534       62.007       37.190     2073.343     3844.881     1383.075        0.717        0.365       62.961       33.695        0.286      341.308       15.932      860.724
04/15/2014  09:40:00       27.249      -19.889       33.812       39.812       82.166       39.661     1585.005     6751.175     1572.973        0.609        0.495       33.735       25.840        0.587      341.609       16.440      860.716
04/15/2014  09:41:00       69.227       27.896       44.705       98.377       66.101       64.833     9678.091     4369.360     4203.317        1.291        0.913       74.636       50.048        0.450      341.567       16.369      860.727
04/15/2014  09:42:00       53.399       -7.290       51.121       71.261       85.349       47.414     5078.156     7284.471     2248.067        1.006        0.731       53.895       40.113        0.554      341.388       16.066      860.720
04/15/2014  09:43:00      113.871     -162.787      -25.181       82.983       91.538       63.042     6886.128     8379.240     3974.326        2.967        0.962      198.661       71.869        0.131      341.381       16.050      860.742
04/15/2014  09:44:00       55.482     -108.049      -16.658       81.061      109.083       60.782     6570.932    11899.072     3694.407        1.859        1.108      121.461       62.598        0.266      341.626       16.467      860.742
04/15/2014  09:45:00       20.250       60.853       73.742       33.034       54.611       36.412     1091.222     2982.324     1325.854        0.747        0.270       64.134       32.052        0.250      341.778       16.728      860.752
04/15/2014  09:46:00       31.240      -32.254       72.313       68.570      125.301       57.598     4701.863    15700.337     3317.584        1.548        1.186       44.903       73.822        2.703      341.624       16.465      860.706
04/15/2014  09:47:00       37.888       29.898       95.436       70.517      115.791       58.008     4972.582    13407.642     3364.921        1.659        1.087       48.264       76.199        2.493      341.351       16.003      860.674
04/15/2014  09:48:00       58.037      -36.285       46.786       64.660       97.522       60.125     4180.937     9510.482     3615.050        1.209        0.865       68.447       56.271        0.676      341.443       16.159      860.664
04/15/2014  09:49:00       44.949       24.253       57.450       59.474       66.128       54.664     3537.163     4372.959     2988.148        0.840        0.545       51.074       37.808        0.548      341.766       16.707      860.665
04/15/2014  09:50:00       76.717       90.485      128.089      136.433      117.745       83.131    18613.871    13863.920     6910.688        3.493        1.969      118.630       99.409        0.702      341.492       16.241      860.697
04/15/2014  09:51:00       56.238     -132.256       26.078       67.341       79.270       50.148     4534.852     6283.666     2514.832        1.733        0.667      143.717       41.471        0.083      341.819       16.797      860.720
04/15/2014  09:52:00       68.545       70.971      114.278      104.601      132.777      100.440    10941.348    17629.693    10088.230        3.072        1.933       98.667      115.908        1.380      341.830       16.813      860.703
04/15/2014  09:53:00       10.715      -16.454       42.566       45.581       90.668       47.287     2077.643     8220.775     2236.096        0.736        0.627       19.635       41.365        4.438      341.838       16.828      860.699
04/15/2014  09:54:00       42.378        6.004       64.133       79.197       76.715       57.796     6272.106     5885.232     3340.322        1.072        0.775       42.802       35.707        0.696      342.117       17.303      860.698
04/15/2014  09:55:00       96.215     -128.605        2.482       83.158       85.876       61.596     6915.202     7374.659     3794.055        2.194        0.904      160.613       64.184        0.160      341.778       16.724      860.694
04/15/2014  09:56:00       95.416     -132.122      -29.344       73.893       71.134       48.745     5460.147     5060.079     2376.094        2.016        0.645      162.973       45.214        0.077      341.738       16.657      860.691
04/15/2014  09:57:00       42.786      -99.999       -7.473       57.860       71.326       25.269     3347.820     5087.418      638.516        1.048        0.454      108.768       28.034        0.066      341.711       16.612      860.708
04/15/2014  09:58:00        5.283        4.875       34.652       21.197       19.235       15.294      449.330      369.978      233.901        0.115        0.053        7.188        3.890        0.293      342.382       17.754      860.718
04/15/2014  09:59:00       42.329       -3.319       33.587       39.008       50.887       31.931     1521.631     2589.525     1019.566        0.403        0.257       42.459       26.046        0.376      341.939       17.001      860.745
04/15/2014  10:00:00       40.543       13.983       27.184       38.729       23.724       21.255     1499.945      562.811      451.794        0.255        0.126       42.887        9.725        0.051      342.133       17.330      860.738
04/15/2014  10:01:00       51.997        2.776       21.024       73.013       54.415       33.183     5330.904     2960.992     1101.143        0.627        0.470       52.071       23.437        0.203      342.000       17.104      860.731
04/15/2014  10:02:00       26.476        5.942       17.575       80.112       45.887       40.789     6417.891     2105.659     1663.723        0.561        0.509       27.134       21.749        0.642      342.308       17.627      860.691
04/15/2014  10:03:00       15.696       72.794        9.893       49.217       41.429       42.896     2422.264     1716.396     1840.109        0.581        0.299       74.467       38.811        0.272      341.842       16.837      860.698
04/15/2014  10:04:00      -38.910       -6.995       11.872       32.837       31.227       23.527     1078.279      975.140      553.525        0.215        0.130       39.534       20.638        0.273      342.335       17.673      860.712
04/15/2014  10:05:00      -15.108      -10.013        9.617       18.721       19.666       21.196      350.475      386.746      449.257        0.080        0.059       18.125       13.543        0.558      342.421       17.818      860.745
04/15/2014  10:06:00       28.451      -12.280      -22.359       44.369       41.903       25.825     1968.573     1755.867      666.941        0.292        0.220       30.988       15.479        0.250      341.977       17.064      860.747
04/15/2014  10:07:00       -4.588      -16.989       33.922       46.711       75.599       44.217     2181.921     5715.211     1955.105        0.565        0.493       17.597       49.064        7.774      342.447       17.864      860.704
04/15/2014  10:08:00      -23.655       -2.119       75.047       49.210       74.756       49.942     2421.640     5588.490     2494.250        0.835        0.525       23.750       44.975        3.586      342.580       18.090      860.641
04/15/2014  10:09:00       40.333     -113.754        3.759       56.077       76.071       49.167     3144.593     5786.767     2417.346        1.296        0.567      120.692       43.570        0.130      342.410       17.797      860.699
04/15/2014  10:10:00      -58.003      -51.769       10.799       76.653       62.380       37.207     5875.649     3891.203     1384.360        0.865        0.558       77.746       39.465        0.258      342.563       18.061      860.756
04/15/2014  10:11:00      -45.117      -84.116        1.196       70.429       51.735       37.492     4960.202     2676.562     1405.621        0.908        0.452       95.452       37.642        0.156      342.348       17.695      860.764
04/15/2014  10:12:00      -35.183      -43.903       14.187       43.278       49.273       33.039     1873.021     2427.853     1091.558        0.438        0.270       56.261       24.607        0.191      342.332       17.667      860.756
04/15/2014  10:13:00       -6.605        9.256       37.479       34.799       29.882       30.399     1210.975      892.928      924.117        0.228        0.151       11.371       26.028        5.239      342.771       18.415      860.756
04/15/2014  10:14:00       24.756      -25.627       31.211       37.455       47.261       44.897     1402.854     2233.571     2015.780        0.395        0.283       35.632       35.656        1.001      342.269       17.561      860.791
04/15/2014  10:15:00       71.999      -80.203       46.579       86.230      149.517       81.329     7435.589    22355.231     6614.463        2.509        1.820      107.779      101.425        0.886      342.498       17.948      860.725
04/15/2014  10:16:00       28.152     -173.654       -8.674      105.101      114.540       60.184    11046.213    13119.401     3622.105        2.940        1.389      175.921       44.475        0.064      342.633       18.176      860.728
04/15/2014  10:17:00     -134.401     -103.479       17.925      148.324      118.356       75.646    21999.946    14008.148     5722.258        3.540        2.087      169.621       72.339        0.182      342.840       18.528      860.726
04/15/2014  10:18:00      -73.525       34.572      -23.325       86.105      102.782       47.916     7414.143    10564.133     2295.943        1.371        1.014       81.248       49.335        0.369      342.739       18.360      860.810
04/15/2014  10:19:00     -111.919      -66.187        8.168      124.354       73.550       47.634    15463.997     5409.599     2268.990        2.005        1.157      130.026       55.294        0.181      342.746       18.371      860.825
04/15/2014  10:20:00     -257.571      -70.602      -16.130       95.088       98.045       57.607     9041.650     9612.905     3318.551        4.678        1.099      267.071       46.735        0.031      342.442       17.852      860.777
04/15/2014  10:21:00     -410.327     -102.590       -7.060      177.434      101.689       59.289    31482.795    10340.564     3515.214       11.213        2.267      422.958       64.113        0.023      342.416       17.807      860.751
04/15/2014  10:22:00     -233.298      -94.862       -6.675      125.352       93.900       57.646    15713.060     8817.238     3323.059        4.566        1.393      251.847       65.344        0.067      342.631       18.173      860.748
04/15/2014  10:23:00      -69.257      -47.801       16.264      130.156       96.859       58.352    16940.493     9381.702     3404.998        1.853        1.486       84.151       54.664        0.422      342.944       18.706      860.785
04/15/2014  10:24:00     -113.515     -110.149       -0.592      146.162      100.844       40.469    21363.388    10169.582     1637.715        2.909        1.659      158.172       49.066        0.096      342.754       18.384      860.790
04/15/2014  10:25:00     -266.504     -173.615       -3.944      148.675      123.642       68.843    22104.328    15287.277     4739.405        7.165        2.107      318.067       52.694        0.027      342.495       17.940      860.733
04/15/2014  10:26:00     -160.557     -190.240       -4.100      129.711      113.097       63.274    16825.005    12790.835     4003.569        4.780        1.681      248.937       53.556        0.046      342.648       18.202      860.751
04/15/2014  10:27:00      -54.773     -250.033       15.310      126.573      134.932       62.266    16020.719    18206.776     3877.057        5.192        1.905      255.962       60.967        0.057      342.703       18.296      860.754
04/15/2014  10:28:00     -368.059     -219.744      -22.986      136.885      110.651       63.476    18737.636    12243.587     4029.235       10.964        1.751      428.666       52.953        0.015      342.470       17.898      860.690
04/15/2014  10:29:00     -105.160     -191.488      -16.798      146.526      106.461       63.451    21469.968    11334.025     4026.075        4.241        1.842      218.463       40.268        0.034      342.363       17.717      860.708
04/15/2014  10:30:00      -35.077      -40.352       26.288       99.877       71.412       61.582     9975.489     5099.686     3792.284        1.120        0.943       53.467       56.764        1.127      342.616       18.150      860.726
04/15/2014  10:31:00       -2.239      -29.009       25.849       85.823       63.076       66.219     7365.608     3978.626     4384.930        0.862        0.786       29.096       51.296        3.108      342.714       18.316      860.701
04/15/2014  10:32:00     -255.177     -106.831        0.737      186.196      123.049       61.502    34669.067    15141.151     3782.487        6.505        2.680      276.637       72.869        0.069      342.621       18.157      860.702
04/15/2014  10:33:00      -52.994     -147.685      -13.756       79.252       64.484       42.556     6280.917     4158.203     1811.028        1.853        0.613      156.905       28.342        0.033      342.614       18.147      860.727
04/15/2014  10:34:00     -179.025     -209.751       -6.496      163.620      109.063       66.995    26771.377    11894.656     4488.355        5.961        2.158      275.763       56.586        0.042      342.648       18.202      860.696
04/15/2014  10:35:00     -239.513     -178.004       -2.723      143.412      130.796       72.633    20567.028    17107.603     5275.538        6.600        2.148      298.416       69.816        0.055      342.719       18.322      860.628
04/15/2014  10:36:00     -218.829     -183.721       -3.218      160.683      147.943       73.669    25818.874    21887.160     5427.134        6.738        2.657      285.726       94.375        0.109      342.868       18.577      860.610
04/15/2014  10:37:00     -263.961     -230.126       -1.110      166.821      115.927       69.631    27829.174    13439.007     4848.545        8.437        2.306      350.190       89.565        0.065      342.583       18.092      860.618
04/15/2014  10:38:00     -298.175      -66.996       -3.246      130.890      131.318       63.726    17132.159    17244.439     4061.000        6.591        1.922      305.609       69.016        0.051      342.595       18.112      860.638
04/15/2014  10:39:00     -140.796     -118.738       12.380      139.450      148.136       61.416    19446.354    21944.189     3771.958        3.961        2.258      184.180       66.844        0.132      342.835       18.521      860.624
04/15/2014  10:40:00     -269.062     -214.376       -7.966      131.753      124.817       61.489    17358.796    15579.316     3780.900        7.756        1.836      344.022       51.882        0.023      342.724       18.331      860.600
04/15/2014  10:41:00     -185.067      -35.926      -10.792       82.149       91.604       40.882     6748.387     8391.351     1671.360        2.623        0.841      188.522       43.497        0.053      342.756       18.387      860.595
04/15/2014  10:42:00     -111.156     -114.704      -10.283       91.942      127.931       43.670     8453.383    16366.312     1907.103        2.617        1.336      159.727       43.570        0.074      342.725       18.333      860.591
04/15/2014  10:43:00     -114.973     -183.357        3.605       62.821       99.537       38.983     3946.433     9907.570     1519.673        3.111        0.769      216.423       31.456        0.021      342.606       18.130      860.577
04/15/2014  10:44:00     -132.431     -151.173       -7.533       90.500      112.637       47.767     8190.227    12687.167     2281.716        3.180        1.158      200.976       47.544        0.056      342.724       18.332      860.577
04/15/2014  10:45:00     -151.408      -51.628       -3.058      101.081      103.084       46.380    10217.397    10626.225     2151.112        2.429        1.150      159.968       50.763        0.101      342.926       18.675      860.543
04/15/2014  10:46:00     -147.490      -91.407       14.855      146.016      123.042       72.620    21320.620    15139.394     5273.632        3.602        2.087      173.518       80.987        0.218      343.107       18.984      860.560
04/15/2014  10:47:00     -348.838     -310.846       -7.679      228.826      175.887       89.424    52361.549    30936.278     7996.634       15.481        4.565      467.240       98.034        0.044      342.602       18.125      860.507
04/15/2014  10:48:00     -176.675     -100.657        8.553      161.388       95.670       66.087    26046.228     9152.737     4367.526        4.048        1.978      203.337       80.700        0.158      342.935       18.691      860.531
04/15/2014  10:49:00     -190.012      -93.085        5.150      143.699      113.161       54.671    20649.448    12805.504     2988.898        4.061        1.822      211.587       65.089        0.095      342.831       18.514      860.557
04/15/2014  10:50:00     -118.635      -77.687       14.722      174.959       99.722       72.727    30610.715     9944.467     5289.260        3.308        2.292      141.808       87.322        0.379      343.024       18.842      860.522
04/15/2014  10:51:00     -245.199       16.489       -4.438      199.744      153.167       67.968    39897.467    23460.023     4619.582        6.418        3.399      245.753       82.329        0.112      342.986       18.777      860.508
04/15/2014  10:52:00     -371.371       66.640      -34.676      132.304      102.218       60.494    17504.344    10448.431     3659.518        8.758        1.581      377.302       62.712        0.028      342.719       18.323      860.495
04/15/2014  10:53:00     -219.828       35.412      -28.809      135.095       59.743       39.331    18250.525     3569.237     1546.942        3.688        1.168      222.662       51.679        0.054      342.910       18.648      860.471
04/15/2014  10:54:00     -137.720     -147.656      -11.930       87.767      115.069       44.181     7703.098    13240.911     1951.917        3.190        1.145      201.914       40.893        0.041      343.067       18.916      860.501
04/15/2014  10:55:00     -143.874     -177.971        6.694      135.650      125.519       58.437    18400.965    15755.057     3414.909        4.499        1.879      228.852       53.595        0.055      343.165       19.080      860.516
04/15/2014  10:56:00     -153.375     -104.626        6.360      129.708       86.892       55.292    16824.041     7550.265     3057.206        3.097        1.372      185.663       50.134        0.073      343.175       19.100      860.514
04/15/2014  10:57:00      -69.494     -256.622      -12.143      104.234      149.817       57.229    10864.633    22445.048     3275.198        5.370        1.829      265.865       50.009        0.035      343.028       18.849      860.507
04/15/2014  10:58:00     -162.407     -280.545       -6.145      299.831      146.981       79.367    89898.645    21603.550     6299.130       11.144        5.890      324.163       74.165        0.052      343.166       19.082      860.454
04/15/2014  10:59:00     -454.275     -379.304       -7.503      249.780      185.519      114.240    62390.048    34417.385    13050.868       23.005        5.493      591.808      124.265        0.044      342.677       18.252      860.456
04/15/2014  11:00:00     -234.952     -123.373       12.027      158.655      106.328       63.016    25171.468    11305.732     3971.062        5.550        2.022      265.374       62.742        0.056      342.916       18.658      860.492
04/15/2014  11:01:00     -139.659     -122.804       29.694      168.853      119.196       66.070    28511.257    14207.739     4365.193        4.127        2.354      185.971       75.501        0.165      342.985       18.776      860.468
04/15/2014  11:02:00     -351.883      -73.610        8.020      240.026      140.004       81.651    57612.667    19601.171     6666.893       10.658        4.194      359.500       94.041        0.068      343.123       19.012      860.477
04/15/2014  11:03:00     -390.985     -270.185       -6.624      227.392      140.662      101.187    51707.052    19785.846    10238.724       15.381        4.087      475.257      110.191        0.054      342.992       18.788      860.491
04/15/2014  11:04:00     -361.055      -98.483      -10.968      178.773      118.800       78.468    31959.701    14113.348     6157.172        9.619        2.612      374.245       87.804        0.055      343.056       18.896      860.511
04/15/2014  11:05:00     -280.644     -105.104      -12.545      104.007       82.199       51.867    10817.434     6756.720     2690.146        5.511        1.013      299.680       51.885        0.030      343.184       19.112      860.504
04/15/2014  11:06:00     -128.450     -140.062       11.840      124.568      100.159       60.378    15517.212    10031.911     3645.544        3.272        1.460      190.044       70.080        0.136      343.391       19.468      860.494
04/15/2014  11:07:00     -157.879     -130.800       15.831      175.224      116.937       61.950    30703.364    13674.231     3837.749        4.524        2.411      205.023       56.416        0.076      343.366       19.427      860.489
04/15/2014  11:08:00     -289.992     -159.818       -7.558      181.094      136.051       80.165    32795.162    18509.948     6426.410        8.370        2.887      331.115       79.650        0.058      343.251       19.228      860.469
04/15/2014  11:09:00     -336.957     -227.549      -30.448      170.016      116.919       81.103    28905.292    13669.998     6577.699       10.769        2.458      406.594       88.194        0.047      343.245       19.218      860.466
04/15/2014  11:10:00     -226.335     -236.755       -5.509      152.011      120.233       69.047    23107.382    14455.877     4767.466        7.481        2.117      327.537       69.682        0.045      343.299       19.308      860.457
04/15/2014  11:11:00     -295.242     -205.718      -12.814      151.836      117.413       71.034    23054.195    13785.893     5045.863        8.576        2.094      359.844       77.649        0.047      343.332       19.365      860.436
04/15/2014  11:12:00     -395.789      -23.281       -6.105      142.733      133.532       71.128    20372.696    17830.895     5059.143       10.024        2.163      396.473       72.849        0.034      343.251       19.227      860.475
04/15/2014  11:13:00     -402.953      -51.039      -19.666      157.958      107.305       70.066    24950.678    11514.318     4909.287       10.336        2.069      406.173       77.510        0.036      343.149       19.054      860.407
04/15/2014  11:14:00     -102.547      -29.798       18.001      157.702       76.607       56.771    24869.773     5868.623     3222.913        2.284        1.698      106.788       73.380        0.472      343.703       20.002      860.398
04/15/2014  11:15:00     -218.026      -96.210      -20.973      144.304       67.308       51.688    20823.679     4530.400     2671.690        4.262        1.401      238.310       62.460        0.069      343.623       19.862      860.412
04/15/2014  11:16:00     -403.581     -178.762      -18.448      180.338      173.492       80.467    32521.852    30099.569     6475.007       13.212        3.455      441.400       75.910        0.030      343.282       19.281      860.403
04/15/2014  11:17:00     -427.360     -119.552      -18.352      203.626      138.046       84.845    41463.612    19056.613     7198.678       13.248        3.386      443.767       92.284        0.043      343.422       19.520      860.383
04/15/2014  11:18:00     -225.262      -76.075      -22.896      135.595       96.259       53.794    18386.124     9265.810     2893.764        4.379        1.527      237.761       58.875        0.061      343.421       19.517      860.398
04/15/2014  11:19:00     -433.726     -292.935      -13.487      218.484      146.689       93.590    47735.283    21517.632     8759.142       17.605        3.901      523.383      105.630        0.041      343.175       19.099      860.394
04/15/2014  11:20:00     -397.552     -279.038        8.954      252.574      147.213       98.879    63793.507    21671.524     9777.013       16.560        4.762      485.706      104.914        0.047      343.053       18.891      860.356
04/15/2014  11:21:00     -394.763     -157.344       -2.269      205.138      137.837       78.021    42081.793    18998.950     6087.326       12.387        3.358      424.964       93.440        0.048      343.263       19.247      860.379
04/15/2014  11:22:00     -273.174     -115.999       27.569      212.884      141.473       90.572    45319.722    20014.657     8203.264        8.117        3.677      296.783      115.818        0.152      343.357       19.408      860.365
04/15/2014  11:23:00     -292.464     -212.341       -8.403      162.104      102.326       72.029    26277.691    10470.588     5188.146        8.631        2.097      361.419       65.540        0.033      343.152       19.059      860.332
04/15/2014  11:24:00     -212.750     -146.889       -4.514       87.989       76.132       52.020     7742.135     5796.153     2706.132        4.155        0.812      258.532       39.135        0.023      343.151       19.057      860.300
04/15/2014  11:25:00     -111.545      -87.500       20.603      107.088       91.368       52.091    11467.820     8348.140     2713.479        2.152        1.126      141.769       63.514        0.201      343.578       19.787      860.284
04/15/2014  11:26:00     -321.949     -213.462       -7.594      158.307      118.943       74.915    25061.147    14147.414     5612.237        9.704        2.241      386.286       81.846        0.045      343.364       19.419      860.252
04/15/2014  11:27:00     -402.223     -153.076      -14.639      200.742      202.113       79.787    40297.156    40849.599     6365.895       13.645        4.376      430.367       81.213        0.036      343.261       19.244      860.234
04/15/2014  11:28:00     -417.539     -126.629      -14.651      229.364      166.167       72.180    52607.927    27611.355     5209.943       13.799        4.271      436.318       90.867        0.043      343.363       19.419      860.205
04/15/2014  11:29:00     -240.630      -40.477        4.474      147.570      102.375       59.302    21777.041    10480.693     3516.779        4.766        1.789      244.011       65.494        0.072      343.574       19.778      860.185
04/15/2014  11:30:00     -121.225     -126.164      -10.727       95.570       81.396       48.348     9133.580     6625.238     2337.508        2.441        0.905      174.965       34.131        0.038      343.591       19.807      860.178
04/15/2014  11:31:00     -210.887     -133.931        6.695      153.596       90.717       62.131    23591.661     8229.531     3860.306        4.906        1.784      249.821       65.258        0.068      343.674       19.949      860.144
04/15/2014  11:32:00     -230.342     -147.248        3.547      149.929      109.199       70.467    22478.572    11924.455     4965.544        5.705        1.968      273.385       76.620        0.079      343.508       19.666      860.075
04/15/2014  11:33:00     -213.602      -13.070       -5.004      133.301       75.400       54.776    17769.081     5685.143     3000.424        3.613        1.323      214.001       59.005        0.076      343.497       19.647      860.046
04/15/2014  11:34:00     -223.184       63.475      -24.560       47.406       35.194       25.351     2247.325     1238.621      642.681        2.929        0.206      232.035       19.481        0.007      343.075       18.928      860.046
04/15/2014  11:35:00     -411.048      -61.733      -21.800      156.199      180.012       60.338    24398.160    32404.220     3640.666       11.683        3.022      415.657       51.500        0.015      343.534       19.710      860.042
04/15/2014  11:36:00     -333.363     -169.686       -7.041      130.835      121.701       73.090    17117.814    14811.132     5342.160        8.862        1.864      374.065       67.040        0.032      343.537       19.715      860.016
04/15/2014  11:37:00     -237.960     -117.753      -14.992      182.005       95.224       64.855    33125.735     9067.531     4206.191        5.855        2.320      265.501       71.555        0.073      343.662       19.928      859.990
04/15/2014  11:38:00     -367.172     -186.315       -8.382      216.764      179.107      106.099    46986.827    32079.470    11256.912       12.994        4.516      411.739      115.762        0.079      343.464       19.589      859.976
04/15/2014  11:39:00     -393.694      -95.574       -0.890      173.688      120.588       67.865    30167.554    14541.558     4605.660       10.671        2.466      405.129       73.302        0.033      343.504       19.660      859.984
04/15/2014  11:40:00     -321.188     -107.145      -14.677      142.828      141.873       60.896    20399.775    20128.020     3708.337        7.954        2.212      338.588       69.699        0.042      343.437       19.546      859.953
04/15/2014  11:41:00     -215.207       -4.445        8.410      135.840       94.187       58.704    18452.580     8871.275     3446.106        3.858        1.538      215.252       61.919        0.083      343.675       19.953      859.912
04/15/2014  11:42:00     -335.260      -51.286      -20.106      161.141       93.582       62.037    25966.281     8757.625     3848.545        7.700        1.929      339.160       60.596        0.032      343.641       19.893      859.891
04/15/2014  11:43:00     -248.996      -14.667       -2.347      148.834       96.796       60.198    22151.601     9369.416     3623.788        4.868        1.757      249.427       73.785        0.088      343.963       20.442      859.872
04/15/2014  11:44:00     -200.214      -16.515      -15.313      126.438      101.309       49.680    15986.595    10263.613     2468.094        3.465        1.436      200.894       51.012        0.064      343.804       20.171      859.864
04/15/2014  11:45:00     -141.336     -157.913        2.316      147.372      133.679       58.667    21718.456    17869.995     3441.803        4.397        2.152      211.926       81.940        0.149      343.895       20.328      859.889
04/15/2014  11:46:00     -193.393     -295.940       14.353      179.673      121.861       83.489    32282.291    14850.010     6970.487        8.963        2.705      353.527       84.966        0.058      343.601       19.824      859.848
04/15/2014  11:47:00     -153.280     -303.435       -6.551      143.785      135.347       78.868    20674.230    18318.718     6220.087        8.040        2.261      339.953       74.939        0.049      343.738       20.058      859.866
04/15/2014  11:48:00     -244.857     -173.068       14.929      210.484      165.414       99.720    44303.659    27361.704     9944.080        8.585        4.080      299.846      107.194        0.128      343.980       20.470      859.893
04/15/2014  11:49:00     -295.231     -234.340       26.549      189.775      163.831       92.871    36014.619    26840.612     8624.996       10.712        3.574      376.930      105.801        0.079      343.673       19.946      859.929
04/15/2014  11:50:00     -298.101     -170.329        4.644      175.464       94.562       68.877    30787.676     8941.955     4743.990        8.118        2.224      343.331       81.605        0.056      343.590       19.806      859.922
04/15/2014  11:51:00     -255.260     -121.212      -16.053      121.586      111.953       57.411    14783.261    12533.447     3296.020        5.535        1.531      282.578       48.346        0.029      343.860       20.266      859.897
04/15/2014  11:52:00     -366.110     -213.520      -33.961      162.060      151.403       77.904    26263.544    22922.961     6069.105       11.801        2.763      423.825       74.781        0.031      343.896       20.326      859.868
04/15/2014  11:53:00     -249.102     -197.546        8.742      172.833      204.612       93.856    29871.391    41866.150     8808.986        9.083        4.027      317.924       93.449        0.086      344.010       20.522      859.859
04/15/2014  11:54:00     -387.791     -152.650       -1.364      184.191      140.960       86.014    33926.372    19869.803     7398.335       11.743        3.060      416.754       72.596        0.030      343.932       20.388      859.866
04/15/2014  11:55:00     -446.392      -43.058      -18.307      255.944      168.827       96.977    65507.380    28502.482     9404.448       15.241        5.171      448.464      113.965        0.065      344.002       20.507      859.910
04/15/2014  11:56:00     -499.064      -76.673      -54.480      143.053      166.476       78.564    20464.223    27714.197     6172.261       15.612        2.718      504.920       58.992        0.014      343.828       20.211      859.978
04/15/2014  11:57:00     -117.117      160.459      -32.370       63.722      124.001       52.874     4060.512    15376.140     2795.646        3.137        1.112      198.654       50.523        0.065      344.048       20.589      859.979
04/15/2014  11:58:00     -122.995      104.643        7.888      131.900      146.559       89.791    17397.542    21479.503     8062.474        3.653        2.347      161.486       97.342        0.363      344.518       21.393      859.978
04/15/2014  11:59:00     -280.123      305.835      -62.053      123.651      185.648       79.962    15289.602    34465.051     6393.884       11.599        2.807      414.734       78.675        0.036      344.101       20.678      860.017
04/15/2014  12:00:00     -166.785       81.538       -5.849      144.777      100.556       64.982    20960.463    10111.512     4222.678        3.489        1.765      185.650       74.127        0.159      343.958       20.434      860.042
04/15/2014  12:01:00      -97.978      -20.962       11.938      107.310      119.403       51.562    11515.433    14257.097     2658.600        1.930        1.422      100.196       37.762        0.142      344.117       20.708      859.994
04/15/2014  12:02:00     -159.293      -44.995        5.714       92.633       69.390       38.431     8580.902     4814.907     1476.914        2.115        0.744      165.526       45.894        0.077      344.264       20.958      859.957
04/15/2014  12:03:00       -7.572       45.656       -5.900       84.208      123.460       41.951     7091.028    15242.440     1759.859        1.313        1.205       46.280       48.622        1.104      344.423       21.232      859.942
04/15/2014  12:04:00       60.240       69.480       28.132       75.235       90.381       69.354     5660.296     8168.695     4809.954        1.394        0.932       91.958       39.282        0.182      344.056       20.603      859.799
04/15/2014  12:05:00      259.403      113.629       89.330      144.276      167.051      123.782    20815.467    27906.059    15321.959        7.610        3.202      283.199       69.232        0.060      344.161       20.780      859.533
04/15/2014  12:06:00     -139.700     -201.161       -1.125      281.981      180.299       87.591    79513.378    32507.720     7672.230        8.981        5.985      244.912      108.017        0.195      344.395       21.180      859.588
04/15/2014  12:07:00     -328.207     -246.979      -25.145      166.903      115.596       71.738    27856.491    13362.413     5146.320       10.785        2.318      410.754       64.670        0.025      343.980       20.469      859.719
04/15/2014  12:08:00     -130.492     -148.463        4.000      110.446      109.289       58.006    12198.231    11944.039     3364.654        3.329        1.375      197.660       48.909        0.061      344.140       20.746      859.760
04/15/2014  12:09:00     -343.057     -252.041       13.051      273.183      192.732      108.564    74629.039    37145.790    11786.078       15.245        6.178      425.691      103.377        0.059      344.148       20.759      859.672
04/15/2014  12:10:00     -400.133     -120.434       -9.139      173.679      157.069       79.507    30164.470    24670.683     6321.397       11.791        3.058      417.864       84.671        0.041      344.092       20.663      859.721
04/15/2014  12:11:00      -99.488     -153.892       15.410      140.507      158.698       81.549    19742.081    25184.935     6650.320        4.269        2.579      183.250       90.338        0.243      344.259       20.949      859.720
04/15/2014  12:12:00     -140.391      -65.403       -5.750       63.028       58.825       34.218     3972.494     3460.437     1170.846        1.631        0.430      154.878       22.493        0.021      344.337       21.083      859.698
04/15/2014  12:13:00     -304.311     -175.129      -25.001      125.206      120.882       70.011    15676.473    14612.488     4901.477        7.954        1.760      351.106       62.149        0.031      344.089       20.656      859.681
04/15/2014  12:14:00     -428.931     -114.013       -6.714      210.547      139.273       66.319    44330.008    19396.862     4398.258       13.256        3.406      443.825       77.095        0.030      343.998       20.503      859.633
04/15/2014  12:15:00     -366.325     -150.514      -17.247      168.746      128.179       69.708    28475.074    16429.892     4859.246       10.345        2.488      396.041       67.849        0.029      344.127       20.723      859.599
04/15/2014  12:16:00     -330.350       -2.216      -10.921      202.648      113.989       70.528    41066.167    12993.558     4974.199        8.413        2.952      330.357       92.544        0.078      344.462       21.297      859.538
04/15/2014  12:17:00     -280.076     -102.051        7.309      211.563      169.383       82.311    44758.972    28690.495     6775.108        8.455        4.011      298.089       88.117        0.087      344.527       21.405      859.543
04/15/2014  12:18:00     -278.391     -113.453      -12.199      147.114      160.724       86.457    21642.467    25832.071     7474.733        7.272        2.747      300.621       85.833        0.082      344.314       21.042      859.573
04/15/2014  12:19:00     -409.061     -126.320      -14.610      144.759      101.316       60.889    20955.299    10264.943     3707.526       10.921        1.746      428.121       65.647        0.024      344.185       20.820      859.567
04/15/2014  12:20:00     -440.692     -239.085       -6.806      188.536      159.628       90.862    35545.889    25481.016     8255.813       16.034        3.464      501.369       98.856        0.039      344.445       21.266      859.532
04/15/2014  12:21:00     -312.923     -177.597        0.622      195.425      178.418       91.930    38191.100    31832.953     8451.093       10.395        3.924      359.807      101.277        0.079      344.208       20.862      859.580
04/15/2014  12:22:00     -357.469     -134.224      -22.098      192.987      152.463       82.025    37243.899    23244.924     6728.024       10.674        3.361      381.838       89.225        0.055      344.132       20.731      859.605
04/15/2014  12:23:00     -208.459     -158.657       -3.607      163.370      124.456       70.667    26689.861    15489.280     4993.794        5.790        2.359      261.968       88.368        0.114      344.096       20.671      859.596
04/15/2014  12:24:00     -161.915       16.826        4.229      115.306       91.351       51.365    13295.547     8344.979     2638.349        2.539        1.214      162.787       46.586        0.082      344.275       20.976      859.542
04/15/2014  12:25:00      -36.642     -143.897       19.276       91.190      126.202       46.437     8315.626    15927.051     2156.414        2.440        1.320      148.489       48.358        0.106      344.181       20.815      859.524
04/15/2014  12:26:00     -380.783     -100.548        3.483      237.820      132.572       64.791    56558.209    17575.329     4197.864       11.671        3.917      393.835       77.741        0.039      344.112       20.696      859.502
04/15/2014  12:27:00     -449.451     -158.990      -10.176      145.429      105.659       64.949    21149.634    11163.837     4218.324       13.195        1.827      476.744       76.385        0.026      343.811       20.182      859.511
04/15/2014  12:28:00     -242.219      -38.574      -26.804      103.223       67.101       38.201    10654.910     4502.604     1459.292        3.874        0.831      245.271       31.201        0.016      343.641       19.893      859.544
04/15/2014  12:29:00     -464.535      -77.783      -28.550      155.365      142.406       65.578    24138.216    20279.365     4300.491       13.568        2.436      471.002       51.059        0.012      344.050       20.589      859.501
04/15/2014  12:30:00     -444.373     -165.647      -24.364      140.414       80.541       51.017    19715.987     6486.810     2602.760       12.715        1.440      474.243       48.109        0.010      343.859       20.265      859.534
04/15/2014  12:31:00     -303.855        7.277      -18.397      112.815      109.239       52.070    12727.191    11933.203     2711.256        6.004        1.369      303.942       54.377        0.032      344.233       20.904      859.527
04/15/2014  12:32:00     -381.853       53.310      -50.707      123.023      127.634       52.010    15134.684    16290.446     2705.009        9.267        1.707      385.557       43.916        0.013      343.832       20.218      859.540
04/15/2014  12:33:00     -100.858      -18.771       -2.631      122.664      103.365       41.586    15046.349    10684.251     1729.414        1.899        1.373      102.590       37.440        0.133      344.369       21.138      859.544
04/15/2014  12:34:00      -87.751     -122.619       -3.102      115.553       84.652       59.272    13352.596     7166.013     3513.222        2.338        1.202      150.784       47.797        0.100      344.348       21.101      859.534
04/15/2014  12:35:00     -182.440     -164.783        2.629      128.263       78.377       56.458    16451.387     6142.992     3187.465        4.311        1.289      245.841       57.562        0.055      344.012       20.526      859.472
04/15/2014  12:36:00     -116.089     -236.135       -1.969       89.532      108.734       46.073     8015.982    11823.105     2122.705        4.560        1.098      263.128       28.496        0.012      344.072       20.628      859.466
04/15/2014  12:37:00     -165.309     -141.249        3.548      131.531      128.906       66.099    17300.355    16616.846     4369.044        4.278        1.914      217.436       61.848        0.081      344.367       21.132      859.431
04/15/2014  12:38:00      -95.862     -108.938        1.973      103.859      123.605       57.185    10786.746    15278.290     3270.123        2.519        1.467      145.110       49.972        0.119      344.466       21.305      859.379
04/15/2014  12:39:00     -233.756     -195.190       -8.849      124.961      115.948       57.064    15615.217    13444.000     3256.349        6.256        1.616      304.534       65.343        0.046      344.289       20.999      859.344
04/15/2014  12:40:00     -202.363     -122.658        5.778      120.680       98.307       57.446    14563.753     9664.232     3300.091        4.177        1.376      236.634       72.536        0.094      344.546       21.438      859.336
04/15/2014  12:41:00     -219.589      -64.161      -10.059      159.949       69.112       59.580    25583.661     4776.439     3549.790        4.317        1.695      228.771       72.968        0.102      344.474       21.316      859.389
04/15/2014  12:42:00     -284.029      -82.743       -8.943      185.250      164.347       79.654    34317.743    27010.036     6344.723        7.762        3.384      295.836       99.445        0.113      344.582       21.501      859.308
04/15/2014  12:43:00     -279.274      -58.452       -6.063      171.116      117.556       60.581    29280.829    13819.311     3670.077        6.410        2.339      285.326       67.291        0.056      344.656       21.626      859.343
04/15/2014  12:44:00     -328.279      -33.370      -22.529      131.303      159.867       72.987    17240.529    25557.402     5327.106        7.875        2.406      329.970       83.759        0.064      344.263       20.955      859.353
04/15/2014  12:45:00     -274.479      -78.647      -19.185      165.006       85.479       54.515    27227.045     7306.652     2971.937        5.969        1.875      285.524       62.468        0.048      344.345       21.096      859.333
04/15/2014  12:46:00     -248.390      110.204      -24.014      141.711      120.282       67.765    20082.125    14467.706     4592.042        5.677        1.957      271.740       72.623        0.071      344.736       21.763      859.322
04/15/2014  12:47:00     -214.440     -109.631      -14.057      130.593       96.713       59.430    17054.547     9353.367     3531.984        4.406        1.497      240.839       55.248        0.053      344.941       22.114      859.275
04/15/2014  12:48:00     -212.610      -48.626      -35.768      139.893      177.541       60.128    19569.943    31520.771     3615.333        5.177        2.735      218.100       57.340        0.069      345.059       22.316      859.256
04/15/2014  12:49:00     -430.494      -99.435      -19.346      207.010      140.952       81.125    42853.122    19867.450     6581.268       13.243        3.465      441.828       80.121        0.033      344.715       21.727      859.271
04/15/2014  12:50:00     -245.201       17.542        0.888      149.327      122.190       64.132    22298.627    14930.376     4112.894        5.088        2.067      245.828       78.199        0.101      344.919       22.076      859.302
04/15/2014  12:51:00     -199.874      -57.526        8.598      143.355       88.023       53.186    20550.726     7748.087     2828.702        3.722        1.556      207.988       51.384        0.061      344.938       22.111      859.292
04/15/2014  12:52:00     -159.742      -26.909       -0.704      177.321      133.127       52.639    31442.740    17722.861     2770.823        3.908        2.597      161.993       36.500        0.051      345.222       22.596      859.286
04/15/2014  12:53:00     -325.897       29.316      -11.120      284.637      213.406      104.455    81018.137    45542.218    10910.842       12.230        6.874      327.213      126.618        0.150      344.376       21.149      859.250
04/15/2014  12:54:00     -175.718       55.670      -33.562      111.944      132.837       71.643    12531.536    17645.753     5132.680        3.520        1.765      184.326       69.256        0.141      344.528       21.409      859.260
04/15/2014  12:55:00     -162.760      180.446      -44.056      103.086      123.134       73.062    10626.638    15161.911     5338.075        4.605        1.556      243.005       68.183        0.079      344.509       21.375      859.262
04/15/2014  12:56:00     -126.200      207.064      -12.442       98.784      153.468       58.282     9758.205    23552.309     3396.821        4.782        1.835      242.491       45.440        0.035      344.318       21.049      859.237
04/15/2014  12:57:00     -169.409       66.582      -14.186      141.559       96.352       69.717    20038.906     9283.743     4860.496        3.375        1.709      182.023       79.531        0.191      344.695       21.695      859.168
04/15/2014  12:58:00     -100.532       42.543       22.169      114.037      101.460       77.642    13004.493    10294.158     6028.279        2.086        1.466      109.163       72.822        0.445      345.152       22.478      859.135
04/15/2014  12:59:00     -467.727       -8.625      -29.206      257.306      176.457       94.119    66206.300    31137.193     8858.396       16.293        5.310      467.807      108.732        0.054      344.694       21.692      859.138
04/15/2014  13:00:00     -368.996     -257.042      -20.916      170.222      145.213       89.626    28975.525    21086.934     8032.738       13.037        2.905      449.699       86.651        0.037      344.097       20.672      859.160
04/15/2014  13:01:00     -327.963     -215.428       -2.140      173.279      163.689       85.621    30025.658    26794.226     7330.960       10.905        3.208      392.389       90.261        0.053      344.484       21.333      859.157
04/15/2014  13:02:00     -202.802     -136.245       19.117      246.862      167.273       86.990    60940.806    27980.319     7567.211        7.825        4.824      244.318      121.639        0.248      344.572       21.484      859.182
04/15/2014  13:03:00     -236.387     -136.131       -7.290      148.800      109.252       63.540    22141.430    11935.929     4037.393        5.628        1.906      272.783       54.747        0.040      344.290       21.000      859.187
04/15/2014  13:04:00     -145.036      129.382      -17.624      188.437       87.736       62.536    35508.391     7697.686     3910.696        4.259        2.356      194.358       68.965        0.126      344.813       21.896      859.196
04/15/2014  13:05:00     -213.319      -72.713       -0.066      114.001       97.139       57.817    12996.340     9436.011     3342.786        3.828        1.289      225.371       47.088        0.044      344.823       21.911      859.226
04/15/2014  13:06:00     -261.638     -130.190       10.349      172.381      149.963       64.901    29715.320    22488.948     4212.177        7.095        2.821      292.239       74.676        0.065      344.441       21.258      859.209
04/15/2014  13:07:00     -225.299     -103.799       15.610      227.247      128.958       64.570    51641.416    16630.092     4169.282        6.709        3.622      248.060       79.714        0.103      344.830       21.926      859.181
04/15/2014  13:08:00     -529.857     -141.352      -24.095      309.470      148.206       84.664    95771.646    21964.886     7168.025       21.308        6.245      548.388      123.730        0.051      344.506       21.371      859.191
04/15/2014  13:09:00     -490.942      -19.498      -37.564      169.159      142.787       80.997    28614.598    20388.131     6560.587       14.918        2.778      491.329       79.742        0.026      344.475       21.317      859.194
04/15/2014  13:10:00     -358.868     -184.854      -12.585      239.420      157.904       91.956    57321.737    24933.638     8455.825       12.690        4.536      403.680      104.239        0.067      344.536       21.422      859.148
04/15/2014  13:11:00      -80.156      -82.410       19.405      180.282       99.821       52.213    32501.743     9964.265     2726.204        2.938        2.260      114.963       53.839        0.219      344.844       21.949      859.135
04/15/2014  13:12:00     -388.212      -98.624        5.298      264.036      182.296      100.823    69714.805    33231.826    10165.349       13.677        5.656      400.544      138.030        0.119      344.490       21.344      859.189
04/15/2014  13:13:00     -275.281      -12.553        8.929      279.332      125.608       81.829    78026.099    15777.276     6695.991        8.824        5.025      275.567      119.950        0.189      344.497       21.355      859.208
04/15/2014  13:14:00     -245.041       22.244       -6.518      198.016      129.311       61.620    39210.448    16721.346     3796.989        6.014        2.986      246.048       86.019        0.122      344.329       21.070      859.214
04/15/2014  13:15:00     -274.911      -52.694      -30.162      187.539      113.235       55.942    35170.821    12822.123     3129.533        6.518        2.556      279.915       74.452        0.071      344.292       21.004      859.231
04/15/2014  13:16:00     -142.368      -33.232        8.366      158.846      105.573       66.608    25232.021    11145.557     4436.591        3.112        2.041      146.196       74.515        0.260      344.626       21.576      859.210
04/15/2014  13:17:00     -128.435      -42.496        6.502      102.398       71.603       50.486    10485.379     5127.055     2548.883        1.825        0.908      135.283       47.808        0.125      344.648       21.614      859.205
04/15/2014  13:18:00     -180.781      -15.527        2.302      166.619       94.867       61.606    27762.013     8999.655     3795.289        3.673        2.028      181.447       63.166        0.121      344.606       21.543      859.180
04/15/2014  13:19:00     -413.542     -206.833       -5.829      204.659      153.148       75.154    41885.427    23454.198     5648.105       14.239        3.549      462.382       68.956        0.022      344.194       20.837      859.170
04/15/2014  13:20:00     -310.489     -160.762       -0.805      195.305      149.966       81.704    38144.014    22489.695     6675.520        9.477        3.365      349.640       86.281        0.061      344.259       20.946      859.177
04/15/2014  13:21:00     -268.123     -142.677        6.634      200.636      157.620      105.733    40254.811    24844.204    11179.468        8.427        3.814      303.722      110.933        0.133      344.306       21.029      859.160
04/15/2014  13:22:00     -143.966     -118.428       10.269      185.441      117.366       82.578    34388.461    13774.775     6819.058        4.491        2.749      186.417       90.001        0.233      344.746       21.780      859.138
04/15/2014  13:23:00      -31.122      -24.498       36.269      104.228      125.446       78.307    10863.446    15736.595     6132.047        1.780        1.637       39.607       72.527        3.353      345.012       22.238      859.131
04/15/2014  13:24:00      -19.673      116.161       -3.857       56.087       63.113       47.271     3145.769     3983.238     2234.526        1.163        0.468      117.816       35.196        0.089      345.021       22.255      859.103
04/15/2014  13:25:00       -2.462       50.844       24.665       82.248      133.616       59.645     6764.765    17853.124     3557.480        1.568        1.409       50.903       41.372        0.661      345.175       22.517      859.064
04/15/2014  13:26:00     -222.015      -92.342        2.698      167.390      124.344       76.299    28019.367    15461.349     5821.469        5.355        2.465      240.453       87.112        0.131      344.794       21.862      859.039
04/15/2014  13:27:00     -269.304      -57.427      -14.520      148.302      128.118       66.788    21993.422    16414.278     4460.619        5.944        2.143      275.359       69.560        0.064      344.675       21.661      859.010
04/15/2014  13:28:00     -367.291     -223.146      -17.298      190.308      204.916       87.569    36217.061    41990.724     7668.257       13.542        4.294      429.764       94.126        0.048      344.469       21.308      858.970
04/15/2014  13:29:00     -294.081      -99.423      -26.450      166.349      138.206       49.468    27671.874    19100.923     2447.097        7.313        2.461      310.433       64.660        0.043      344.363       21.127      858.899
04/15/2014  13:30:00     -215.126       91.320      -31.265      118.602      164.083       66.609    14066.360    26923.074     4436.742        5.050        2.271      233.706       66.900        0.082      344.900       22.043      859.017
04/15/2014  13:31:00     -325.802       -5.524      -42.382      140.090      119.687       74.162    19625.236    14324.982     5500.036        7.370        1.973      325.849       70.727        0.047      344.602       21.534      859.022
04/15/2014  13:32:00     -295.435       58.727      -30.971      128.651       72.218       57.850    16551.046     5215.428     3346.605        5.840        1.256      301.215       61.718        0.042      344.554       21.451      858.996
04/15/2014  13:33:00     -219.731      -49.741       -2.049      173.500      152.573       90.031    30102.153    23278.438     8105.592        5.611        3.074      225.290       81.933        0.132      344.821       21.908      858.993
04/15/2014  13:34:00     -437.945       31.257      -35.096      153.354      129.034       63.295    23517.350    16649.698     4006.252       11.908        2.209      439.059       61.083        0.019      344.282       20.986      859.017
04/15/2014  13:35:00     -363.699       43.342      -33.644      183.100      135.395       62.231    33525.559    18331.926     3872.710        9.550        2.787      366.273       72.789        0.039      344.291       21.002      858.984
04/15/2014  13:36:00     -328.788      -40.082      -11.487      218.751      121.508       76.404    47852.052    14764.260     5837.618        8.913        3.423      331.222       94.216        0.081      344.705       21.710      859.021
04/15/2014  13:37:00     -193.694      -31.936       -6.786      106.287      103.195       55.766    11296.981    10649.189     3109.817        3.181        1.253      196.310       44.629        0.052      344.864       21.983      859.038
04/15/2014  13:38:00     -340.616      -83.116        3.257      164.200      143.576       77.875    26961.762    20614.082     6064.561        8.828        2.682      350.610       53.537        0.023      344.798       21.871      859.050
04/15/2014  13:39:00     -479.169      -34.403      -18.441      221.783      154.371       90.444    49187.581    23830.541     8180.136       15.615        4.060      480.402      111.473        0.054      344.398       21.187      859.051
04/15/2014  13:40:00     -320.559      -74.193       -8.366      175.046      154.235       69.307    30641.241    23788.535     4803.504        8.377        2.962      329.033       78.417        0.057      344.324       21.059      858.990
04/15/2014  13:41:00     -291.238      -17.863      -17.544      125.631      110.645       58.618    15783.123    12242.286     3436.094        5.845        1.573      291.786       54.242        0.035      344.504       21.366      859.001
04/15/2014  13:42:00     -250.938       -2.151      -15.899      126.243      143.561       61.571    15937.233    20609.642     3790.999        5.177        2.017      250.948       60.255        0.058      344.506       21.369      859.012
04/15/2014  13:43:00     -231.287      -95.793        1.131      162.080      127.597       69.524    26269.815    16280.923     4833.645        5.502        2.369      250.339       57.890        0.053      344.752       21.790      858.985
04/15/2014  13:44:00     -260.006       27.780      -30.353      106.459      136.122       90.895    11333.561    18529.280     8261.823        5.370        1.906      261.486       51.431        0.039      344.680       21.666      859.053
04/15/2014  13:45:00     -269.884       12.260      -33.055      156.826      124.076       63.256    24594.362    15394.872     4001.297        5.903        2.200      270.163       59.193        0.048      344.480       21.327      859.041
04/15/2014  13:46:00     -149.511      -64.924       -3.355      143.554       74.445       58.673    20607.811     5542.079     3442.500        2.808        1.480      162.999       74.349        0.208      344.710       21.720      859.000
04/15/2014  13:47:00     -132.178      -61.102       18.697      114.648       61.364       47.387    13144.122     3765.486     2245.516        2.035        0.958      145.618       51.590        0.126      344.816       21.903      859.007
04/15/2014  13:48:00     -191.532      -20.674        9.611      185.035      135.080       71.334    34238.102    18246.521     5088.511        4.738        2.879      192.644       87.510        0.206      344.803       21.878      858.983
04/15/2014  13:49:00     -192.209       12.212       -2.652      178.053      106.313       78.711    31702.711    11302.505     6195.397        4.314        2.460      192.597       93.498        0.236      344.596       21.525      858.917
04/15/2014  13:50:00     -167.870      -45.715       -4.271      188.679      113.520       73.314    35599.908    12886.814     5374.960        4.206        2.693      173.983       82.795        0.226      344.883       22.016      858.898
04/15/2014  13:51:00     -254.474      -47.063      -43.297      141.738       83.394       52.659    20089.661     6954.604     2772.973        4.933        1.491      258.789       27.327        0.011      344.576       21.491      858.865
04/15/2014  13:52:00     -289.942     -211.042       16.351      249.711      214.126      101.852    62355.490    45849.987    10373.856       12.370        5.929      358.615      110.894        0.096      344.637       21.594      858.864
04/15/2014  13:53:00     -323.012     -201.637       29.040      261.624      200.154      118.527    68447.224    40061.726    14048.697       13.417        6.128      380.781      141.922        0.139      344.659       21.631      858.820
04/15/2014  13:54:00     -341.696     -122.742       -8.405      254.672      159.798       84.472    64857.820    25535.474     7135.520       11.469        4.876      363.072      103.325        0.081      344.870       21.992      858.880
04/15/2014  13:55:00     -296.660     -179.107        7.308      212.361      150.357      105.019    45097.031    22607.195    11028.944        9.942        3.937      346.535      109.118        0.099      344.483       21.330      858.924
04/15/2014  13:56:00     -297.590      -84.031      -25.206      180.571      117.376       69.497    32605.936    13777.096     4829.895        7.372        2.561      309.227       64.745        0.044      344.489       21.341      858.933
04/15/2014  13:57:00     -262.981       10.594      -14.691      110.372      106.331       56.397    12181.973    11306.179     3180.619        4.807        1.333      263.194       56.364        0.046      344.435       21.248      858.935
04/15/2014  13:58:00     -336.844      -68.502      -13.324      167.857      133.258       79.221    28175.849    17757.774     6276.022        8.526        2.610      343.739       77.147        0.050      344.550       21.444      858.908
04/15/2014  13:59:00     -191.278      -92.843       22.452      178.046      144.316       90.292    31700.462    20827.035     8152.659        5.318        3.034      212.620       82.902        0.152      344.698       21.701      858.924
04/15/2014  14:00:00     -267.009     -174.496       12.088      216.682      141.426       86.645    46951.249    20001.316     7507.303        8.816        3.723      318.971      112.321        0.124      344.373       21.143      858.907
04/15/2014  14:01:00     -247.839     -152.196       11.776      153.705      101.995       64.033    23625.323    10402.958     4100.222        6.142        1.906      290.840       69.973        0.058      344.332       21.072      858.945
04/15/2014  14:02:00     -128.066     -270.135       -1.793      143.388      127.192       79.874    20560.173    16177.890     6379.874        6.624        2.156      298.954       68.830        0.053      344.257       20.943      858.928
04/15/2014  14:03:00     -274.288     -146.199        7.119      143.921      107.168       68.568    20713.258    11484.921     4701.607        6.677        1.845      310.819       72.834        0.055      344.654       21.620      858.915
04/15/2014  14:04:00     -351.712     -223.045        0.817      228.431      152.754       95.926    52180.759    23333.860     9201.736       12.907        4.236      416.474      116.055        0.078      344.499       21.358      858.924
04/15/2014  14:05:00     -325.170     -131.012       -1.467      204.647      161.509       79.898    41880.260    26085.261     6383.747        9.861        3.717      350.571       82.442        0.055      344.437       21.252      858.908
04/15/2014  14:06:00      -93.349      -98.780       11.820      132.253      133.440       78.673    17490.811    17806.176     6189.456        3.004        2.074      135.910       79.309        0.341      344.804       21.882      858.913
04/15/2014  14:07:00     -296.142      -76.841      -17.468      190.765      102.248       58.416    36391.474    10454.708     3412.446        7.207        2.513      305.948       75.994        0.062      344.564       21.469      858.910
04/15/2014  14:08:00     -548.751      -93.134      -29.490      170.846      107.943       82.500    29188.457    11651.732     6806.279       17.915        2.382      556.599       89.285        0.026      344.399       21.187      858.907
04/15/2014  14:09:00     -477.358      -74.322      -22.765      196.676      132.187       89.229    38681.522    17473.494     7961.812       14.900        3.206      483.109      105.750        0.048      344.610       21.547      858.944
04/15/2014  14:10:00     -200.953     -172.711        6.946      155.605      131.618       93.922    24213.028    17323.254     8821.280        6.030        2.518      264.974       82.866        0.098      344.508       21.372      858.934
04/15/2014  14:11:00     -374.115     -178.911       -4.045      192.655      155.893       84.113    37115.936    24302.633     7075.000       12.023        3.425      414.694       84.865        0.042      344.286       20.993      858.892
04/15/2014  14:12:00     -328.437     -166.655        4.744      154.485      147.358       70.008    23865.520    21714.259     4901.136        9.306        2.524      368.300       74.845        0.041      344.554       21.451      858.863
04/15/2014  14:13:00     -320.812     -127.220      -10.996      180.576      138.910       67.902    32607.797    19295.977     4610.641        8.786        2.826      345.117       82.595        0.057      344.531       21.415      858.843
04/15/2014  14:14:00     -313.104       32.208      -17.525      194.512      164.664       79.384    37834.799    27114.138     6301.758        8.530        3.563      314.757       92.459        0.086      344.855       21.966      858.863
04/15/2014  14:15:00     -406.866      -84.224      -29.063      235.547      228.884       93.266    55482.485    52387.808     8698.602       14.500        5.828      415.492      104.099        0.063      344.607       21.542      858.867
04/15/2014  14:16:00     -521.532      -90.160      -34.527      199.278      177.228       86.700    39711.614    31409.792     7516.893       17.996        3.932      529.267       98.058        0.034      344.374       21.145      858.866
04/15/2014  14:17:00     -497.966     -172.622      -10.348      212.100      183.099       91.346    44986.382    33525.211     8344.051       18.235        4.343      527.037       93.974        0.032      344.455       21.284      858.861
04/15/2014  14:18:00     -331.218       -6.967      -20.811      173.013      173.716       71.485    29933.527    30177.308     5110.117        8.769        3.261      331.292       88.062        0.071      344.841       21.943      858.875
04/15/2014  14:19:00     -388.514      -42.328      -43.793      211.779      164.884      112.842    44850.452    27186.671    12733.421       11.969        4.239      390.813      113.836        0.085      344.713       21.724      858.864
04/15/2014  14:20:00     -446.560      -44.999      -28.900      205.590      170.238       88.922    42267.071    28981.117     7907.140       14.070        3.958      448.822       87.996        0.038      344.461       21.293      858.881
04/15/2014  14:21:00     -204.253      -29.501      -20.749      152.499      116.791       87.094    23255.887    13640.246     7585.315        4.374        2.224      206.372       94.688        0.211      344.773       21.827      858.853
04/15/2014  14:22:00     -261.214      -46.470      -17.941      272.953      146.864       80.418    74503.572    21569.139     6467.014        8.661        5.127      265.315       97.142        0.134      344.925       22.088      858.835
04/15/2014  14:23:00     -724.931     -145.395      -75.832      215.994      189.429      102.136    46653.567    35883.236    10431.830       32.267        4.648      739.367      115.373        0.024      344.362       21.123      858.848
04/15/2014  14:24:00     -645.700     -179.479      -47.159      147.813      168.782       84.450    21848.583    28487.335     7131.810       25.440        2.873      670.180       57.001        0.007      344.419       21.221      858.898
04/15/2014  14:25:00     -414.938      -79.375      -38.342      161.883      135.551       62.302    26205.984    18374.005     3881.495       11.419        2.423      422.461       63.483        0.023      344.167       20.789      858.951
04/15/2014  14:26:00     -308.838      -23.712      -24.119      172.060      147.883       60.184    29604.550    21869.435     3622.139        7.580        2.755      309.746       67.724        0.048      344.448       21.270      858.897
04/15/2014  14:27:00     -376.931       71.521      -32.136      181.180      134.966       85.769    32826.040    18215.945     7356.371       10.330        2.920      383.657       98.359        0.066      344.389       21.170      858.872
04/15/2014  14:28:00     -215.730      -50.955      -20.404       93.470      109.658       46.275     8736.627    12024.966     2141.380        3.622        1.145      221.666       42.787        0.037      344.533       21.416      858.827
04/15/2014  14:29:00     -298.344     -267.837        4.575      208.254      134.436       89.891    43369.593    18072.920     8080.304       11.513        3.476      400.931      102.519        0.065      344.274       20.973      858.789
04/15/2014  14:30:00     -199.349     -177.514       -0.204      136.563      133.986       71.782    18649.362    17952.157     5152.651        5.649        2.088      266.929       78.757        0.087      344.327       21.063      858.779
04/15/2014  14:31:00      -77.056       39.819        8.630       80.719      134.132       57.364     6515.591    17991.267     3290.617        1.769        1.390       86.736       52.844        0.371      344.872       21.999      858.777
04/15/2014  14:32:00     -129.570       24.316       -8.266      113.106      127.334       68.953    12793.079    16213.924     4754.546        2.560        1.688      131.831       73.867        0.314      344.760       21.807      858.760
04/15/2014  14:33:00     -219.376      -39.903       -1.011      242.180      266.379       92.271    58651.143    70957.772     8513.885        9.389        6.906      222.975       87.994        0.156      344.832       21.927      858.650
04/15/2014  14:34:00     -168.454      291.690      -35.012       96.298      169.268       59.905     9273.251    28651.513     3588.652        7.809        2.076      336.838       65.846        0.038      344.685       21.676      858.786
04/15/2014  14:35:00     -265.487      -44.598      -18.166      154.196      128.275       70.774    23776.401    16454.432     5008.891        5.901        2.262      269.207       63.791        0.056      344.873       21.997      858.736
04/15/2014  14:36:00     -132.866        2.070       -9.555      133.846      127.240       79.678    17914.878    16190.037     6348.630        2.909        2.023      132.882       83.634        0.396      344.952       22.133      858.755
04/15/2014  14:37:00     -119.006       97.886      -11.809      119.266      144.072       67.935    14224.490    20756.777     4615.203        3.173        1.980      154.091       61.192        0.158      344.718       21.733      858.758
04/15/2014  14:38:00     -230.436       58.611      -24.464      101.874      170.933       70.050    10378.305    29218.022     4907.052        5.081        2.225      237.773       59.610        0.063      344.712       21.722      858.703
04/15/2014  14:39:00     -257.478      -78.049       -8.252      194.001      103.538       64.647    37636.575    10720.185     4179.170        6.248        2.627      269.048       73.648        0.075      345.100       22.385      858.687
04/15/2014  14:40:00     -336.954      -38.902      -17.785      184.481      143.105       67.832    34033.177    20479.023     4601.180        8.723        2.956      339.192       81.122        0.057      344.971       22.167      858.694
04/15/2014  14:41:00     -226.455      -43.641       -7.614      168.195      117.407       69.723    28289.724    13784.456     4861.344        5.008        2.347      230.622       79.879        0.120      345.053       22.307      858.714
04/15/2014  14:42:00     -280.444      163.845      -54.693      202.416      148.485       87.634    40972.085    22047.787     7679.804        8.958        3.535      324.799       59.158        0.033      344.906       22.054      858.670
04/15/2014  14:43:00     -255.197     -129.898       15.216      201.101      127.598       95.455    40441.669    16281.237     9111.706        7.402        3.292      286.354      105.190        0.135      344.924       22.086      858.621
04/15/2014  14:44:00     -265.917      -17.341      -11.111      215.615      164.624       78.151    46489.860    27101.085     6107.595        7.540        3.985      266.482       90.067        0.114      344.814       21.896      858.676
04/15/2014  14:45:00     -493.205     -105.043      -16.061      177.028      144.420       78.621    31339.058    20857.039     6181.194       15.645        2.919      504.267       85.018        0.028      344.481       21.328      858.668
04/15/2014  14:46:00     -299.018      -21.348      -10.165      137.736      135.800       70.563    18971.070    18441.751     4979.085        6.617        2.120      299.779       70.064        0.055      344.421       21.225      858.667
04/15/2014  14:47:00     -217.747       59.980      -29.279      107.129       75.590       53.190    11476.588     5713.919     2829.140        3.594        1.001      225.857       53.517        0.056      344.463       21.297      858.684
04/15/2014  14:48:00     -135.110       90.512      -15.444       85.470      116.933       55.645     7305.129    13673.321     3096.357        2.538        1.204      162.625       51.449        0.100      344.911       22.064      858.650
04/15/2014  14:49:00     -124.688       27.271       -6.729      127.614      143.331       74.955    16285.267    20543.724     5618.269        2.938        2.122      127.635       55.690        0.190      345.023       22.255      858.653
04/15/2014  14:50:00     -149.481      174.317      -12.605      129.089      173.149       61.763    16664.036    29980.663     3814.725        5.166        2.523      229.632       62.300        0.074      344.858       21.972      858.589
04/15/2014  14:51:00     -330.568      220.885      -69.717      163.406      136.331       92.196    26701.549    18586.216     8500.127       10.835        2.689      397.574       74.621        0.035      344.584       21.503      858.630
04/15/2014  14:52:00     -355.173      -48.769      -29.735      215.337      221.149      103.918    46370.115    48907.014    10798.955       11.772        5.304      358.506       79.976        0.050      344.733       21.760      858.600
04/15/2014  14:53:00     -367.570      -99.677      -17.658      147.449      115.227       63.848    21741.120    13277.294     4076.597        9.222        1.955      380.846       49.423        0.017      345.102       22.389      858.605
04/15/2014  14:54:00     -500.347     -206.982      -26.465      173.261      160.359       89.471    30019.398    25715.014     8005.076       17.880        3.187      541.469       83.368        0.024      344.825       21.915      858.615
04/15/2014  14:55:00     -200.291      -37.382      -33.725      110.885       84.295       47.863    12295.511     7105.566     2290.864        3.217        1.085      203.749       37.582        0.034      344.912       22.065      858.621
04/15/2014  14:56:00     -419.956     -123.611      -14.181      270.614      127.291       80.188    73231.746    16203.001     6430.088       14.383        4.793      437.770      114.127        0.068      344.886       22.020      858.606
04/15/2014  14:57:00     -283.378      -74.264       -9.054      197.855      103.406       64.878    39146.539    10692.815     4209.202        6.996        2.702      292.947       87.634        0.089      344.820       21.908      858.645
04/15/2014  14:58:00     -161.723      -69.161        4.086      165.570      117.514       80.719    27413.353    13809.492     6515.551        3.934        2.387      175.891       87.302        0.246      345.050       22.302      858.626
04/15/2014  14:59:00     -126.397      -50.763        7.267      133.455      137.381       65.078    17810.134    18873.552     4235.149        2.975        2.046      136.210       58.131        0.182      345.165       22.498      858.620
04/15/2014  15:00:00     -343.754       69.930      -38.417      134.088      152.150       71.257    17979.577    23149.766     5077.504        8.536        2.310      350.795       55.618        0.025      344.890       22.027      858.613
04/15/2014  15:01:00     -230.258     -108.711        7.117      209.391      112.352       77.408    43844.434    12623.041     5992.073        6.366        3.123      254.631       80.694        0.100      345.052       22.305      858.600
04/15/2014  15:02:00     -232.712      -86.358       18.497      231.447      142.453       77.486    53567.611    20292.986     6004.082        7.089        3.993      248.219       99.143        0.160      345.019       22.249      858.564
04/15/2014  15:03:00     -558.697       -1.652      -40.965      154.917      200.989       83.005    23999.198    40396.550     6889.804       19.254        3.564      558.700       75.141        0.018      344.493       21.348      858.573
04/15/2014  15:04:00     -294.233      -70.710       -9.779      189.931      158.681       83.607    36073.922    25179.537     6990.101        7.994        3.412      302.610       84.201        0.077      344.677       21.662      858.560
04/15/2014  15:05:00     -235.969       37.914       -5.591      137.393       90.203       58.597    18876.828     8136.584     3433.665        4.379        1.522      238.995       66.042        0.076      344.776       21.831      858.551
04/15/2014  15:06:00     -196.024       50.221       -6.178      175.203       87.258       62.040    30696.048     7613.936     3848.923        4.156        2.108      202.356       79.304        0.154      345.055       22.311      858.535
04/15/2014  15:07:00     -227.834      -94.082       26.931      243.267      162.519       94.130    59178.656    26412.487     8860.535        7.795        4.723      246.495      115.413        0.219      344.698       21.699      858.492
04/15/2014  15:08:00     -480.510      -23.375      -42.954      218.912      167.153       84.012    47922.303    27940.179     7058.036       15.808        4.146      481.078       95.254        0.039      344.424       21.229      858.472
04/15/2014  15:09:00     -443.850      -99.709       -6.648      176.022      156.572       83.467    30983.569    24514.778     6966.665       13.471        3.123      454.912       82.771        0.033      344.523       21.398      858.420
04/15/2014  15:10:00     -561.372       -8.871      -56.811      310.521      173.726       87.002    96423.280    30180.705     7569.417       22.628        6.709      561.442      117.173        0.044      344.603       21.534      858.422
04/15/2014  15:11:00     -545.556     -125.575      -49.221      122.627      149.800       68.473    15037.461    22439.931     4688.515       17.899        2.108      559.822       43.307        0.006      344.539       21.427      858.417
04/15/2014  15:12:00     -260.688      -38.070      -11.058      169.326       82.479       60.076    28671.446     6802.783     3609.107        5.430        1.954      263.453       76.729        0.085      344.515       21.386      858.378
04/15/2014  15:13:00     -331.599     -253.322      -10.968      171.309      129.667       76.530    29346.768    16813.594     5856.818       11.312        2.601      417.289       74.874        0.032      344.278       20.980      858.364
04/15/2014  15:14:00     -255.756     -165.532        6.758      157.641      124.858       79.091    24850.667    15589.588     6255.363        6.977        2.335      304.651       83.010        0.074      344.409       21.204      858.343
04/15/2014  15:15:00     -371.197      -65.620      -17.194      173.676      133.658       68.402    30163.442    17864.576     4678.834        9.754        2.635      376.952       65.281        0.030      344.457       21.286      858.321
04/15/2014  15:16:00     -416.522     -103.538      -14.312      174.587      158.550       89.493    30480.603    25138.171     8009.055       12.401        3.181      429.198       85.238        0.039      344.739       21.766      858.315
04/15/2014  15:17:00     -320.283        3.662      -28.151      179.632      124.618       80.127    32267.492    15529.749     6420.302        7.879        2.711      320.304       90.215        0.079      345.013       22.236      858.349
04/15/2014  15:18:00     -258.191     -175.846        2.742      218.816      160.173       80.295    47880.539    25655.254     6447.284        8.877        3.999      312.385       90.049        0.083      344.744       21.777      858.336
04/15/2014  15:19:00     -300.083     -209.449      -10.097      173.539      115.573       69.226    30115.906    13357.008     4792.282        9.113        2.413      365.949       59.476        0.026      344.394       21.178      858.365
04/15/2014  15:20:00     -248.600      -98.470       -0.437      128.086      105.324       73.471    16406.102    11093.134     5397.967        5.219        1.645      267.391       72.695        0.074      344.495       21.350      858.352
04/15/2014  15:21:00     -178.628      -56.528        1.284      106.980      142.318       70.191    11444.759    20254.456     4926.808        3.586        1.831      187.359       74.429        0.158      344.571       21.483      858.335
04/15/2014  15:22:00     -192.445      -32.186        1.168      124.271       99.929       56.238    15443.248     9985.802     3162.667        3.333        1.430      195.118       56.526        0.084      344.875       22.001      858.363
04/15/2014  15:23:00     -179.820      -38.873       20.332      185.667      127.597       71.978    34472.403    16280.921     5180.766        4.509        2.797      183.973       92.333        0.252      345.063       22.325      858.393
04/15/2014  15:24:00     -306.660     -229.678      -11.886      218.452      145.814       98.068    47721.488    21261.778     9617.243       11.275        3.930      383.135      114.379        0.089      344.377       21.150      858.370
04/15/2014  15:25:00     -359.192     -264.746        2.715      220.304      155.042       97.390    48533.913    24037.922     9484.786       14.057        4.103      446.217      119.719        0.072      344.439       21.255      858.334
04/15/2014  15:26:00     -222.511     -116.071       16.935      225.261      147.322       98.462    50742.578    21703.819     9694.672        7.269        4.107      250.965      117.809        0.220      344.769       21.819      858.381
04/15/2014  15:27:00     -408.400      -35.784      -21.697      174.891      122.155       78.314    30586.978    14921.819     6133.043       11.008        2.582      409.965       93.150        0.052      344.700       21.702      858.403
04/15/2014  15:28:00     -293.512     -180.215        5.880      195.744      207.533       89.023    38315.890    43070.079     7925.039       10.397        4.466      344.422       94.507        0.075      344.743       21.775      858.358
04/15/2014  15:29:00     -172.219      -61.900        4.080      124.385      106.239       59.183    15471.651    11286.756     3502.588        3.188        1.513      183.006       63.610        0.121      344.780       21.839      858.385
04/15/2014  15:30:00     -176.674      -21.250       -1.495      161.892       96.352       56.203    26209.071     9283.631     3158.760        3.515        1.933      177.947       76.814        0.186      344.804       21.881      858.389
04/15/2014  15:31:00      -37.217      -38.724        8.331       75.997       64.209       37.499     5775.482     4122.800     1406.161        0.713        0.565       53.709       35.174        0.429      345.124       22.430      858.379
04/15/2014  15:32:00      -78.268      -40.195       10.953       80.595       87.235       56.515     6495.597     7609.866     3193.950        1.258        0.865       87.986       62.864        0.510      345.296       22.725      858.377
04/15/2014  15:33:00     -107.489     -101.614        1.173      112.566      100.493       47.431    12671.027    10098.805     2249.736        2.345        1.251      147.916       45.055        0.093      345.049       22.301      858.376
04/15/2014  15:34:00     -150.592       30.922       -2.923      116.028       61.683       41.703    13462.447     3804.772     1739.151        2.132        0.950      153.734       59.327        0.149      345.208       22.571      858.343
04/15/2014  15:35:00     -137.758      -69.224       -0.251       88.226       65.504       30.136     7783.807     4290.795      908.167        1.837        0.649      154.173       36.904        0.057      345.058       22.316      858.337
04/15/2014  15:36:00     -117.130      -15.028        4.559       79.648       44.514       36.240     6343.825     1981.509     1313.372        1.180        0.482      118.090       41.275        0.122      344.779       21.840      858.287
04/15/2014  15:37:00     -277.588      -31.151       -8.017      241.631      112.514       51.449    58385.623    12659.327     2647.027        7.588        3.685      279.331       57.176        0.042      345.115       22.414      858.263
04/15/2014  15:38:00     -468.074     -188.000       -3.596      207.986      124.120       63.889    43258.335    15405.781     4081.759       15.859        3.137      504.418       65.623        0.017      344.180       20.812      858.275
04/15/2014  15:39:00     -128.016      -90.627       14.591      124.730      127.605       80.579    15557.580    16283.056     6493.006        3.157        1.917      156.848       70.770        0.204      344.773       21.827      858.299
04/15/2014  15:40:00     -355.995     -197.168      -32.091      220.460      156.349       81.311    48602.550    24445.029     6611.509       12.313        3.983      406.949       98.002        0.058      344.499       21.358      858.288
04/15/2014  15:41:00     -307.135     -141.561      -12.589      222.941      154.019       88.327    49702.609    23721.781     7801.664        9.786        4.061      338.188       86.352        0.065      344.553       21.450      858.264
04/15/2014  15:42:00     -187.886     -144.171       24.289      228.715      153.411      103.208    52310.628    23534.895    10651.883        7.157        4.325      236.826      125.104        0.279      344.613       21.552      858.253
04/15/2014  15:43:00     -263.715     -197.077       10.176      243.740      205.389       91.539    59409.286    42184.478     8379.334       10.921        5.499      329.219      117.362        0.127      344.596       21.525      858.279
04/15/2014  15:44:00     -330.454     -286.078       -7.101      190.147      192.194      118.690    36156.007    36938.618    14087.410       13.912        4.359      437.082      117.504        0.072      344.403       21.194      858.224
04/15/2014  15:45:00     -217.940     -161.182        0.952      218.798      138.135       96.892    47872.538    19081.310     9388.134        7.489        3.817      271.067      118.071        0.190      344.396       21.183      858.239
04/15/2014  15:46:00     -369.612     -115.781      -32.976      133.570      130.292       62.750    17840.866    16976.066     3937.587        9.492        1.938      387.322       62.637        0.026      344.579       21.494      858.236
04/15/2014  15:47:00     -579.129     -196.701      -23.255      261.794      202.602       95.004    68536.202    41047.614     9025.703       24.659        5.930      611.622      114.982        0.035      344.495       21.351      858.239
04/15/2014  15:48:00     -428.900     -116.659      -13.719      243.744      138.711       89.598    59410.996    19240.623     8027.837       14.220        4.334      444.482      119.727        0.073      344.823       21.912      858.253
04/15/2014  15:49:00     -224.491      -51.007       -2.518      171.266      125.632       77.294    29332.050    15783.473     5974.346        5.204        2.554      230.213       84.315        0.134      345.141       22.458      858.288
04/15/2014  15:50:00     -148.134      -17.217       27.667      188.374      147.365       89.102    35484.870    21716.437     7939.128        4.406        3.257      149.131      100.262        0.452      345.111       22.406      858.275
04/15/2014  15:51:00     -488.356     -123.293      -30.035      183.497      168.680       83.761    33671.171    28453.056     7015.866       16.185        3.457      503.679       87.700        0.030      344.590       21.514      858.238
04/15/2014  15:52:00     -436.106      -40.598      -25.988      206.755      140.432       84.819    42747.635    19721.175     7194.304       13.107        3.483      437.991       94.207        0.046      344.636       21.590      858.234
04/15/2014  15:53:00     -422.344      -28.075       -2.500      284.373      119.058       94.990    80867.883    14174.765     9023.093       14.160        5.203      423.276      121.185        0.082      344.749       21.786      858.210
04/15/2014  15:54:00     -501.241       24.825      -31.227      193.265      152.353       79.546    37351.450    23211.547     6327.566       15.985        3.345      501.855       82.893        0.027      344.520       21.391      858.232
04/15/2014  15:55:00     -196.352      -16.922       -5.279      192.348      174.164       87.485    36997.655    30332.975     7653.650        5.691        3.749      197.080       54.293        0.076      344.804       21.879      858.220
04/15/2014  15:56:00     -193.145     -102.942       -1.047      192.795      115.459       64.644    37170.035    13330.689     4178.911        5.128        2.734      218.865       66.511        0.092      344.929       22.094      858.234
04/15/2014  15:57:00      -49.851       40.458       37.589      151.199       87.344       68.231    22861.187     7628.975     4655.438        2.033        1.757       64.202       76.747        1.429      345.072       22.341      858.235
04/15/2014  15:58:00     -242.340      -35.297        6.260      146.046      106.500       57.291    21329.302    11342.238     3282.310        4.798        1.798      244.897       61.118        0.062      344.852       21.962      858.234
04/15/2014  15:59:00     -576.748        1.005      -68.635      186.354      153.976       69.944    34727.884    23708.624     4892.165       20.033        3.166      576.748       74.404        0.017      344.380       21.155      858.201
04/15/2014  16:00:00     -243.949      -32.771       15.237      218.469      164.862       73.041    47728.671    27179.346     5334.972        7.051        4.012      246.140       76.168        0.096      344.878       22.007      858.197
04/15/2014  16:01:00     -341.706     -108.788      -11.464      179.679      204.116       82.815    32284.614    41663.313     6858.284       10.475        4.040      358.605       82.457        0.053      344.818       21.904      858.162
04/15/2014  16:02:00     -466.990      -20.299      -37.076      184.480      203.668       74.708    34032.988    41480.712     5581.272       15.046        4.055      467.431       55.487        0.014      344.594       21.520      858.205
04/15/2014  16:03:00     -435.199      -95.211      -11.999      227.124      162.851       86.559    51585.303    26520.375     7492.481       14.209        4.280      445.492      100.441        0.051      344.594       21.520      858.187
04/15/2014  16:04:00     -349.597      -34.986       11.446      188.930      127.763       83.207    35694.714    16323.447     6923.457        9.125        2.947      351.344       99.947        0.081      344.668       21.647      858.175
04/15/2014  16:05:00     -417.926      -90.296      -25.095      162.714      142.215       71.711    26475.916    20225.100     5142.420       11.763        2.592      427.569       83.202        0.038      344.566       21.471      858.180
04/15/2014  16:06:00     -298.288      -82.746       -8.723      172.425      156.648       79.403    29730.239    24538.713     6304.776        7.822        3.029      309.553       90.202        0.085      344.766       21.814      858.183
04/15/2014  16:07:00     -260.353      -59.335      -32.195      131.117      120.270       67.901    17191.623    14464.928     4610.546        5.430        1.813      267.029       61.906        0.054      344.831       21.925      858.164
04/15/2014  16:08:00     -240.494     -102.522       -3.323      119.162      104.993       61.184    14199.642    11023.611     3743.501        4.866        1.448      261.435       56.559        0.047      344.528       21.407      858.118
04/15/2014  16:09:00     -230.401      -21.876      -10.884      202.423       99.916       70.390    40975.216     9983.171     4954.810        5.479        2.796      231.437       98.907        0.183      344.926       22.089      858.115
04/15/2014  16:10:00     -362.819     -100.352      -28.199      197.038      181.729       90.061    38824.108    33025.423     8110.940       11.122        3.998      376.442      106.480        0.080      344.602       21.534      858.094
04/15/2014  16:11:00     -254.720        3.568       -6.866      181.766      133.994       66.193    33038.741    17954.423     4381.520        6.015        2.769      254.745       70.551        0.077      344.898       22.040      858.093
04/15/2014  16:12:00     -184.441      -74.817       -2.407      112.713       88.060       55.165    12704.198     7754.560     3043.139        3.156        1.175      199.038       54.841        0.076      344.982       22.183      858.121
04/15/2014  16:13:00     -239.259       22.949      -22.212      130.405      110.926       53.326    17005.546    12304.653     2843.616        4.520        1.608      240.357       48.751        0.041      344.824       21.914      858.119
04/15/2014  16:14:00     -286.493       23.227      -18.952      226.499      142.902       69.172    51302.021    20420.884     4784.743        7.973        3.825      287.433      106.684        0.138      344.855       21.968      858.086
04/15/2014  16:15:00     -234.402       -7.887      -22.361      102.690       81.946       49.667    10545.224     6715.209     2466.836        3.761        0.986      234.535       39.732        0.029      344.659       21.632      858.087
04/15/2014  16:16:00     -163.270      -18.892       11.677      143.560      109.791       51.175    20609.571    12054.002     2618.871        3.121        1.764      164.359       55.601        0.114      344.787       21.852      858.084
04/15/2014  16:17:00     -319.010      -56.154      -25.715      159.388       98.224       44.630    25404.496     9647.889     1991.795        7.131        1.852      323.914       42.680        0.017      344.690       21.685      858.073
04/15/2014  16:18:00     -574.302     -200.349      -14.595      199.323      157.667       96.562    39729.526    24858.750     9324.309       22.203        3.696      608.246      103.886        0.029      344.551       21.447      858.063
04/15/2014  16:19:00     -357.320     -108.729      -22.770      163.619      159.220       71.861    26771.144    25351.119     5164.040        9.864        2.864      373.497       53.614        0.021      344.699       21.699      858.057
04/15/2014  16:20:00     -241.186      -13.173      -17.314      162.467      150.560       86.602    26395.567    22668.403     7499.946        5.759        2.828      241.546       78.259        0.105      344.769       21.819      858.063
04/15/2014  16:21:00     -439.893      -63.013      -44.858      143.071      153.470       80.598    20469.178    23552.891     6496.112       12.499        2.526      444.383       66.287        0.022      344.676       21.662      858.007
04/15/2014  16:22:00     -112.938       59.014        8.928      116.295      108.988       63.332    13524.619    11878.414     4010.908        2.286        1.471      127.427       61.050        0.230      344.977       22.178      858.030
04/15/2014  16:23:00     -234.291      -97.279      -13.015      125.645       96.597       55.551    15786.761     9331.051     3085.963        4.636        1.410      253.684       47.309        0.035      344.952       22.132      858.040
04/15/2014  16:24:00     -193.943      -96.260       -2.061      120.194       96.401       56.380    14446.599     9293.060     3178.667        3.690        1.346      216.517       48.282        0.050      345.102       22.390      858.049
04/15/2014  16:25:00     -263.634     -119.837        2.294      243.085      148.107       82.717    59090.215    21935.796     6842.059        8.585        4.393      289.592      101.803        0.124      344.850       21.961      858.056
04/15/2014  16:26:00     -217.766       61.060      -21.386      151.475      120.730       59.325    22944.810    14575.630     3519.411        4.632        2.052      226.164       62.232        0.076      344.856       21.970      858.063
04/15/2014  16:27:00     -166.589       29.424      -12.354      119.643      119.198       50.980    14314.405    14208.163     2598.955        2.994        1.556      169.168       33.720        0.040      345.072       22.338      858.093
04/15/2014  16:28:00     -303.148       -8.467      -17.199      204.075       97.194       54.643    41646.457     9446.605     2985.842        7.316        2.704      303.266       60.214        0.039      344.732       21.757      858.129
04/15/2014  16:29:00     -224.214       44.548       14.061      157.188      172.035       72.942    24708.082    29595.900     5320.487        5.603        2.981      228.597       63.676        0.078      344.654       21.622      858.087
04/15/2014  16:30:00      -43.834       74.362       14.064      108.605      110.938       52.335    11794.981    12307.306     2738.969        1.724        1.342       86.319       38.217        0.196      344.911       22.065      858.047
04/15/2014  16:31:00     -149.250       39.504      -13.293      112.173      125.220       53.598    12582.740    15679.987     2872.743        2.757        1.557      154.390       59.049        0.146      344.924       22.087      858.075
04/15/2014  16:32:00     -110.616      133.378        4.346      102.218      112.834       70.326    10448.570    12731.498     4945.678        2.908        1.406      173.279       65.456        0.143      344.807       21.885      858.060
04/15/2014  16:33:00     -232.784       22.342      -21.122      121.072      112.351       48.806    14658.533    12622.686     2382.073        4.239        1.483      233.854       47.914        0.042      344.829       21.922      858.047
04/15/2014  16:34:00     -230.040      -10.447       -2.945      204.870      128.892       79.783    41971.722    16613.143     6365.374        5.898        3.248      230.278       88.373        0.147      344.754       21.795      858.000
04/15/2014  16:35:00     -275.874      -23.670      -26.706      132.407      117.139       58.017    17531.640    13721.612     3365.925        5.599        1.731      276.887       65.377        0.056      344.603       21.538      857.985
04/15/2014  16:36:00     -290.937       78.047      -44.356      109.842      103.990       59.745    12065.300    10813.957     3569.414        5.957        1.322      301.224       40.804        0.018      344.598       21.526      857.946
04/15/2014  16:37:00     -140.367       55.068      -23.205      124.961      155.102       70.301    15615.237    24056.556     4942.260        3.394        2.231      150.782       68.322        0.205      344.802       21.877      857.944
04/15/2014  16:38:00     -248.529      281.437      -44.572      141.346      200.565       78.714    19978.783    40226.333     6195.963       10.467        3.320      375.465       89.445        0.057      344.496       21.353      857.969
04/15/2014  16:39:00     -273.159       79.158      -17.756      192.067      208.699       84.781    36889.653    43555.361     7187.735        8.440        4.382      284.397       77.950        0.075      344.507       21.373      857.927
04/15/2014  16:40:00     -176.521      -22.066       -4.332      120.972      132.595       61.614    14634.202    17581.380     3796.235        3.383        1.801      177.894       67.295        0.143      344.850       21.960      857.887
04/15/2014  16:41:00     -350.282      -63.131      -57.290      151.558      164.473       71.294    22969.748    27051.206     5082.899        9.252        2.755      355.926       49.958        0.020      344.849       21.957      857.885
04/15/2014  16:42:00     -221.518       59.842       -0.896      189.152      123.914       89.578    35778.625    15354.574     8024.287        5.589        2.958      229.459      113.449        0.244      344.793       21.862      857.922
04/15/2014  16:43:00     -376.842       66.272      -49.901      236.476      145.420       84.069    55920.872    21147.104     7067.644       11.650        4.207      382.625      107.965        0.080      344.648       21.614      857.935
04/15/2014  16:44:00     -275.977      151.254      -31.579      126.773      110.854       69.374    16071.431    12288.580     4812.741        6.660        1.659      314.708       67.166        0.046      344.548       21.440      857.942
04/15/2014  16:45:00     -201.178      -48.014      -15.018      100.181       99.631       53.865    10036.204     9926.338     2901.434        3.293        1.143      206.829       47.474        0.053      344.960       22.146      857.945
04/15/2014  16:46:00     -413.140       49.541      -37.095      122.112       91.731       56.480    14911.301     8414.526     3189.941       10.051        1.326      416.099       50.380        0.015      344.520       21.393      857.945
04/15/2014  16:47:00     -346.304      -94.228      -30.378      115.332      102.987       54.411    13301.363    10606.291     2960.521        7.829        1.343      358.894       57.241        0.025      344.569       21.478      857.931
04/15/2014  16:48:00     -247.920      -89.075       -7.819      144.345      101.489       53.833    20835.431    10300.029     2897.996        5.174        1.702      263.436       63.849        0.059      344.631       21.584      857.926
04/15/2014  16:49:00     -120.807       23.430       -1.683       88.614       56.384       49.123     7852.371     3179.161     2413.105        1.429        0.672      123.058       52.565        0.182      344.940       22.114      857.954
04/15/2014  16:50:00     -437.241      -88.885      -28.501      147.674      125.586       80.887    21807.752    15771.787     6542.779       12.200        2.206      446.184       74.336        0.028      344.751       21.790      857.947
04/15/2014  16:51:00     -457.333     -102.575      -36.634      196.147      163.705       81.488    38473.641    26799.325     6640.321       14.645        3.596      468.695       92.550        0.039      344.449       21.273      857.959
04/15/2014  16:52:00     -495.698      -63.355      -40.916      200.249      142.188       78.690    40099.711    20217.298     6192.113       15.894        3.325      499.730       88.705        0.032      344.339       21.085      857.953
04/15/2014  16:53:00     -272.117      -80.554       -6.211      220.822      112.766       62.613    48762.229    12716.168     3920.447        7.297        3.270      283.790       88.566        0.097      344.573       21.484      857.951
04/15/2014  16:54:00     -176.970      -76.521       15.624      168.464      104.415       65.249    28380.270    10902.544     4257.403        4.047        2.177      192.806       83.737        0.189      344.747       21.783      857.965
04/15/2014  16:55:00     -107.784      -14.446        9.971      108.240       94.280       51.088    11715.878     8888.740     2609.982        1.757        1.161      108.748       59.818        0.303      345.046       22.295      857.985
04/15/2014  16:56:00     -243.385      -69.306       -2.185      153.048      142.740       65.617    23423.551    20374.773     4305.587        5.606        2.405      253.060       55.675        0.048      344.657       21.628      857.994
04/15/2014  16:57:00     -198.023      -34.126      -12.772      110.116      159.989       58.124    12125.466    25596.459     3378.372        4.081        2.055      200.942       43.114        0.046      344.607       21.543      857.978
04/15/2014  16:58:00     -303.202     -104.199      -22.585       67.718       74.956       46.530     4585.765     5618.349     2165.085        5.783        0.618      320.607       30.465        0.009      344.323       21.056      857.970
04/15/2014  16:59:00     -269.600     -103.906       -3.653      106.880       53.640       44.024    11423.379     2877.263     1938.147        4.986        0.812      288.930       48.184        0.028      344.281       20.984      857.951
04/15/2014  17:00:00     -261.019      -18.564      -19.661       98.654       69.953       46.935     9732.547     4893.369     2202.907        4.284        0.841      261.678       31.353        0.014      344.400       21.189      857.926
04/15/2014  17:01:00     -172.921      -95.358        1.595       88.963       81.052       38.638     7914.441     6569.485     1492.868        2.748        0.799      197.471       35.964        0.033      344.613       21.555      857.911
04/15/2014  17:02:00     -158.582      -22.254        9.582      105.971       83.765       50.935    11229.838     7016.632     2594.394        2.328        1.042      160.136       62.593        0.153      344.672       21.655      857.909
04/15/2014  17:03:00     -174.819     -102.634       -3.478      106.693       79.346       45.172    11383.416     6295.736     2040.487        3.041        0.986      202.720       51.119        0.064      344.650       21.617      857.889
04/15/2014  17:04:00     -178.987      -64.494      -13.171      123.017       83.366       56.221    15133.126     6949.951     3160.746        3.080        1.262      190.252       64.061        0.113      344.671       21.653      857.887
04/15/2014  17:05:00     -237.786     -145.673        1.131      154.240      107.089       63.408    23790.087    11468.077     4020.554        5.851        1.964      278.860       79.089        0.080      344.542       21.432      857.881
04/15/2014  17:06:00     -178.616      -25.596      -13.085      115.495       76.698       39.769    13339.090     5882.637     1581.546        2.676        1.040      180.441       36.211        0.040      344.385       21.165      857.910
04/15/2014  17:07:00     -160.141      223.349      -36.684       81.900      115.794       53.276     6707.651    13408.165     2838.301        4.991        1.148      274.827       48.639        0.031      344.323       21.057      857.927
04/15/2014  17:08:00      -84.019      251.169      -34.971       71.328       82.260       45.307     5087.647     6766.675     2052.749        4.263        0.695      264.849       32.134        0.015      344.294       21.008      857.907
04/15/2014  17:09:00     -229.010      185.948      -38.633      113.268       90.391       71.896    12829.673     8170.464     5168.979        5.734        1.308      294.995       71.703        0.059      344.430       21.240      857.903
04/15/2014  17:10:00     -115.148      144.653      -22.252       77.587       81.416       42.714     6019.741     6628.492     1824.526        2.457        0.724      184.888       44.545        0.058      344.707       21.714      857.913
04/15/2014  17:11:00     -171.498       83.653      -23.293      117.829       79.668       47.409    13883.655     6346.915     2247.632        2.971        1.124      190.812       47.926        0.063      344.713       21.724      857.904
04/15/2014  17:12:00     -180.861      163.020      -26.685       90.925      147.351       67.481     8267.336    21712.355     4553.645        4.726        1.727      243.488       63.907        0.069      344.571       21.480      857.897
04/15/2014  17:13:00      -94.057      120.323      -10.471       62.456       78.660       46.508     3900.807     6187.453     2163.037        1.784        0.613      152.723       37.801        0.061      344.780       21.842      857.887
04/15/2014  17:14:00     -214.161       39.565      -19.955      172.261       90.527       69.137    29673.901     8195.182     4779.979        4.523        2.132      217.785       82.933        0.145      344.958       22.144      857.896
04/15/2014  17:15:00     -302.344     -178.772       -6.954      209.890      147.538       85.066    44053.898    21767.517     7236.247        9.822        3.653      351.242       95.909        0.075      344.613       21.553      857.894
04/15/2014  17:16:00     -333.820     -104.211      -14.817      176.250       98.432       60.944    31063.978     9688.865     3714.222        8.348        2.223      349.708       74.539        0.045      344.286       20.994      857.898
04/15/2014  17:17:00     -289.432       52.358      -27.572      147.684       90.214       42.489    21810.457     8138.511     1805.278        5.951        1.588      294.130       43.963        0.022      344.489       21.342      857.883
04/15/2014  17:18:00     -185.021       54.813        5.041      152.900      100.092       42.859    23378.271    10018.490     1836.858        3.624        1.762      192.969       29.652        0.024      344.777       21.836      857.873
04/15/2014  17:19:00      -35.009      -50.587       16.870      103.669       55.972       49.325    10747.293     3132.879     2432.981        1.019        0.816       61.520       51.246        0.694      344.975       22.175      857.859
04/15/2014  17:20:00     -257.199      -37.265      -15.473      122.848       99.781       59.281    15091.688     9956.307     3514.219        4.817        1.428      259.884       60.091        0.053      344.722       21.739      857.858
04/15/2014  17:21:00     -244.408      -35.079      -23.448      139.796      130.797       60.569    19542.886    17107.960     3668.588        5.091        2.016      246.912       61.884        0.063      344.685       21.676      857.809
04/15/2014  17:22:00     -256.024      -75.076        6.456      157.178      125.085       63.708    24704.925    15646.322     4058.649        5.781        2.220      266.804       66.708        0.063      344.665       21.642      857.815
04/15/2014  17:23:00     -473.051      -20.732      -33.236      140.618      168.518       67.237    19773.371    28398.230     4520.807       13.899        2.635      473.505       34.336        0.005      344.630       21.583      857.810
04/15/2014  17:24:00     -331.557      -46.145      -19.814      168.053      124.691       74.062    28241.974    15547.860     5485.160        8.085        2.464      334.752       82.401        0.061      344.708       21.714      857.819
04/15/2014  17:25:00     -410.855      -27.968      -31.313      173.261      140.458       74.663    30019.265    19728.562     5574.492       11.293        2.766      411.806       78.122        0.036      344.439       21.257      857.823
04/15/2014  17:26:00     -359.957     -154.220      -25.532      184.961      145.879       85.951    34210.558    21280.725     7387.620       10.843        3.144      391.603       89.456        0.052      344.395       21.180      857.810
04/15/2014  17:27:00     -231.051      -52.195      -17.504      106.529      106.652       50.263    11348.361    11374.666     2526.328        4.083        1.262      236.873       48.818        0.042      344.619       21.561      857.838
04/15/2014  17:28:00      -84.909       12.254        6.237      113.728       78.972       36.139    12934.158     6236.528     1306.035        1.393        1.024       85.789       40.303        0.221      344.707       21.717      857.840
04/15/2014  17:29:00      -90.277      -59.337       -9.816      104.137       94.786       42.861    10844.594     8984.459     1837.095        1.671        1.083      108.031       24.055        0.050      344.793       21.863      857.807
04/15/2014  17:30:00     -137.379      -76.471       -0.145       87.121       94.820       51.962     7590.047     8990.739     2700.054        2.200        0.964      157.228       50.308        0.102      344.198       20.845      857.806
04/15/2014  17:31:00      -75.162     -114.898       13.221      100.673       79.202       41.309    10135.143     6272.977     1706.417        1.857        0.906      137.299       48.877        0.127      344.231       20.901      857.805
04/15/2014  17:32:00     -293.250      -21.518      -14.405      114.662       94.735       48.703    13147.290     8974.648     2371.954        5.557        1.225      294.038       44.499        0.023      344.379       21.153      857.811
04/15/2014  17:33:00     -167.952      -53.075        0.335      104.159       67.237       40.642    10849.100     4520.850     1651.770        2.402        0.851      176.139       44.956        0.065      344.574       21.487      857.792
04/15/2014  17:34:00     -112.756       63.945      -18.025       77.866       82.624       36.863     6063.156     6826.696     1358.891        1.569        0.712      129.626       28.534        0.048      344.831       21.928      857.807
04/15/2014  17:35:00     -190.966      -94.208      -13.058      140.622       98.664       67.232    19774.660     9734.506     4520.137        3.976        1.701      212.939       67.916        0.102      344.746       21.780      857.806
04/15/2014  17:36:00     -139.850       32.581      -19.952      141.214      137.310       63.732    19941.358    18853.921     4061.734        3.193        2.143      143.595       63.890        0.198      344.738       21.766      857.803
04/15/2014  17:37:00     -198.846      164.726      -30.883      114.074      175.385       55.830    13012.820    30759.811     3117.004        5.725        2.344      258.214       36.719        0.020      344.629       21.580      857.807
04/15/2014  17:38:00     -296.002      -71.761      -22.104      240.109      141.542       82.209    57652.124    20034.236     6758.265        8.883        4.222      304.576       95.158        0.098      344.728       21.751      857.804
04/15/2014  17:39:00     -376.221     -100.204       -8.253      171.380      124.481       72.607    29371.038    15495.624     5271.747       10.088        2.507      389.337       87.205        0.050      344.504       21.368      857.796
04/15/2014  17:40:00     -268.557       -3.533      -21.198      189.738       95.227       56.727    36000.339     9068.230     3217.969        6.043        2.414      268.580       69.542        0.067      344.803       21.878      857.823
04/15/2014  17:41:00     -257.112       57.193      -23.820      141.971      110.959       66.701    20155.677    12311.886     4448.981        5.342        1.846      263.396       60.026        0.052      344.648       21.611      857.849
04/15/2014  17:42:00     -164.764      -28.617       -5.914      116.002       57.167       43.623    13456.455     3268.045     1902.958        2.331        0.931      167.230       56.543        0.114      344.521       21.397      857.841
04/15/2014  17:43:00     -111.394      221.351      -27.998       70.930      196.875       46.341     5031.121    38759.790     2147.498        5.405        2.297      247.800       55.842        0.051      344.319       21.052      857.825
04/15/2014  17:44:00     -113.849      194.261      -24.499       78.872       89.547       50.414     6220.836     8018.631     2541.528        3.404        0.839      225.164       47.258        0.044      344.313       21.041      857.808
04/15/2014  17:45:00      -31.383      -39.300       -9.541       83.623       61.930       44.685     6992.725     3835.319     1996.717        0.772        0.641       50.293       44.859        0.796      344.589       21.514      857.800
04/15/2014  17:46:00     -191.202      -51.207      -19.443       99.586       76.019       44.790     9917.369     5778.882     2006.103        2.863        0.885      197.941       43.948        0.049      344.342       21.090      857.794
04/15/2014  17:47:00      -41.856      -58.339       19.577      100.047       59.500       47.500    10009.305     3540.282     2256.218        1.067        0.790       71.801       54.099        0.568      344.434       21.249      857.790
04/15/2014  17:48:00      -65.716       21.214       -3.243       49.317       62.246       36.194     2432.211     3874.522     1310.007        0.620        0.381       69.055       29.562        0.183      344.436       21.253      857.793
04/15/2014  17:49:00     -128.263      146.723      -18.067       80.182       78.963       47.393     6429.137     6235.202     2246.055        2.660        0.746      194.882       43.115        0.049      344.219       20.878      857.802
04/15/2014  17:50:00      -94.370      114.932      -25.988      104.348       86.316       39.371    10888.599     7450.471     1550.077        2.134        0.994      148.712       43.953        0.087      344.195       20.839      857.773
04/15/2014  17:51:00     -179.662      264.641      -44.567      108.734      104.166       58.724    11823.111    10850.457     3448.520        6.521        1.306      319.865       56.443        0.031      344.148       20.758      857.765
04/15/2014  17:52:00     -218.687      139.646      -35.658       90.659       71.529       45.989     8219.135     5116.431     2114.981        4.202        0.773      259.471       40.803        0.025      344.172       20.798      857.747
04/15/2014  17:53:00     -183.623      118.485      -31.773       91.848      102.474       58.031     8436.140    10500.981     3367.540        3.553        1.115      218.532       48.404        0.049      344.188       20.825      857.750
04/15/2014  17:54:00     -247.665       72.361      -33.530      112.468       61.315       56.425    12649.140     3759.475     3183.827        4.364        0.980      258.019       58.888        0.052      344.101       20.678      857.758
04/15/2014  17:55:00      -83.409       58.996       -2.848       74.390       60.202       46.893     5533.885     3624.224     2198.908        1.090        0.568      102.165       47.439        0.216      344.189       20.830      857.750
04/15/2014  17:56:00      -85.044       -0.956       12.526      125.113       87.850       51.857    15653.253     7717.558     2689.174        1.672        1.303       85.050       58.129        0.467      344.346       21.099      857.731
04/15/2014  17:57:00     -172.415      -90.104      -10.988      106.991       77.243       51.219    11447.083     5966.534     2623.376        2.900        1.002      194.540       54.939        0.080      344.276       20.977      857.725
04/15/2014  17:58:00     -202.649      -81.432        0.678      129.450       95.949       55.920    16757.277     9206.255     3126.993        3.839        1.455      218.398       65.045        0.089      344.253       20.938      857.730
04/15/2014  17:59:00     -134.573       25.809        7.488      107.626      133.927       41.653    11583.459    17936.474     1735.004        2.504        1.563      137.026       39.781        0.084      344.243       20.922      857.741
04/15/2014  18:00:00     -148.677      117.841      -22.194      106.640      111.064       68.865    11372.080    12335.181     4742.417        3.246        1.422      189.714       63.149        0.111      344.285       20.992      857.762
04/15/2014  18:01:00     -202.482       25.290      -15.910      134.129      139.736       52.897    17990.609    19526.184     2798.054        4.110        2.016      204.055       51.064        0.063      344.217       20.876      857.737
04/15/2014  18:02:00     -173.735      -63.202       -6.332      144.665       94.371       66.268    20928.006     8905.821     4391.449        3.421        1.711      184.873       72.216        0.153      344.226       20.891      857.755
04/15/2014  18:03:00     -235.675       -4.313      -16.682      107.551      118.736       58.634    11567.226    14098.307     3437.924        4.247        1.455      235.715       45.496        0.037      344.146       20.754      857.773
04/15/2014  18:04:00     -195.317      -34.036      -24.142      123.216       79.263       59.262    15182.238     6282.601     3511.938        3.243        1.249      198.261       66.558        0.113      344.139       20.742      857.781
04/15/2014  18:05:00     -241.439     -101.637      -33.436       75.416       72.933       48.266     5687.534     5319.273     2329.654        4.154        0.667      261.960       40.073        0.023      344.159       20.777      857.791
04/15/2014  18:06:00     -234.070      -47.870      -25.295      109.388       83.052       55.122    11965.784     6897.717     3038.461        3.981        1.095      238.914       58.713        0.060      344.122       20.714      857.809
04/15/2014  18:07:00     -331.911      -70.154      -34.798      184.480      123.063       71.312    34032.783    15144.517     5085.337        8.527        2.713      339.244       79.040        0.054      344.155       20.770      857.809
04/15/2014  18:08:00     -438.390      -95.190       -9.755      146.821      120.312       80.686    21556.533    14475.036     6510.226       12.193        2.127      448.605       77.991        0.030      344.043       20.580      857.824
04/15/2014  18:09:00     -453.877     -146.063      -25.086      147.887      112.220       67.451    21870.471    12593.401     4549.609       13.348        1.951      476.801       52.699        0.012      343.966       20.447      857.836
04/15/2014  18:10:00     -222.411      -41.038      -14.766      131.452       92.936       54.741    17279.692     8637.100     2996.562        4.014        1.446      226.166       46.935        0.043      344.131       20.730      857.828
04/15/2014  18:11:00     -452.031      -67.345      -27.552      208.483      105.261       76.217    43464.981    11079.813     5809.099       13.498        3.018      457.020       92.748        0.041      343.965       20.445      857.831
04/15/2014  18:12:00     -127.142      -41.336        1.391      159.417       93.138       59.003    25413.692     8674.640     3481.401        2.772        1.878      133.693       68.430        0.262      344.047       20.588      857.813
04/15/2014  18:13:00     -200.789        8.281      -27.593      101.572       79.560       52.755    10316.868     6329.764     2783.055        3.028        0.971      200.959       42.426        0.045      344.060       20.606      857.790
04/15/2014  18:14:00     -211.278      -59.709        0.514      119.892       91.781       59.148    14373.972     8423.815     3498.497        3.724        1.315      219.553       69.679        0.101      344.049       20.590      857.772
04/15/2014  18:15:00     -201.416      -44.281        1.148       84.553       86.107       45.606     7149.200     7414.359     2079.906        2.958        0.832      206.226       41.357        0.040      344.074       20.631      857.780
04/15/2014  18:16:00     -201.075      -52.631      -17.248      113.543       89.264       46.025    12891.994     7967.974     2118.286        3.323        1.149      207.849       55.118        0.070      344.054       20.600      857.764
04/15/2014  18:17:00     -222.741      -69.283       -1.532      105.304       77.353       43.551    11088.915     5983.548     1896.702        3.669        0.948      233.267       39.521        0.029      344.074       20.633      857.751
04/15/2014  18:18:00     -161.175      -50.564       -8.397       92.099       76.813       40.605     8482.276     5900.278     1648.782        2.231        0.802      168.921       40.450        0.057      344.182       20.818      857.753
04/15/2014  18:19:00     -188.754      -52.904      -22.819       74.597       72.438       38.819     5564.665     5247.274     1506.948        2.563        0.616      196.028       43.360        0.049      344.120       20.711      857.757
04/15/2014  18:20:00     -162.305      -51.475        3.473      103.593       87.750       48.130    10731.408     7699.983     2316.476        2.487        1.037      170.272       53.487        0.099      344.066       20.619      857.743
04/15/2014  18:21:00     -128.503      -53.525        1.666       78.775       75.357       39.360     6205.437     5678.635     1549.229        1.640        0.672      139.204       41.506        0.089      344.123       20.717      857.720
04/15/2014  18:22:00     -285.427      -45.778      -19.751      212.502      103.527       56.290    45157.039    10717.925     3168.562        7.149        2.952      289.074       74.508        0.066      344.009       20.522      857.704
04/15/2014  18:23:00     -416.822      -34.650      -35.063      153.818      184.100       72.290    23660.097    33892.907     5225.916       11.946        3.139      418.260       63.569        0.023      343.919       20.367      857.668
04/15/2014  18:24:00     -470.050      -98.380       -2.577      222.773      137.614       79.161    49627.938    18937.591     6266.419       15.272        3.742      480.235       99.709        0.043      343.794       20.155      857.654
04/15/2014  18:25:00     -300.363      -58.516       11.748      180.358      115.174       67.562    32529.185    13264.941     4564.572        7.206        2.518      306.010       70.588        0.053      343.824       20.205      857.653
04/15/2014  18:26:00     -146.143      -36.297       18.139      145.089       98.057       56.995    21050.863     9615.183     3248.466        2.845        1.696      150.583       70.554        0.220      343.935       20.395      857.654
04/15/2014  18:27:00     -166.190      -27.573      -12.383      114.592       75.881       41.762    13131.438     5757.857     1744.062        2.458        1.032      168.462       48.632        0.083      343.912       20.355      857.654
04/15/2014  18:28:00     -300.238     -175.572      -19.352      157.865      101.997       70.710    24921.259    10403.401     4999.946        8.083        2.016      347.805       72.105        0.043      343.838       20.229      857.652
04/15/2014  18:29:00     -233.940      -21.140       -2.437      162.183       97.854       58.918    26303.363     9575.351     3471.381        4.726        1.968      234.893       76.257        0.105      343.933       20.391      857.657
04/15/2014  18:30:00     -429.701     -107.615      -28.552      125.446       79.875       67.677    15736.579     6380.051     4580.180       11.186        1.335      442.972       63.632        0.021      343.826       20.209      857.674
04/15/2014  18:31:00     -393.690      -79.644      -16.770      179.092      125.240       75.171    32073.915    15685.045     5650.664       10.750        2.670      401.665       88.969        0.049      343.834       20.222      857.689
04/15/2014  18:32:00     -354.519      -58.157      -10.782      170.663      106.077       62.162    29125.699    11252.295     3864.088        8.670        2.212      359.257       81.241        0.051      343.831       20.217      857.697
04/15/2014  18:33:00     -299.046      -34.841      -10.912      133.729      119.831       71.012    17883.518    14359.475     5042.676        6.402        1.864      301.069       68.215        0.051      343.915       20.360      857.715
04/15/2014  18:34:00     -367.304     -101.541      -16.054      142.979      106.478       56.678    20443.130    11337.589     3212.407        9.023        1.750      381.081       61.917        0.026      343.847       20.244      857.722
04/15/2014  18:35:00     -252.729      -68.359      -21.929      116.196       83.796       48.590    13501.537     7021.825     2360.954        4.595        1.144      261.811       38.809        0.022      343.873       20.289      857.722
04/15/2014  18:36:00     -275.648      -54.139      -18.491      165.711       78.505       61.206    27460.211     6163.017     3746.220        5.830        1.868      280.915       60.601        0.047      343.913       20.356      857.707
04/15/2014  18:37:00     -234.032     -113.869      -10.896      170.826       98.098       67.264    29181.685     9623.293     4524.394        5.558        2.166      260.264       74.014        0.081      343.913       20.358      857.695
04/15/2014  18:38:00     -287.357      -59.201       -8.793      172.858      115.682       72.864    29879.859    13382.342     5309.184        6.735        2.429      293.392       60.291        0.042      343.873       20.289      857.696
04/15/2014  18:39:00     -418.482      -53.663      -23.340      119.798       77.090       55.834    14351.555     5942.883     3117.400       10.098        1.171      421.909       57.867        0.019      343.849       20.247      857.712
04/15/2014  18:40:00     -262.915       -9.468      -13.725      119.190       83.032       57.559    14206.283     6894.330     3313.076        4.690        1.221      263.086       58.213        0.049      343.797       20.158      857.731
04/15/2014  18:41:00     -222.300      -59.099        7.133      170.981       81.075       58.791    29234.627     6573.123     3456.437        4.610        1.963      230.022       80.496        0.122      343.838       20.228      857.735
04/15/2014  18:42:00      -86.567        5.452        2.985       88.585       59.944       43.404     7847.359     3593.334     1883.930        1.043        0.666       86.739       46.153        0.283      343.927       20.382      857.769
04/15/2014  18:43:00     -241.927      -15.994      -23.381      120.187       87.179       56.433    14445.005     7600.216     3184.692        4.228        1.261      242.455       57.172        0.056      343.831       20.218      857.789
04/15/2014  18:44:00     -308.232      -53.628      -43.666       99.497      108.114       56.129     9899.707    11688.640     3150.421        6.226        1.237      312.862       37.831        0.015      343.851       20.250      857.794
04/15/2014  18:45:00     -234.457        6.008      -29.747       94.841       84.923       45.628     8994.859     7211.951     2081.896        3.709        0.914      234.534       44.300        0.036      343.780       20.131      857.801
04/15/2014  18:46:00     -289.840     -137.607      -24.398      125.029      131.318       60.338    15632.190    17244.481     3640.688        7.002        1.826      320.847       50.652        0.025      343.790       20.145      857.794
04/15/2014  18:47:00     -271.319      -65.395      -21.333      156.928      105.511       61.722    24626.335    11132.563     3809.653        5.895        1.978      279.088       75.525        0.073      343.747       20.074      857.789
04/15/2014  18:48:00     -157.584      -79.325        3.952      117.200       86.602       54.353    13735.868     7499.929     2954.262        2.766        1.210      176.424       62.745        0.126      343.825       20.208      857.792
04/15/2014  18:49:00     -256.310      -52.306       -7.078       88.748       79.043       42.980     7876.240     6247.771     1847.274        4.222        0.799      261.593       35.823        0.019      343.820       20.197      857.802
04/15/2014  18:50:00     -148.290      -41.488       -5.242      120.928       91.652       60.244    14623.513     8400.086     3629.350        2.519        1.333      153.984       65.885        0.183      343.732       20.049      857.797
04/15/2014  18:51:00     -157.285      -63.501        9.988      126.343       78.317       46.189    15962.556     6133.538     2133.454        2.655        1.211      169.620       60.885        0.129      343.740       20.062      857.799
04/15/2014  18:52:00     -218.769     -105.531       -1.179       84.646       51.784       41.338     7164.870     2681.610     1708.857        3.527        0.578      242.892       40.698        0.028      343.733       20.048      857.797
04/15/2014  18:53:00     -163.615      -81.000        3.808       96.415       74.508       40.996     9295.832     5551.380     1680.704        2.493        0.826      182.567       47.590        0.068      343.721       20.027      857.800
04/15/2014  18:54:00     -197.568       -5.282       -8.486      164.442       61.263       53.872    27041.072     3753.172     2902.186        3.641        1.685      197.638       71.538        0.131      343.757       20.091      857.800
04/15/2014  18:55:00     -170.950      -66.327      -13.840       86.199       53.444       39.593     7430.334     2856.243     1567.590        2.283        0.593      183.366       46.049        0.063      343.755       20.090      857.802
04/15/2014  18:56:00     -189.448       -4.096       -7.329       93.956       65.609       41.188     8827.705     4304.601     1696.415        2.539        0.741      189.492       45.730        0.058      343.742       20.066      857.795
04/15/2014  18:57:00     -183.871       -1.297       -6.503      113.956       75.070       40.909    12985.998     5635.497     1673.524        2.707        1.015      183.875       39.324        0.046      343.735       20.055      857.793
04/15/2014  18:58:00     -419.388     -106.951      -32.600      114.400      116.931       60.395    13087.450    13672.972     3647.545       10.939        1.520      432.810       53.617        0.015      343.630       19.873      857.788
04/15/2014  18:59:00     -297.644      -82.206      -11.126      136.578       98.350       57.506    18653.543     9672.803     3306.929        6.355        1.582      308.788       60.555        0.038      343.628       19.869      857.786
04/15/2014  19:00:00     -231.595      -71.414      -19.560       69.899       96.934       39.768     4885.822     9396.161     1581.504        3.749        0.793      242.355       21.424        0.008      343.704       19.997      857.781
04/15/2014  19:01:00     -252.175        6.035      -30.267       95.016       89.350       53.613     9028.048     7983.388     2874.364        4.221        0.994      252.248       47.981        0.036      343.695       19.984      857.792
04/15/2014  19:02:00     -285.758      -69.504      -28.538      158.695      104.234       65.769    25184.207    10864.709     4325.506        6.383        2.019      294.089       74.776        0.065      343.612       19.843      857.811
04/15/2014  19:03:00     -290.447      -83.879       -9.693      133.404      106.787       60.577    17796.626    11403.425     3669.519        6.217        1.643      302.317       60.790        0.040      343.597       19.817      857.794
04/15/2014  19:04:00     -298.042      -71.752      -23.241      120.496      101.204       52.987    14519.360    10242.174     2807.615        6.104        1.378      306.558       43.341        0.020      343.595       19.813      857.793
04/15/2014  19:05:00     -311.287     -111.303      -14.060      156.706       88.295       54.280    24556.883     7795.954     2946.336        7.239        1.765      330.587       64.420        0.038      343.579       19.787      857.794
04/15/2014  19:06:00     -225.358      -42.512      -18.231       86.041       74.547       51.585     7403.050     5557.231     2661.031        3.427        0.781      229.333       46.627        0.041      343.603       19.828      857.787
04/15/2014  19:07:00     -192.090      -72.851      -18.982      129.324       64.147       52.813    16724.589     4114.897     2789.172        3.309        1.181      205.441       31.036        0.023      343.590       19.806      857.773
04/15/2014  19:08:00     -115.411      -24.182       -1.444      102.108       49.725       46.335    10426.015     2472.583     2146.914        1.447        0.752      117.917       40.595        0.119      343.599       19.822      857.775
04/15/2014  19:09:00     -172.441      -37.678      -13.127       67.526       60.268       41.001     4559.799     3632.284     1681.079        2.060        0.494      176.510       35.052        0.039      343.572       19.777      857.767
04/15/2014  19:10:00     -227.402      -46.237      -13.592       99.701       80.077       47.921     9940.270     6412.280     2296.409        3.634        0.932      232.055       39.372        0.029      343.568       19.768      857.758
04/15/2014  19:11:00     -243.785      -75.906      -10.763      113.032       80.382       52.765    12776.197     6461.298     2784.175        4.366        1.101      255.329       50.817        0.040      343.508       19.666      857.750
04/15/2014  19:12:00     -238.053     -108.523       -5.841       91.222       78.940       52.803     8321.533     6231.498     2788.150        4.291        0.867      261.623       55.059        0.044      343.468       19.598      857.739
04/15/2014  19:13:00     -201.422      -95.915       -8.845       79.452       65.138       38.843     6312.648     4242.909     1508.803        3.095        0.603      223.093       34.484        0.024      343.517       19.680      857.736
04/15/2014  19:14:00     -207.885     -123.679        1.320      107.852       84.403       57.698    11632.140     7123.886     3329.087        4.030        1.104      241.894       55.740        0.053      343.462       19.587      857.725
04/15/2014  19:15:00     -245.026      -23.704       -4.093       79.250       85.893       41.225     6280.525     7377.550     1699.541        3.798        0.768      246.169       29.949        0.015      343.464       19.590      857.736
04/15/2014  19:16:00     -187.232      -23.307       -4.604       86.922       64.197       41.327     7555.517     4121.315     1707.959        2.450        0.669      188.677       37.052        0.039      343.459       19.581      857.728
04/15/2014  19:17:00     -168.254      -18.224        7.846       99.180       86.672       54.434     9836.768     7512.097     2963.081        2.450        1.016      169.238       59.111        0.122      343.446       19.561      857.717
04/15/2014  19:18:00     -281.619      -57.568      -13.850       85.115       79.906       42.881     7244.511     6385.015     1838.790        4.914        0.773      287.443       40.546        0.020      343.398       19.478      857.715
04/15/2014  19:19:00     -279.293      -67.557      -17.800       85.697       97.368       44.686     7343.927     9480.514     1996.818        5.085        0.941      287.348       24.964        0.008      343.378       19.444      857.722
04/15/2014  19:20:00     -252.785      -28.234      -18.154       78.405       85.126       49.185     6147.280     7246.441     2419.177        4.042        0.791      254.357       40.631        0.026      343.396       19.475      857.730
04/15/2014  19:21:00     -230.260      -41.741        3.133      122.791       87.311       51.051    15077.557     7623.182     2606.167        4.003        1.265      234.013       54.649        0.055      343.365       19.423      857.724
04/15/2014  19:22:00     -296.465     -108.724       -5.114      111.403       95.336       49.883    12410.620     9088.883     2488.343        6.186        1.199      315.773       54.526        0.030      343.355       19.405      857.725
04/15/2014  19:23:00     -210.994      -72.938       -6.840      106.025       73.797       52.526    11241.356     5445.961     2759.003        3.466        0.972      223.245       46.686        0.044      343.375       19.439      857.733
04/15/2014  19:24:00     -296.660      -67.586       -7.302      122.058       85.789       59.051    14898.195     7359.824     3487.019        5.918        1.287      304.262       58.684        0.037      343.340       19.379      857.736
04/15/2014  19:25:00     -309.609      -71.809      -15.595      113.664       68.662       46.998    12919.479     4714.427     2208.838        6.055        0.992      317.828       53.680        0.029      343.326       19.356      857.743
04/15/2014  19:26:00     -324.112      -56.592      -16.649      102.024       86.751       49.923    10408.901     7525.661     2492.279        6.447        1.021      329.016       51.642        0.025      343.299       19.309      857.740
04/15/2014  19:27:00     -312.410      -99.248      -14.017       96.788       72.699       56.587     9368.004     5285.108     3202.116        6.275        0.893      327.796       60.124        0.034      343.301       19.314      857.738
04/15/2014  19:28:00     -229.414      -83.733       -3.451       90.753       70.017       47.809     8236.180     4902.338     2285.722        3.754        0.771      244.217       50.504        0.043      343.299       19.307      857.730
04/15/2014  19:29:00     -208.905      -65.479        5.550       99.321       84.720       44.513     9864.573     7177.420     1981.434        3.349        0.951      218.926       41.090        0.035      343.288       19.291      857.720
04/15/2014  19:30:00     -260.392      -64.062       -8.525      104.610       88.223       46.313    10943.255     7783.383     2144.926        4.642        1.044      268.157       49.651        0.034      343.271       19.261      857.726
04/15/2014  19:31:00     -271.230      -66.917       -6.112       85.038       70.309       45.031     7231.403     4943.353     2027.834        4.614        0.710      279.362       39.387        0.020      343.241       19.208      857.724
04/15/2014  19:32:00     -196.356      -74.352       -5.928       55.478       45.456       28.926     3077.757     2066.229      836.709        2.505        0.299      209.961       18.006        0.007      343.254       19.233      857.716
04/15/2014  19:33:00     -223.460      -71.984       -4.003      112.405       87.549       45.734    12634.802     7664.888     2091.641        3.876        1.120      234.768       49.374        0.044      343.237       19.202      857.725
04/15/2014  19:34:00     -304.273      -59.557        5.220      126.898       81.821       58.945    16103.019     6694.707     3474.459        6.121        1.314      310.047       62.627        0.041      343.225       19.184      857.728
04/15/2014  19:35:00     -225.933      -66.859       -1.937       65.790       80.672       42.260     4328.297     6508.026     1785.934        3.407        0.631      235.618       40.130        0.029      343.208       19.154      857.742
04/15/2014  19:36:00     -194.057      -59.910        3.496      109.924       71.663       40.746    12083.357     5135.613     1660.201        3.007        0.944      203.095       48.829        0.058      343.151       19.058      857.756
04/15/2014  19:37:00     -208.906      -59.001      -10.730       77.036       69.418       40.400     5934.511     4818.872     1632.121        2.981        0.619      217.078       41.141        0.036      343.191       19.126      857.768
04/15/2014  19:38:00     -236.983      -32.380      -19.139       75.346       75.164       51.184     5677.061     5649.567     2619.814        3.576        0.697      239.184       42.305        0.031      343.185       19.114      857.781
04/15/2014  19:39:00     -229.978      -61.750       -6.477       59.556       59.787       36.765     3546.859     3574.504     1351.668        3.261        0.424      238.124       24.309        0.010      343.150       19.054      857.795
04/15/2014  19:40:00     -248.222      -71.080       -1.914       87.959       91.259       50.071     7736.814     8328.288     2507.056        4.262        0.929      258.198       47.543        0.034      343.145       19.045      857.811
04/15/2014  19:41:00     -175.458      -67.900        0.581       82.000       60.715       38.729     6724.070     3686.269     1499.898        2.365        0.596      188.138       39.238        0.043      343.119       19.004      857.808
04/15/2014  19:42:00     -146.965      -69.075        0.217       55.810       44.295       26.055     3114.776     1962.072      678.868        1.606        0.288      162.389       26.322        0.026      343.102       18.977      857.817
04/15/2014  19:43:00     -156.189      -69.365      -16.770       81.213       39.836       29.446     6595.560     1586.910      867.054        1.927        0.452      170.899       24.300        0.020      343.116       19.001      857.832
04/15/2014  19:44:00     -227.908      -90.587       -8.442       87.787       60.967       41.509     7706.622     3716.974     1723.023        3.668        0.657      245.251       32.037        0.017      343.058       18.897      857.845
04/15/2014  19:45:00     -219.620      -85.961       -8.360       90.266       76.619       46.946     8147.991     5870.511     2203.897        3.595        0.811      235.843       45.571        0.037      343.042       18.871      857.851
04/15/2014  19:46:00     -216.802      -91.208        3.065      108.450       80.448       44.771    11761.402     6471.875     2004.404        3.778        1.012      235.206       54.065        0.053      343.023       18.840      857.867
04/15/2014  19:47:00     -238.398      -79.610      -10.085       94.195       72.021       36.708     8872.651     5187.088     1347.488        3.934        0.770      251.339       37.875        0.023      343.012       18.820      857.872
04/15/2014  19:48:00     -171.277      -47.274        4.306      103.601       78.574       45.879    10733.204     6173.851     2104.842        2.530        0.951      177.681       39.805        0.050      343.022       18.840      857.866
04/15/2014  19:49:00     -175.300      -13.562       -6.713       97.954       59.421       46.138     9595.014     3530.848     2128.684        2.310        0.763      175.824       47.718        0.074      342.977       18.762      857.873
04/15/2014  19:50:00     -192.953      -47.360       -5.662       85.301       80.272       39.953     7276.302     6443.580     1596.248        2.741        0.766      198.680       40.001        0.041      343.010       18.818      857.873
04/15/2014  19:51:00     -210.830      -45.573       -2.183       83.783       72.564       44.426     7019.666     5265.547     1973.693        3.039        0.713      215.699       39.608        0.034      342.986       18.776      857.877
04/15/2014  19:52:00     -164.280      -60.009        3.705       76.968       74.573       40.954     5924.013     5561.074     1677.210        2.188        0.658      174.897       40.370        0.053      342.935       18.691      857.881
04/15/2014  19:53:00     -191.452      -84.476      -16.250       62.077       62.131       32.350     3853.521     3860.305     1046.542        2.641        0.438      209.261       32.506        0.024      342.932       18.684      857.881
04/15/2014  19:54:00     -147.387      -58.566       -1.226       47.029       42.651       28.402     2211.743     1819.068      806.664        1.499        0.242      158.597       27.910        0.031      342.912       18.653      857.892
04/15/2014  19:55:00     -120.360      -58.614       -4.808       51.295       53.379       23.072     2631.145     2849.299      532.339        1.198        0.301      133.874       18.950        0.020      342.958       18.731      857.902
04/15/2014  19:56:00     -162.753      -35.574       -2.415       66.988       54.059       38.580     4487.331     2922.422     1488.386        1.833        0.445      166.595       41.221        0.061      342.921       18.668      857.911
04/15/2014  19:57:00     -165.359      -50.262        4.292       85.422       72.197       44.301     7296.847     5212.454     1962.598        2.218        0.724      172.829       45.583        0.070      342.882       18.599      857.917
04/15/2014  19:58:00     -256.330       -3.921      -14.575       93.895       76.829       37.838     8816.222     5902.770     1431.708        4.104        0.808      256.360       40.022        0.024      342.859       18.560      857.922
04/15/2014  19:59:00     -191.438      -64.500        2.118       78.785       52.952       35.878     6207.107     2803.887     1287.229        2.555        0.515      202.012       32.796        0.026      342.842       18.532      857.937
04/15/2014  20:00:00     -129.786      -44.542       -1.399       73.851       73.844       42.840     5453.899     5452.875     1835.253        1.578        0.637      137.217       38.287        0.078      342.805       18.472      857.950
04/15/2014  20:01:00     -136.150      -25.840       -2.087       58.526       47.526       38.707     3425.296     2258.735     1498.207        1.319        0.359      138.581       31.186        0.051      342.768       18.410      857.956
04/15/2014  20:02:00     -153.819      -36.468       -7.438       63.354       53.079       34.458     4013.682     2817.426     1187.337        1.653        0.401      158.083       33.779        0.046      342.797       18.456      857.962
04/15/2014  20:03:00     -192.905      -87.072      -14.006       55.509       77.262       29.058     3081.235     5969.454      844.371        2.744        0.495      211.646       20.736        0.010      342.793       18.449      857.980
04/15/2014  20:04:00     -104.272      -65.395       -1.484       54.833       45.230       32.617     3006.641     2045.717     1063.867        1.063        0.306      123.082       11.511        0.009      342.785       18.437      857.983
04/15/2014  20:05:00     -157.963      -26.775        2.784       70.195       64.174       32.349     4927.343     4118.311     1046.466        1.788        0.505      160.216       33.941        0.045      342.721       18.327      858.004
04/15/2014  20:06:00     -230.063      -55.028      -11.816       66.364       49.420       32.894     4404.231     2442.338     1082.026        3.201        0.396      236.552       31.630        0.018      342.745       18.365      858.013
04/15/2014  20:07:00     -127.761      -50.666        3.580       80.699       67.797       29.301     6512.321     4596.375      858.525        1.543        0.598      137.441       30.704        0.050      342.696       18.285      858.031
04/15/2014  20:08:00     -335.753      -95.530      -16.720      112.658       69.009       44.576    12691.783     4762.233     1987.016        7.078        0.972      349.078       45.443        0.017      342.697       18.282      858.048
04/15/2014  20:09:00     -257.493      -20.072      -12.241       92.156       70.375       43.508     8492.744     4952.653     1892.952        4.109        0.767      258.274       39.346        0.023      342.669       18.237      858.063
04/15/2014  20:10:00     -206.929      -35.983        6.780      105.498       99.137       40.955    11129.803     9828.064     1677.273        3.339        1.132      210.034       47.797        0.052      342.657       18.217      858.073
04/15/2014  20:11:00     -235.103      -50.366        2.118      116.632       80.111       56.452    13603.039     6417.738     3186.809        4.051        1.160      240.438       52.795        0.048      342.635       18.180      858.078
04/15/2014  20:12:00     -259.804      -20.455       -3.222      133.585       82.914       61.066    17845.054     6874.753     3729.031        4.818        1.422      260.608       71.646        0.076      342.627       18.166      858.095
04/15/2014  20:13:00     -372.048      -62.138      -36.149      141.028       94.934       58.044    19889.037     9012.546     3369.141        8.792        1.614      377.201       68.251        0.033      342.652       18.208      858.102
04/15/2014  20:14:00     -207.478      -70.757        4.477       95.355       85.075       49.542     9092.500     7237.725     2454.378        3.343        0.939      219.212       54.886        0.063      342.578       18.083      858.122
04/15/2014  20:15:00     -292.975      -95.190       -8.394      126.167      111.040       59.499    15918.173    12329.922     3540.086        6.337        1.589      308.051       59.690        0.038      342.601       18.121      858.133
04/15/2014  20:16:00     -229.550      -51.402       -1.389      114.577      119.779       52.023    13127.897    14346.993     2706.438        4.275        1.509      235.235       47.574        0.041      342.588       18.100      858.140
04/15/2014  20:17:00     -321.536      -54.277      -30.468       93.643       75.032       52.174     8769.093     5629.768     2722.141        6.219        0.856      326.085       55.401        0.029      342.586       18.096      858.163
04/15/2014  20:18:00     -283.113      -53.023      -13.053      100.484       62.911       42.963    10096.969     3957.830     1845.835        4.951        0.795      288.036       46.841        0.026      342.600       18.120      858.172
04/15/2014  20:19:00     -197.992      -20.174      -16.523       71.458       74.942       36.447     5106.247     5616.345     1328.360        2.596        0.603      199.017       33.808        0.029      342.572       18.073      858.187
04/15/2014  20:20:00     -208.882       -5.344      -15.466       67.481       92.154       43.170     4553.723     8492.401     1863.613        2.940        0.745      208.950       31.161        0.022      342.568       18.066      858.198
04/15/2014  20:21:00     -221.132      -61.076      -10.716       72.989       75.831       37.246     5327.437     5750.346     1387.237        3.260        0.623      229.411       29.464        0.016      342.536       18.011      858.211
04/15/2014  20:22:00     -260.815      -76.424      -27.348       81.174       78.995       47.058     6589.221     6240.288     2214.458        4.483        0.752      271.781       41.470        0.023      342.526       17.996      858.227
04/15/2014  20:23:00     -167.167      -35.580      -12.802       62.096       65.122       34.988     3855.878     4240.823     1224.168        1.935        0.466      170.912       31.857        0.035      342.488       17.932      858.248
04/15/2014  20:24:00     -214.014      -22.533      -19.564      116.440       69.497       59.133    13558.360     4829.767     3496.764        3.428        1.094      215.197       41.298        0.037      342.511       17.969      858.250
04/15/2014  20:25:00     -223.493      -52.667      -16.972       61.902       54.858       34.982     3831.806     3009.348     1223.726        3.054        0.403      229.615       27.056        0.014      342.458       17.874      858.273
04/15/2014  20:26:00     -212.597      -33.072      -17.689       70.504       81.817       46.768     4970.812     6694.065     2187.223        3.023        0.693      215.154       35.783        0.028      342.474       17.906      858.290
04/15/2014  20:27:00     -230.403      -23.659      -12.006       79.355       54.669       42.010     6297.169     2988.655     1764.853        3.242        0.553      231.614       40.798        0.031      342.405       17.788      858.302
04/15/2014  20:28:00     -164.249      -31.392      -11.144       81.513       67.773       37.344     6644.295     4593.238     1394.544        2.036        0.632      167.222       28.775        0.030      342.442       17.851      858.310
04/15/2014  20:29:00     -198.153       19.364       -7.947       88.310       82.866       41.998     7798.631     6866.817     1763.804        2.806        0.821      199.097       46.588        0.055      342.410       17.798      858.313
04/15/2014  20:30:00      -78.124      -37.502       11.433      104.940       87.507       45.909    11012.332     7657.525     2107.594        1.420        1.039       86.659       51.637        0.355      342.371       17.732      858.331
04/15/2014  20:31:00     -144.533       29.428      -13.308       61.377       67.028       40.034     3767.160     4492.700     1602.693        1.590        0.493      147.499       37.061        0.063      342.423       17.823      858.350
04/15/2014  20:32:00      -61.084      144.167       -4.641       81.341      100.781       44.460     6616.394    10156.725     1976.682        2.164        0.937      156.574       44.158        0.080      342.375       17.741      858.369
04/15/2014  20:33:00     -133.273      182.097      -26.523       61.352       68.203       38.750     3764.056     4651.604     1501.586        3.077        0.496      225.657       31.627        0.020      342.374       17.737      858.385
04/15/2014  20:34:00     -129.673      137.280      -19.270       69.410       92.979       49.545     4817.698     8645.061     2454.688        2.597        0.796      188.841       48.796        0.067      342.386       17.756      858.420
04/15/2014  20:35:00     -113.316      147.621      -17.266       70.293       88.146       55.903     4941.158     7769.740     3125.110        2.538        0.792      186.098       52.559        0.080      342.368       17.727      858.441
04/15/2014  20:36:00     -109.319      109.658       -8.384       72.739      109.281       43.604     5290.986    11942.384     1901.318        2.159        0.957      154.840       39.547        0.065      342.334       17.668      858.461
04/15/2014  20:37:00     -121.715      119.630      -20.635       68.434       80.741       49.225     4683.145     6519.147     2423.135        2.159        0.681      170.663       41.191        0.058      342.379       17.745      858.484
04/15/2014  20:38:00     -193.148      -38.975      -13.699      104.872       96.051       45.934    10998.137     9225.752     2109.908        3.067        1.117      197.041       46.681        0.056      342.399       17.778      858.510
04/15/2014  20:39:00     -199.227      -55.316      -11.806       68.769       66.945       36.107     4729.212     4481.629     1303.720        2.670        0.526      206.764       38.276        0.034      342.283       17.581      858.542
04/15/2014  20:40:00     -101.530      -25.790       -7.652       53.463       47.044       26.305     2858.242     2213.126      691.970        0.840        0.288      104.755       22.182        0.045      342.288       17.592      858.560
04/15/2014  20:41:00     -154.065       -8.160      -11.207      105.502       39.851       36.938    11130.758     1588.098     1364.422        1.900        0.704      154.281       42.805        0.077      342.306       17.624      858.589
04/15/2014  20:42:00      -61.063       86.373       -6.170       72.579      106.855       50.654     5267.757    11418.053     2565.792        1.524        0.963      105.778       42.618        0.162      342.283       17.584      858.592
04/15/2014  20:43:00      -85.946      167.151      -28.971       54.087       44.861       22.180     2925.366     2012.504      491.963        2.080        0.271      187.952       24.045        0.016      342.319       17.643      858.593
04/15/2014  20:44:00      -27.923      143.758      -15.481       34.391       50.373       21.788     1182.736     2537.389      474.731        1.294        0.210      146.445       22.386        0.023      342.336       17.672      858.610
04/15/2014  20:45:00      -22.756      154.827      -18.743       48.591       39.962       27.406     2361.040     1596.966      751.095        1.477        0.235      156.490       21.813        0.019      342.308       17.625      858.620
04/15/2014  20:46:00      -35.522      139.957      -23.338       32.356       38.965       19.580     1046.902     1518.244      383.377        1.217        0.147      144.395       16.368        0.013      342.291       17.597      858.648
04/15/2014  20:47:00       -8.219      133.458      -14.461       37.088       45.702       27.070     1375.484     2088.668      732.770        1.114        0.210      133.711       26.397        0.039      342.287       17.590      858.654
04/15/2014  20:48:00      -30.897      161.349      -25.563       37.661       40.949       14.491     1418.370     1676.821      209.988        1.547        0.165      164.281       13.447        0.007      342.300       17.612      858.665
04/15/2014  20:49:00      -85.548      181.632      -32.273       83.153       51.000       34.717     6914.353     2600.981     1205.301        2.603        0.536      200.770       31.318        0.024      342.313       17.634      858.670
04/15/2014  20:50:00      -91.232      148.880      -17.489       78.055      128.091       42.750     6092.643    16407.406     1827.529        2.756        1.216      174.609       43.756        0.063      342.361       17.715      858.665
04/15/2014  20:51:00      -85.928      101.755      -13.836       72.756       69.140       47.435     5293.367     4780.305     2250.052        1.512        0.616      133.183       33.578        0.064      342.431       17.834      858.664
04/15/2014  20:52:00     -165.810      139.477      -31.764       77.152       77.489       50.421     5952.500     6004.535     2542.263        3.122        0.725      216.672       41.067        0.036      342.428       17.826      858.666
04/15/2014  20:53:00      -87.959      127.874      -20.050       53.621       91.321       32.399     2875.257     8339.591     1049.706        1.838        0.613      155.205       37.549        0.059      342.403       17.785      858.685
04/15/2014  20:54:00     -145.719       22.941      -27.857       70.378       83.176       34.681     4953.108     6918.270     1202.779        1.780        0.654      147.514       40.346        0.075      342.457       17.879      858.703
04/15/2014  20:55:00      -76.505       -9.719        3.388       66.714       40.065       30.681     4450.807     1605.168      941.346        0.648        0.350       77.120       32.922        0.182      342.385       17.757      858.692
04/15/2014  20:56:00      -99.906      -56.945        0.476       75.438       48.234       33.111     5690.916     2326.567     1096.316        1.117        0.456      114.995       32.206        0.078      342.358       17.711      858.698
04/15/2014  20:57:00      -92.706       12.890      -18.499       66.019       29.694       22.702     4358.518      881.754      515.364        0.743        0.288       93.598       28.190        0.091      342.295       17.603      858.705
04/15/2014  20:58:00     -105.928       59.693      -15.026       77.978       64.802       33.814     6080.524     4199.279     1143.376        1.321        0.571      121.590       31.784        0.068      342.296       17.605      858.695
04/15/2014  20:59:00      -64.663       69.121       -3.506       59.778       95.359       41.624     3573.417     9093.245     1732.549        1.168        0.720       94.652       40.870        0.186      342.240       17.510      858.702
04/15/2014  21:00:00     -144.944      177.007      -31.896       51.272       59.350       45.349     2628.868     3522.395     2056.556        3.078        0.410      228.780       38.492        0.028      342.310       17.627      858.695
04/15/2014  21:01:00      -91.764      123.574      -26.962       40.955       54.604       26.840     1677.341     2981.645      720.383        1.490        0.269      153.919       24.276        0.025      342.325       17.654      858.695
04/15/2014  21:02:00      -73.638      162.181      -26.672       51.349       59.477       33.151     2636.693     3537.510     1098.998        1.985        0.364      178.116       32.325        0.033      342.327       17.658      858.687
04/15/2014  21:03:00      -18.916      153.841      -16.491       35.750       33.515       23.374     1278.082     1123.267      546.353        1.362        0.147      155.000       14.108        0.008      342.331       17.666      858.692
04/15/2014  21:04:00      -22.466      184.706      -20.482       24.077       36.002       20.809      579.722     1296.113      433.033        1.867        0.115      186.067        7.293        0.002      342.305       17.619      858.690
04/15/2014  21:05:00      -57.702      124.606      -16.953       32.169       54.887       20.907     1034.816     3012.546      437.083        1.181        0.224      137.318       17.358        0.016      342.322       17.650      858.696
04/15/2014  21:06:00      -68.343       97.096      -15.671       36.890       39.293       28.826     1360.904     1543.932      830.966        0.904        0.187      118.737       23.046        0.038      342.340       17.681      858.705
04/15/2014  21:07:00      -91.362       63.205      -13.451       33.370       29.290       21.871     1113.532      857.928      478.319        0.749        0.122      111.094       14.892        0.018      342.321       17.648      858.712
04/15/2014  21:08:00      -72.631       52.988        1.895       79.501       68.458       36.575     6320.409     4686.483     1337.750        1.021        0.617       89.906       41.222        0.210      342.206       17.453      858.712
04/15/2014  21:09:00     -105.294      127.084      -12.878       61.761       79.487       36.083     3814.428     6318.217     1301.951        1.942        0.572      165.037       35.491        0.046      342.196       17.435      858.718
04/15/2014  21:10:00     -110.008      131.006      -23.106       55.627       62.533       33.504     3094.387     3910.346     1122.516        1.896        0.406      171.068       29.558        0.030      342.171       17.393      858.720
04/15/2014  21:11:00      -88.700       89.618      -21.244       39.901       40.134       25.064     1592.076     1610.717      628.197        1.009        0.192      126.091       11.841        0.009      342.194       17.433      858.722
04/15/2014  21:12:00     -104.545      111.474      -23.797       54.627       35.300       27.984     2984.083     1246.082      783.081        1.447        0.251      152.827       21.573        0.020      342.238       17.508      858.730
04/15/2014  21:13:00      -71.218      134.815      -13.731       49.998       51.786       26.817     2499.775     2681.785      719.164        1.467        0.295      152.470       25.061        0.027      342.205       17.450      858.752
04/15/2014  21:14:00      -81.856       59.341      -11.128       45.372       40.889       28.278     2058.624     1671.892      799.622        0.744        0.227      101.102       18.500        0.033      342.236       17.505      858.762
04/15/2014  21:15:00      -97.553       21.423        2.630       52.428       66.997       37.520     2748.647     4488.575     1407.743        0.931        0.432       99.877       35.202        0.124      342.208       17.456      858.776
04/15/2014  21:16:00     -102.971      118.905       -2.712       82.716      112.977       60.909     6841.997    12763.696     3709.913        2.403        1.166      157.294       68.292        0.189      342.160       17.374      858.772
04/15/2014  21:17:00      -79.484       44.316        6.268       63.449      100.232       42.805     4025.798    10046.489     1832.247        1.211        0.795       91.003       34.476        0.144      342.144       17.345      858.777
04/15/2014  21:18:00      -70.737       49.269        8.572       65.325       72.910       34.414     4267.380     5315.904     1184.319        0.913        0.538       86.204       32.444        0.142      342.132       17.328      858.765
04/15/2014  21:19:00     -126.526      141.960      -24.702       64.039       67.046       44.117     4100.953     4495.193     1946.303        2.365        0.527      190.162       32.552        0.029      342.156       17.366      858.751
04/15/2014  21:20:00     -117.074       98.388       -6.829       64.141       75.242       44.532     4114.066     5661.347     1983.064        1.759        0.588      152.927       44.774        0.086      342.149       17.354      858.736
04/15/2014  21:21:00     -144.475       48.896      -13.446       92.368       63.473       39.237     8531.887     4028.813     1539.571        1.877        0.705      152.525       24.150        0.025      342.183       17.413      858.745
04/15/2014  21:22:00     -124.709       34.247       -8.509       55.136       47.588       33.485     3040.031     2264.643     1121.226        1.161        0.321      129.326       28.627        0.049      342.184       17.415      858.750
04/15/2014  21:23:00      -68.768       92.806        2.678       53.422       60.807       33.289     2853.869     3697.495     1108.142        1.050        0.383      115.508       26.719        0.054      342.146       17.350      858.753
04/15/2014  21:24:00     -100.262       96.478      -13.828       57.868       74.820       36.024     3348.749     5597.991     1297.749        1.490        0.512      139.142       41.883        0.091      342.149       17.355      858.765
04/15/2014  21:25:00      -87.677      109.173      -10.501       45.706       46.708       35.722     2089.004     2181.605     1276.086        1.263        0.277      140.021       26.707        0.036      342.103       17.278      858.758
04/15/2014  21:26:00      -77.370       43.179       -6.357       36.688       39.761       22.013     1346.030     1580.972      484.585        0.565        0.171       88.604       18.108        0.042      342.139       17.340      858.781
04/15/2014  21:27:00      -74.282      101.156       -5.615       46.652       64.296       32.347     2176.414     4134.021     1046.297        1.157        0.368      125.501       25.280        0.041      342.090       17.256      858.803
04/15/2014  21:28:00      -71.893      126.608      -16.045       59.815       73.531       39.895     3577.794     5406.869     1591.597        1.601        0.529      145.596       42.055        0.083      342.074       17.227      858.804
04/15/2014  21:29:00      -39.893      109.422      -12.752       50.368       57.636       26.338     2536.889     3321.860      693.680        1.014        0.328      116.467       30.143        0.067      342.048       17.185      858.821
04/15/2014  21:30:00      -93.499      129.266      -24.581       59.017      111.358       40.765     3483.062    12400.576     1661.809        2.180        0.877      159.536       47.986        0.090      342.035       17.161      858.844
04/15/2014  21:31:00      -49.388       67.759       11.057       52.922       77.598       49.382     2800.773     6021.478     2438.631        0.920        0.563       83.848       49.645        0.351      341.944       17.008      858.862
04/15/2014  21:32:00     -104.927       32.814       -2.557       67.754       60.909       40.344     4590.573     3709.938     1627.616        1.101        0.496      109.938       38.408        0.122      341.967       17.047      858.867
04/15/2014  21:33:00     -116.970       92.883      -20.919       51.296       62.830       30.695     2631.246     3947.638      942.187        1.513        0.376      149.362       17.446        0.014      341.943       17.006      858.877
04/15/2014  21:34:00      -84.128      138.423      -15.803       84.907       82.741       45.135     7209.244     6846.150     2037.139        2.129        0.805      161.983       42.902        0.070      342.021       17.137      858.893
04/15/2014  21:35:00      -76.407      113.438       -8.161       44.414       57.885       35.287     1972.644     3350.720     1245.198        1.267        0.328      136.771       30.409        0.049      342.021       17.137      858.887
04/15/2014  21:36:00      -94.158      112.792      -20.832       55.397       66.296       29.700     3068.826     4395.116      882.063        1.518        0.417      146.928       34.405        0.055      342.044       17.178      858.880
04/15/2014  21:37:00      -52.548      101.155      -11.379       49.240       64.665       26.079     2424.568     4181.552      680.094        1.020        0.364      113.990       30.415        0.071      342.022       17.141      858.894
04/15/2014  21:38:00      -69.669       96.495        2.205       61.818       77.324       40.135     3821.469     5978.948     1610.858        1.279        0.571      119.017       39.164        0.108      342.043       17.177      858.896
04/15/2014  21:39:00      -74.674      138.342      -17.376       70.219      102.038       52.649     4930.707    10411.743     2771.948        2.156        0.906      157.209       30.116        0.037      342.035       17.161      858.871
04/15/2014  21:40:00     -100.944      155.240      -11.409       55.680       80.895       38.368     3100.257     6544.035     1472.133        2.277        0.556      185.173       36.988        0.040      341.942       17.002      858.879
04/15/2014  21:41:00     -115.554       78.306       -3.657       91.209      106.911       49.518     8319.172    11429.950     2451.989        2.085        1.110      139.587       50.278        0.130      341.969       17.049      858.888
04/15/2014  21:42:00     -155.200      111.024      -19.819       83.619      101.750       47.770     6992.060    10353.038     2281.955        2.821        0.981      190.823       44.761        0.055      341.989       17.082      858.900
04/15/2014  21:43:00      -90.666       83.154      -23.984       44.702       51.167       23.714     1998.263     2618.022      562.333        1.044        0.259      123.024       18.856        0.023      341.945       17.011      858.901
04/15/2014  21:44:00     -114.613      150.470      -20.810       98.037       67.824       49.004     9611.192     4600.128     2401.429        2.641        0.831      189.149       52.322        0.077      341.978       17.065      858.903
04/15/2014  21:45:00      -57.780      143.350      -12.871       44.923       39.331       29.422     2018.088     1546.952      865.627        1.424        0.222      154.557       20.595        0.018      341.975       17.061      858.918
04/15/2014  21:46:00     -101.278       86.487      -28.348       47.051       54.263       31.463     2213.802     2944.444      989.912        1.234        0.307      133.181       29.087        0.048      342.012       17.124      858.924
04/15/2014  21:47:00     -212.345      180.588      -48.705       91.481       88.618       43.573     8368.727     7853.130     1898.623        4.909        0.906      278.752       43.080        0.024      342.038       17.166      858.937
04/15/2014  21:48:00     -112.864      143.255      -26.358       59.220       56.278       31.403     3506.957     3167.224      986.171        2.081        0.383      182.374       30.193        0.027      341.995       17.094      858.961
04/15/2014  21:49:00      -94.515       88.260       -4.629       50.129       52.258       35.057     2512.940     2730.951     1228.984        1.161        0.324      129.317       27.531        0.045      341.933       16.991      859.000
04/15/2014  21:50:00     -162.004      153.660      -38.279       76.825       70.805       43.077     5902.107     5013.299     1855.670        3.204        0.639      223.286       45.429        0.041      341.894       16.921      859.008
04/15/2014  21:51:00     -156.447      263.275      -42.244       63.614       95.079       49.883     4046.707     9040.048     2488.278        5.557        0.779      306.251       44.937        0.022      341.799       16.759      859.015
04/15/2014  21:52:00      -52.873      215.353      -26.382       71.041       80.502       45.770     5046.769     6480.589     2094.893        3.174        0.681      221.749       41.386        0.035      341.756       16.688      859.009
04/15/2014  21:53:00      -91.348      149.980      -19.208       64.456       82.699       34.907     4154.530     6839.066     1218.480        2.171        0.611      175.608       39.371        0.050      341.779       16.725      859.026
04/15/2014  21:54:00      -52.407      188.921      -24.712       42.603       74.949       35.672     1815.018     5617.416     1272.485        2.387        0.435      196.055       33.745        0.030      341.699       16.591      859.046
04/15/2014  21:55:00      -58.528      200.551      -25.669       43.193       83.759       34.791     1865.646     7015.588     1210.413        2.720        0.505      208.916       40.020        0.037      341.626       16.466      859.060
04/15/2014  21:56:00     -116.239      178.296      -26.897       54.243       89.046       31.706     2942.332     7929.143     1005.243        2.895        0.594      212.841       30.178        0.020      341.672       16.543      859.066
04/15/2014  21:57:00      -54.406      181.534      -16.794       62.597       53.079       30.011     3918.365     2817.388      900.650        2.191        0.382      189.511       23.867        0.016      341.626       16.468      859.055
04/15/2014  21:58:00     -110.958      171.438      -25.513       57.038       64.235       38.173     3253.382     4126.138     1457.196        2.559        0.442      204.212       37.076        0.033      341.583       16.393      859.040
04/15/2014  21:59:00     -101.917      136.536      -12.208       68.249       61.020       45.646     4657.910     3723.410     2083.562        1.982        0.523      170.379       46.080        0.073      341.582       16.391      859.025
04/15/2014  22:00:00     -126.248      127.413      -37.061       63.820       56.218       31.197     4073.011     3160.410      973.252        2.087        0.410      179.367       31.058        0.030      341.597       16.417      859.015
04/15/2014  22:01:00     -124.380      125.323      -20.770       66.224       65.715       36.845     4385.591     4318.525     1357.579        2.083        0.503      176.568       33.914        0.037      341.588       16.402      859.014
04/15/2014  22:02:00     -127.742      218.347      -27.994       51.729       72.060       45.439     2675.888     5192.607     2064.683        3.735        0.497      252.969       33.509        0.018      341.537       16.316      859.012
04/15/2014  22:03:00     -155.627      157.344      -39.076       68.065       59.218       38.145     4632.789     3506.787     1455.022        3.005        0.480      221.307       40.551        0.034      341.534       16.309      859.022
04/15/2014  22:04:00     -178.511      228.271      -47.706       72.342       61.711       42.292     5233.400     3808.268     1788.599        4.854        0.542      289.782       39.949        0.019      341.566       16.364      859.043
04/15/2014  22:05:00     -168.329      196.994      -25.904       91.645       76.557       46.947     8398.825     5860.913     2204.024        4.213        0.823      259.117       42.742        0.027      341.644       16.495      859.072
04/15/2014  22:06:00     -142.473      151.994      -11.810       63.603       88.318       51.327     4045.345     7800.107     2634.492        2.901        0.724      208.328       42.000        0.041      341.665       16.533      859.091
04/15/2014  22:07:00     -134.057      159.350      -26.740       75.992       75.787       42.741     5774.809     5743.693     1826.827        2.871        0.667      208.240       40.766        0.038      341.679       16.556      859.095
04/15/2014  22:08:00     -125.886      125.459      -29.156       70.241       72.661       42.227     4933.734     5279.686     1783.109        2.221        0.600      177.728       39.681        0.050      341.673       16.548      859.119
04/15/2014  22:09:00     -172.644      192.347      -36.147       70.657      110.157       46.894     4992.470    12134.551     2199.048        4.371        0.966      258.464       43.913        0.029      341.687       16.570      859.112
04/15/2014  22:10:00     -129.239      138.218      -23.733       66.109       81.101       39.517     4370.439     6577.404     1561.562        2.444        0.625      189.227       28.492        0.023      341.627       16.468      859.117
04/15/2014  22:11:00     -115.680      185.579      -22.248       59.475       60.340       41.877     3537.293     3640.863     1753.674        2.862        0.447      218.681       39.407        0.032      341.606       16.433      859.120
04/15/2014  22:12:00     -128.387      233.830      -29.781       57.054       86.538       39.553     3255.213     7488.751     1564.431        4.218        0.615      266.758       27.710        0.011      341.637       16.486      859.108
04/15/2014  22:13:00     -120.661      200.092      -26.767       79.515       72.472       45.952     6322.704     5252.148     2111.583        3.450        0.684      233.657       47.937        0.042      341.582       16.390      859.080
04/15/2014  22:14:00     -123.272      132.959      -15.884       73.778       90.874       41.391     5443.215     8258.117     1713.197        2.427        0.771      181.312       45.051        0.062      341.565       16.362      859.073
04/15/2014  22:15:00      -95.314      129.263       -2.761       67.707       74.391       54.506     4584.273     5534.006     2970.934        1.944        0.654      160.604       51.940        0.105      341.529       16.303      859.053
04/15/2014  22:16:00     -120.821      160.877      -34.469       72.913       84.146       35.931     5316.255     7080.559     1291.044        2.767        0.684      201.194       36.691        0.033      341.531       16.305      859.035
04/15/2014  22:17:00     -125.902      189.331      -25.054       74.003       67.046       49.181     5476.484     4495.105     2418.795        3.236        0.620      227.371       44.420        0.038      341.521       16.288      859.012
04/15/2014  22:18:00     -143.839      169.501      -25.237       72.831       89.693       40.174     5304.337     8044.884     1613.971        3.251        0.748      222.307       30.581        0.019      341.520       16.286      859.022
04/15/2014  22:19:00     -109.834      206.102      -19.324       69.708       74.305       55.298     4859.229     5521.193     3057.876        3.417        0.672      233.541       52.973        0.051      341.516       16.281      859.024
04/15/2014  22:20:00      -83.687      108.216      -16.850       45.513       96.241       29.869     2071.416     9262.315      892.167        1.561        0.611      136.800       23.483        0.029      341.568       16.369      859.020
04/15/2014  22:21:00     -137.658      171.357      -20.506       78.807      106.272       52.532     6210.587    11293.793     2759.614        3.449        1.013      219.802       44.020        0.040      341.536       16.315      859.022
04/15/2014  22:22:00     -206.759      172.994      -37.240      129.269       72.389       53.818    16710.597     5240.240     2896.372        4.945        1.242      269.585       62.222        0.053      341.539       16.320      859.008
04/15/2014  22:23:00     -114.833      152.618      -28.287       77.179       75.658       43.307     5956.596     5724.098     1875.513        2.541        0.678      190.994       27.484        0.021      341.519       16.284      858.989
04/15/2014  22:24:00     -112.637      139.464      -17.824       86.638       89.816       53.976     7506.117     8066.841     2913.397        2.547        0.924      179.269       47.670        0.071      341.559       16.354      858.984
04/15/2014  22:25:00     -146.668      277.261      -30.501       67.087       94.664       53.942     4500.690     8961.257     2909.687        5.784        0.819      313.664       48.511        0.024      341.497       16.246      858.959
04/15/2014  22:26:00     -155.192      182.822      -26.726       76.119       87.362       49.362     5794.134     7632.033     2436.586        3.704        0.793      239.809       45.409        0.036      341.515       16.276      858.955
04/15/2014  22:27:00     -178.677      239.312      -46.952       88.108       91.709       56.855     7763.003     8410.557     3232.476        5.540        0.970      298.657       61.673        0.043      341.488       16.231      858.963
04/15/2014  22:28:00     -127.558      146.439      -12.352       61.589       98.011       48.283     3793.262     9606.066     2331.270        2.680        0.787      194.204       44.350        0.052      341.504       16.260      858.958
04/15/2014  22:29:00     -142.717      239.819      -35.906       75.126       79.122       55.563     5643.957     6260.369     3087.255        4.708        0.750      279.072       42.363        0.023      341.445       16.157      858.963
04/15/2014  22:30:00     -145.200      254.307      -31.960       79.085      127.042       51.762     6254.444    16139.626     2679.254        5.592        1.254      292.839       52.202        0.032      341.461       16.187      858.966
04/15/2014  22:31:00      -80.615      166.660      -15.792       56.596       81.597       39.152     3203.106     6658.066     1532.910        2.296        0.570      185.133       32.646        0.031      341.466       16.195      858.966
04/15/2014  22:32:00     -118.246      150.167       -8.699       79.933      100.922       54.249     6389.275    10185.158     2942.986        2.806        0.976      191.134       51.190        0.072      341.454       16.174      858.977
04/15/2014  22:33:00     -105.977      145.089      -24.234       62.982       64.452       36.331     3966.683     4154.076     1319.931        2.115        0.472      179.672       36.556        0.041      341.489       16.235      858.979
04/15/2014  22:34:00      -84.545      151.540      -12.422       71.446       72.727       42.213     5104.502     5289.261     1781.905        2.122        0.609      173.528       37.793        0.047      341.444       16.160      858.974
04/15/2014  22:35:00      -90.940      143.892       -5.276       61.427      102.021       52.708     3773.326    10408.347     2778.100        2.298        0.848      170.220       49.132        0.083      341.465       16.194      858.977
04/15/2014  22:36:00      -96.555      170.283       -3.932       77.816       83.141       52.600     6055.352     6912.445     2766.758        2.703        0.787      195.753       40.785        0.043      341.461       16.187      858.969
04/15/2014  22:37:00     -114.900      170.574      -25.434       69.375      107.078       50.919     4812.890    11465.764     2592.736        3.090        0.944      205.664       33.929        0.027      341.490       16.234      858.977
04/15/2014  22:38:00     -158.956      191.129      -25.064       85.791      114.497       47.414     7360.017    13109.513     2248.088        4.257        1.136      248.591       38.667        0.024      341.463       16.188      858.988
04/15/2014  22:39:00     -139.326      168.726      -31.430       56.052       73.705       39.420     3141.862     5432.372     1553.949        2.950        0.506      218.815       33.580        0.024      341.435       16.142      858.990
04/15/2014  22:40:00     -130.235      167.804      -25.917       64.502       72.371       42.598     4160.469     5237.496     1814.598        2.850        0.561      212.413       27.910        0.017      341.444       16.159      858.972
04/15/2014  22:41:00     -115.309      222.778      -22.537       50.305       72.389       38.558     2530.569     5240.115     1486.726        3.634        0.463      250.851       24.975        0.010      341.414       16.107      858.958
04/15/2014  22:42:00      -77.135      136.353      -13.303       42.002       59.770       31.464     1764.139     3572.440      989.993        1.552        0.316      156.659       31.658        0.041      341.410       16.103      858.958
04/15/2014  22:43:00      -93.554      198.602      -16.192       44.992       66.331       38.849     2024.274     4399.847     1509.251        2.819        0.397      219.534       32.883        0.022      341.426       16.127      858.960
04/15/2014  22:44:00      -97.711      176.643      -26.449       58.143       59.970       41.566     3380.592     3596.438     1727.736        2.508        0.435      201.867       40.617        0.040      341.365       16.026      858.968
04/15/2014  22:45:00      -59.084       77.545        1.573       34.587       64.628       30.003     1196.229     4176.766      900.153        0.789        0.314       97.489       26.069        0.072      341.387       16.064      858.969
04/15/2014  22:46:00      -27.042       92.654       -4.579       44.755       41.582       28.613     2003.048     1729.102      818.685        0.694        0.228       96.520       27.762        0.083      341.350       16.002      858.966
04/15/2014  22:47:00       -9.657      113.877      -13.477       29.196       28.329       17.663      852.410      802.535      311.984        0.760        0.098      114.286       12.068        0.011      341.224       15.789      858.971
04/15/2014  22:48:00       -0.485       91.313       -0.447       29.312       43.863       25.590      859.219     1923.954      654.841        0.589        0.172       91.315       24.610        0.073      341.191       15.731      858.972
04/15/2014  22:49:00      -15.405       41.284       12.159       33.923       26.501       15.709     1150.761      702.296      246.773        0.209        0.105       44.064        9.625        0.048      341.255       15.842      858.968
04/15/2014  22:50:00       21.338       14.544       29.238       39.101       30.822       29.610     1528.879      949.995      876.731        0.244        0.168       25.824       21.887        0.718      341.071       15.530      858.963
04/15/2014  22:51:00       12.409       15.955       13.667       28.694       36.715       21.575      823.336     1347.987      465.488        0.162        0.132       20.212       17.853        0.780      341.066       15.522      858.953
04/15/2014  22:52:00       30.815       -3.376        7.415       22.330       20.085       15.247      498.644      403.404      232.474        0.108        0.057       31.000       12.102        0.152      341.043       15.484      858.944
04/15/2014  22:53:00       34.834       16.496       19.024       28.049       13.141       23.176      786.754      172.691      537.140        0.167        0.075       38.543       20.675        0.288      340.927       15.285      858.938
04/15/2014  22:54:00       21.219       31.611       -3.373       28.917       23.277       12.946      836.192      541.822      167.598        0.150        0.077       38.073       10.025        0.069      340.953       15.329      858.938
04/15/2014  22:55:00       12.518       47.728      -12.477       23.163       23.273       14.104      536.515      541.622      198.915        0.193        0.064       49.342       11.206        0.052      341.053       15.501      858.943
04/15/2014  22:56:00       -7.198       24.790       -7.832       22.988       26.461       16.849      528.440      700.180      283.882        0.112        0.076       25.814       15.588        0.365      341.014       15.433      858.946
04/15/2014  22:57:00        0.348       24.075        3.006       25.179       18.816       17.013      634.001      354.032      289.425        0.093        0.064       24.078        6.908        0.082      341.082       15.547      858.940
04/15/2014  22:58:00       20.660       43.626        3.603       27.852       25.073       22.485      775.761      628.674      505.593        0.213        0.096       48.271       19.225        0.159      340.991       15.394      858.940
04/15/2014  22:59:00       12.780       40.738       -5.913       25.959       26.011       11.656      673.847      676.558      135.873        0.167        0.074       42.696       12.041        0.080      340.982       15.378      858.942
04/15/2014  23:00:00       29.335       30.731        3.232       20.071       17.025       21.512      402.856      289.849      462.762        0.149        0.058       42.485       15.193        0.128      340.948       15.322      858.937
04/15/2014  23:01:00        9.109       34.212       -6.945       27.102       15.522       11.199      734.502      240.932      125.417        0.120        0.055       35.404        5.641        0.025      340.901       15.241      858.938
04/15/2014  23:02:00      -30.794       24.618       -3.228       28.128       18.906       15.708      791.210      357.440      246.742        0.148        0.070       39.424        7.274        0.034      341.003       15.414      858.933
04/15/2014  23:03:00        3.833        8.277        3.632       16.698       16.349        9.743      278.819      267.288       94.925        0.037        0.032        9.121        9.099        0.995      340.927       15.284      858.915
04/15/2014  23:04:00       18.543       39.352        5.849       31.716       33.653       16.806     1005.881     1132.504      282.431        0.217        0.121       43.502       17.090        0.154      340.920       15.274      858.881
04/15/2014  23:05:00       60.058      149.401      -21.846       33.855       85.367       34.928     1146.167     7287.531     1219.959        1.803        0.483      161.020       49.468        0.094      340.902       15.240      858.854
04/15/2014  23:06:00      131.542      181.682      -21.316       74.205      100.653       48.283     5506.362    10130.931     2331.273        3.436        0.898      224.302       42.231        0.035      341.066       15.516      858.836
04/15/2014  23:07:00     -127.731       47.133      -24.673       79.357       65.176       47.751     6297.509     4247.884     2280.185        1.598        0.641      136.150       22.592        0.028      341.135       15.638      858.815
04/15/2014  23:08:00     -165.271      -46.017      -17.473       76.671       91.441       51.640     5878.496     8361.391     2666.684        2.332        0.845      171.558       40.997        0.057      341.321       15.949      858.797
04/15/2014  23:09:00     -151.932       12.107      -12.165       58.538       66.843       30.997     3426.658     4467.961      960.795        1.611        0.443      152.413       21.145        0.019      341.420       16.119      858.812
04/15/2014  23:10:00     -130.624      198.260      -29.861       61.281       99.202       44.874     3755.311     9840.963     2013.645        3.643        0.780      237.423       42.042        0.031      341.445       16.160      858.822
04/15/2014  23:11:00      -50.065      203.245      -22.464       73.064       65.593       34.303     5338.359     4302.468     1176.709        2.757        0.541      209.320       32.992        0.025      341.270       15.863      858.817
04/15/2014  23:12:00       -1.312      267.069      -48.341       84.087       41.124       23.765     7070.658     1691.187      564.797        4.149        0.466      267.072       20.425        0.006      341.069       15.520      858.791
04/15/2014  23:13:00      -19.540      232.847      -13.063       99.189      126.965       72.728     9838.536    16120.131     5289.400        4.300        1.562      233.665       61.068        0.068      341.459       16.185      858.753
04/15/2014  23:14:00      -34.447       38.009       21.471      132.634      150.427       78.915    17591.652    22628.171     6227.643        2.476        2.322       51.296       91.463        3.179      341.460       16.185      858.697
04/15/2014  23:15:00      -33.613       82.287      -15.836       84.590       66.469       38.314     7155.423     4418.189     1467.982        1.059        0.652       88.887       50.377        0.321      341.312       15.935      858.707
04/15/2014  23:16:00       53.270       56.318        2.156       46.310       48.200       32.161     2144.596     2323.283     1034.335        0.576        0.275       77.520       28.259        0.133      340.901       15.242      858.714
04/15/2014  23:17:00       30.832      129.587      -13.972       33.147       64.997       30.880     1098.712     4224.571      953.545        1.211        0.314      133.204       36.349        0.074      340.810       15.087      858.735
04/15/2014  23:18:00      -28.088      180.175      -35.673       38.951       53.271       21.602     1517.156     2837.795      466.662        1.967        0.241      182.352       18.311        0.010      340.829       15.117      858.767
04/15/2014  23:19:00      -50.051      154.335       -7.442       62.833       76.357       51.753     3948.021     5830.398     2678.328        1.942        0.623      162.247       50.740        0.098      341.022       15.446      858.768
04/15/2014  23:20:00      -49.460      104.738        5.811       54.777       57.017       43.054     3000.525     3250.962     1853.626        1.078        0.405      115.829       39.248        0.115      341.122       15.617      858.756
04/15/2014  23:21:00      -79.361      140.724      -23.996       67.345       72.132       37.068     4535.287     5203.045     1374.059        1.889        0.556      161.559       31.337        0.038      341.152       15.664      858.757
04/15/2014  23:22:00      -16.871      120.114       -9.241       53.050       74.423       35.628     2814.341     5538.719     1269.386        1.221        0.481      121.293       39.181        0.104      341.174       15.703      858.730
04/15/2014  23:23:00       31.663      186.981      -34.918       39.685       71.188       25.946     1574.917     5067.790      673.187        2.225        0.366      189.643       31.508        0.028      340.858       15.168      858.713
04/15/2014  23:24:00       -9.127      145.036      -27.152       39.503       51.825       23.551     1560.497     2685.807      554.648        1.333        0.240      145.323       28.938        0.040      340.815       15.094      858.733
04/15/2014  23:25:00       -5.244      310.185      -38.617       80.272      102.104       51.684     6443.604    10425.267     2671.247        5.863        0.977      310.229       48.098        0.024      340.923       15.275      858.723
04/15/2014  23:26:00      -85.591      249.285      -25.620       63.866       89.157       45.865     4078.895     7948.980     2103.618        4.213        0.707      263.570       44.592        0.029      341.049       15.488      858.730
04/15/2014  23:27:00     -121.201      162.930      -21.360      105.069       66.185       40.469    11039.480     4380.404     1637.750        2.937        0.853      203.066       39.296        0.037      341.167       15.690      858.745
04/15/2014  23:28:00     -115.967      173.510      -28.792       98.968      110.485       52.632     9794.698    12206.923     2770.171        3.457        1.239      208.696       51.757        0.062      341.287       15.892      858.740
04/15/2014  23:29:00     -125.501      211.377      -16.675       80.220      140.749       48.934     6435.226    19810.201     2394.547        4.467        1.432      245.827       55.225        0.050      341.388       16.063      858.713
04/15/2014  23:30:00     -118.695      129.996       -9.387       65.385       79.423       49.307     4275.174     6308.043     2431.196        2.204        0.651      176.033       45.348        0.066      341.410       16.102      858.705
04/15/2014  23:31:00      -66.359      130.143      -10.946       44.490       66.243       38.287     1979.362     4388.149     1465.924        1.465        0.392      146.084       37.582        0.066      341.406       16.095      858.696
04/15/2014  23:32:00       -8.295      167.121      -29.922       64.092       45.730       29.389     4107.760     2091.217      863.726        1.798        0.353      167.327       18.853        0.013      341.094       15.568      858.689
04/15/2014  23:33:00        8.701       96.462      -10.284       49.813       51.376       32.568     2481.380     2639.527     1060.656        0.783        0.309       96.853       29.771        0.094      340.948       15.321      858.696
04/15/2014  23:34:00      -24.479      156.987      -26.897       52.132       60.056       27.556     2717.793     3606.714      759.333        1.652        0.354      158.884       28.733        0.033      340.991       15.393      858.705
04/15/2014  23:35:00      -19.838      209.115      -32.902       38.673       27.254       17.200     1495.630      742.792      295.846        2.387        0.127      210.054       11.492        0.003      341.083       15.546      858.703
04/15/2014  23:36:00      -37.115      156.247      -28.378       33.127       64.091       23.701     1097.377     4107.690      561.757        1.618        0.288      160.594       28.394        0.031      341.089       15.557      858.711
04/15/2014  23:37:00      -16.111      104.634      -14.243       28.492       40.409       22.017      811.815     1632.890      484.757        0.717        0.146      105.867       20.467        0.037      341.178       15.711      858.702
04/15/2014  23:38:00      -28.074      131.107      -25.107       43.836       47.731       22.592     1921.637     2278.262      510.418        1.166        0.236      134.079       23.877        0.032      341.164       15.687      858.704
04/15/2014  23:39:00      -29.620      181.930      -22.093       62.177       56.058       24.529     3865.933     3142.533      601.683        2.104        0.381      184.326       17.470        0.009      341.093       15.565      858.695
04/15/2014  23:40:00       -0.662      144.966      -20.454       52.117       36.484       26.607     2716.140     1331.112      707.918        1.309        0.238      144.967       23.738        0.027      341.010       15.424      858.690
04/15/2014  23:41:00      -43.918      134.434      -25.985       45.126       49.281       27.343     2036.346     2428.605      747.650        1.294        0.261      141.425       26.265        0.034      341.055       15.503      858.695
04/15/2014  23:42:00       -8.535      133.871      -16.408       46.672       51.085       21.999     2178.269     2609.651      483.936        1.177        0.264      134.143       20.091        0.022      340.908       15.253      858.703
04/15/2014  23:43:00      -43.610      171.910      -21.011       44.364       65.332       34.166     1968.185     4268.270     1167.312        1.965        0.370      177.355       38.022        0.046      341.027       15.453      858.721
04/15/2014  23:44:00      -46.113      198.177      -36.900       45.123       65.478       33.307     2036.080     4287.331     1109.383        2.510        0.372      203.471       35.199        0.030      341.040       15.473      858.722
04/15/2014  23:45:00      -27.041      150.406      -25.187       35.212       57.616       27.578     1239.881     3319.606      760.527        1.465        0.266      152.817       29.765        0.038      341.050       15.492      858.732
04/15/2014  23:46:00      -12.208      178.235      -29.455       31.562       36.870       17.570      996.132     1359.369      308.689        1.772        0.133      178.653       15.594        0.008      340.897       15.236      858.744
04/15/2014  23:47:00      -77.154      135.886      -19.500       44.693       43.475       25.600     1997.462     1890.095      655.357        1.467        0.227      156.262       22.372        0.020      340.951       15.324      858.772
04/15/2014  23:48:00      -38.465      158.417      -19.839       47.534       62.681       29.727     2259.488     3928.888      883.717        1.702        0.354      163.020       27.211        0.028      340.945       15.315      858.805
04/15/2014  23:49:00      -62.052      151.203      -11.007       46.021       77.794       39.088     2117.935     6051.938     1527.855        1.826        0.485      163.440       40.687        0.062      340.922       15.275      858.804
04/15/2014  23:50:00      -33.775      181.597      -25.184       38.508       50.444       22.237     1482.890     2544.592      494.466        1.964        0.226      184.712       22.261        0.015      340.871       15.189      858.805
04/15/2014  23:51:00      -38.947      200.359      -33.270       53.983       54.333       26.432     2914.177     2952.103      698.628        2.466        0.328      204.109       23.995        0.014      340.780       15.034      858.800
04/15/2014  23:52:00      -67.986      145.218      -14.218       37.774       56.453       33.584     1426.890     3186.961     1127.912        1.583        0.287      160.345       32.288        0.041      340.797       15.065      858.796
04/15/2014  23:53:00      -42.535      112.576      -12.123       38.766       64.893       27.690     1502.768     4211.113      766.734        1.055        0.324      120.343       31.433        0.068      340.785       15.045      858.788
04/15/2014  23:54:00      -59.028      121.021      -13.213       55.299       66.023       31.444     3057.934     4359.060      988.705        1.335        0.420      134.649       31.051        0.053      340.842       15.140      858.774
04/15/2014  23:55:00     -107.692      170.648      -29.330       52.760       70.774       46.284     2783.573     5008.986     2142.232        2.575        0.497      201.788       26.516        0.017      340.789       15.049      858.776
04/15/2014  23:56:00      -88.062      212.685      -20.573       59.751       73.319       43.575     3570.205     5375.646     1898.818        3.213        0.542      230.195       34.880        0.023      340.785       15.042      858.780
04/15/2014  23:57:00     -113.772      171.205      -27.799       56.278       76.120       36.258     3167.256     5794.201     1314.640        2.665        0.514      205.561       38.070        0.034      340.762       15.003      858.789
04/15/2014  23:58:00      -89.840      178.332      -27.355       61.907       82.660       41.995     3832.513     6832.745     1763.579        2.652        0.621      199.683       40.275        0.041      340.842       15.140      858.785
04/15/2014  23:59:00     -102.948      137.514      -18.123       57.060       61.023       34.828     3255.894     3723.785     1212.989        1.901        0.410      171.780       34.092        0.039      340.834       15.126      858.784
